<?xml version="1.0" encoding="UTF-8" standalone="no" ?>
<gpx xmlns="http://www.topografix.com/GPX/1/1" xmlns:xsi="http://www.w3.org/2001/XMLSchema-instance" xsi:schemaLocation="http://www.topografix.com/GPX/1/1 http://www.topografix.com/GPX/1/1/gpx.xsd" version="1.1" creator="VisuGPX - https://www.visugpx.com">
  <metadata>
    <name>14640041-MIKA</name>
  </metadata>
  <trk>
    <name><![CDATA[14640041-MIKA]]></name>
    <trkseg>
      <trkpt lat="49.6337" lon="-1.62076">
        <ele>4</ele>
        <time>2022-04-25T20:14:53Z</time>
      </trkpt>
      <trkpt lat="49.63356" lon="-1.61925">
        <ele>4</ele>
        <time>2022-04-25T20:15:11Z</time>
      </trkpt>
      <trkpt lat="49.63345" lon="-1.61736">
        <ele>3</ele>
        <time>2022-04-25T20:15:32Z</time>
      </trkpt>
      <trkpt lat="49.6334" lon="-1.61618">
        <ele>5</ele>
        <time>2022-04-25T20:15:46Z</time>
      </trkpt>
      <trkpt lat="49.63341" lon="-1.61582">
        <ele>5</ele>
        <time>2022-04-25T20:15:50Z</time>
      </trkpt>
      <trkpt lat="49.63346" lon="-1.61555">
        <ele>5</ele>
        <time>2022-04-25T20:15:53Z</time>
      </trkpt>
      <trkpt lat="49.63357" lon="-1.61519">
        <ele>4</ele>
        <time>2022-04-25T20:15:58Z</time>
      </trkpt>
      <trkpt lat="49.63371" lon="-1.61486">
        <ele>4</ele>
        <time>2022-04-25T20:16:03Z</time>
      </trkpt>
      <trkpt lat="49.63389" lon="-1.6146">
        <ele>3</ele>
        <time>2022-04-25T20:16:07Z</time>
      </trkpt>
      <trkpt lat="49.63408" lon="-1.61437">
        <ele>3</ele>
        <time>2022-04-25T20:16:11Z</time>
      </trkpt>
      <trkpt lat="49.63414" lon="-1.61426">
        <ele>3</ele>
        <time>2022-04-25T20:16:13Z</time>
      </trkpt>
      <trkpt lat="49.63413" lon="-1.61416">
        <ele>3</ele>
        <time>2022-04-25T20:16:14Z</time>
      </trkpt>
      <trkpt lat="49.63417" lon="-1.61398">
        <ele>3</ele>
        <time>2022-04-25T20:16:16Z</time>
      </trkpt>
      <trkpt lat="49.63421" lon="-1.61391">
        <ele>3</ele>
        <time>2022-04-25T20:16:17Z</time>
      </trkpt>
      <trkpt lat="49.63426" lon="-1.61387">
        <ele>3</ele>
        <time>2022-04-25T20:16:18Z</time>
      </trkpt>
      <trkpt lat="49.63418" lon="-1.61373">
        <ele>2</ele>
        <time>2022-04-25T20:16:21Z</time>
      </trkpt>
      <trkpt lat="49.6339" lon="-1.61337">
        <ele>3</ele>
        <time>2022-04-25T20:16:27Z</time>
      </trkpt>
      <trkpt lat="49.63362" lon="-1.61302">
        <ele>5</ele>
        <time>2022-04-25T20:16:33Z</time>
      </trkpt>
      <trkpt lat="49.63351" lon="-1.61292">
        <ele>6</ele>
        <time>2022-04-25T20:16:36Z</time>
      </trkpt>
      <trkpt lat="49.63266" lon="-1.61237">
        <ele>10</ele>
        <time>2022-04-25T20:16:52Z</time>
      </trkpt>
      <trkpt lat="49.63246" lon="-1.61218">
        <ele>11</ele>
        <time>2022-04-25T20:16:56Z</time>
      </trkpt>
      <trkpt lat="49.63238" lon="-1.61204">
        <ele>12</ele>
        <time>2022-04-25T20:16:58Z</time>
      </trkpt>
      <trkpt lat="49.63209" lon="-1.61166">
        <ele>15</ele>
        <time>2022-04-25T20:17:05Z</time>
      </trkpt>
      <trkpt lat="49.63182" lon="-1.61123">
        <ele>18</ele>
        <time>2022-04-25T20:17:12Z</time>
      </trkpt>
      <trkpt lat="49.63177" lon="-1.61099">
        <ele>19</ele>
        <time>2022-04-25T20:17:15Z</time>
      </trkpt>
      <trkpt lat="49.63177" lon="-1.61083">
        <ele>20</ele>
        <time>2022-04-25T20:17:17Z</time>
      </trkpt>
      <trkpt lat="49.63179" lon="-1.61061">
        <ele>19</ele>
        <time>2022-04-25T20:17:19Z</time>
      </trkpt>
      <trkpt lat="49.63175" lon="-1.61008">
        <ele>18</ele>
        <time>2022-04-25T20:17:26Z</time>
      </trkpt>
      <trkpt lat="49.63162" lon="-1.60925">
        <ele>20</ele>
        <time>2022-04-25T20:17:35Z</time>
      </trkpt>
      <trkpt lat="49.63115" lon="-1.60711">
        <ele>24</ele>
        <time>2022-04-25T20:18:01Z</time>
      </trkpt>
      <trkpt lat="49.63094" lon="-1.606">
        <ele>24</ele>
        <time>2022-04-25T20:18:15Z</time>
      </trkpt>
      <trkpt lat="49.63086" lon="-1.60574">
        <ele>25</ele>
        <time>2022-04-25T20:18:18Z</time>
      </trkpt>
      <trkpt lat="49.63083" lon="-1.60538">
        <ele>24</ele>
        <time>2022-04-25T20:18:22Z</time>
      </trkpt>
      <trkpt lat="49.63077" lon="-1.60501">
        <ele>25</ele>
        <time>2022-04-25T20:18:27Z</time>
      </trkpt>
      <trkpt lat="49.63077" lon="-1.60487">
        <ele>24</ele>
        <time>2022-04-25T20:18:28Z</time>
      </trkpt>
      <trkpt lat="49.6308" lon="-1.60464">
        <ele>23</ele>
        <time>2022-04-25T20:18:31Z</time>
      </trkpt>
      <trkpt lat="49.63083" lon="-1.60458">
        <ele>23</ele>
        <time>2022-04-25T20:18:32Z</time>
      </trkpt>
      <trkpt lat="49.63077" lon="-1.60453">
        <ele>23</ele>
        <time>2022-04-25T20:18:33Z</time>
      </trkpt>
      <trkpt lat="49.63069" lon="-1.60443">
        <ele>24</ele>
        <time>2022-04-25T20:18:35Z</time>
      </trkpt>
      <trkpt lat="49.63063" lon="-1.6043">
        <ele>24</ele>
        <time>2022-04-25T20:18:37Z</time>
      </trkpt>
      <trkpt lat="49.63041" lon="-1.60259">
        <ele>25</ele>
        <time>2022-04-25T20:18:57Z</time>
      </trkpt>
      <trkpt lat="49.63017" lon="-1.60165">
        <ele>25</ele>
        <time>2022-04-25T20:19:08Z</time>
      </trkpt>
      <trkpt lat="49.63022" lon="-1.60112">
        <ele>25</ele>
        <time>2022-04-25T20:19:15Z</time>
      </trkpt>
      <trkpt lat="49.63025" lon="-1.60001">
        <ele>26</ele>
        <time>2022-04-25T20:19:27Z</time>
      </trkpt>
      <trkpt lat="49.63182" lon="-1.60009">
        <ele>16</ele>
        <time>2022-04-25T20:19:55Z</time>
      </trkpt>
      <trkpt lat="49.63183" lon="-1.60002">
        <ele>16</ele>
        <time>2022-04-25T20:19:56Z</time>
      </trkpt>
      <trkpt lat="49.63188" lon="-1.59991">
        <ele>16</ele>
        <time>2022-04-25T20:19:58Z</time>
      </trkpt>
      <trkpt lat="49.63196" lon="-1.59988">
        <ele>15</ele>
        <time>2022-04-25T20:19:59Z</time>
      </trkpt>
      <trkpt lat="49.63204" lon="-1.59992">
        <ele>15</ele>
        <time>2022-04-25T20:20:01Z</time>
      </trkpt>
      <trkpt lat="49.63215" lon="-1.59971">
        <ele>14</ele>
        <time>2022-04-25T20:20:04Z</time>
      </trkpt>
      <trkpt lat="49.63256" lon="-1.59906">
        <ele>10</ele>
        <time>2022-04-25T20:20:14Z</time>
      </trkpt>
      <trkpt lat="49.6327" lon="-1.59887">
        <ele>9</ele>
        <time>2022-04-25T20:20:18Z</time>
      </trkpt>
      <trkpt lat="49.6329" lon="-1.59877">
        <ele>9</ele>
        <time>2022-04-25T20:20:21Z</time>
      </trkpt>
      <trkpt lat="49.63301" lon="-1.59878">
        <ele>8</ele>
        <time>2022-04-25T20:20:23Z</time>
      </trkpt>
      <trkpt lat="49.63383" lon="-1.59687">
        <ele>7</ele>
        <time>2022-04-25T20:20:50Z</time>
      </trkpt>
      <trkpt lat="49.63398" lon="-1.59639">
        <ele>7</ele>
        <time>2022-04-25T20:20:56Z</time>
      </trkpt>
      <trkpt lat="49.63475" lon="-1.5928">
        <ele>4</ele>
        <time>2022-04-25T20:21:39Z</time>
      </trkpt>
      <trkpt lat="49.63476" lon="-1.59269">
        <ele>4</ele>
        <time>2022-04-25T20:21:41Z</time>
      </trkpt>
      <trkpt lat="49.63474" lon="-1.59252">
        <ele>4</ele>
        <time>2022-04-25T20:21:43Z</time>
      </trkpt>
      <trkpt lat="49.63468" lon="-1.59246">
        <ele>4</ele>
        <time>2022-04-25T20:21:44Z</time>
      </trkpt>
      <trkpt lat="49.63466" lon="-1.59235">
        <ele>5</ele>
        <time>2022-04-25T20:21:45Z</time>
      </trkpt>
      <trkpt lat="49.63466" lon="-1.5923">
        <ele>5</ele>
        <time>2022-04-25T20:21:46Z</time>
      </trkpt>
      <trkpt lat="49.6347" lon="-1.59222">
        <ele>5</ele>
        <time>2022-04-25T20:21:47Z</time>
      </trkpt>
      <trkpt lat="49.63475" lon="-1.59218">
        <ele>5</ele>
        <time>2022-04-25T20:21:48Z</time>
      </trkpt>
      <trkpt lat="49.6348" lon="-1.59219">
        <ele>5</ele>
        <time>2022-04-25T20:21:49Z</time>
      </trkpt>
      <trkpt lat="49.63485" lon="-1.59223">
        <ele>5</ele>
        <time>2022-04-25T20:21:50Z</time>
      </trkpt>
      <trkpt lat="49.635" lon="-1.59189">
        <ele>5</ele>
        <time>2022-04-25T20:21:55Z</time>
      </trkpt>
      <trkpt lat="49.63497" lon="-1.59186">
        <ele>6</ele>
        <time>2022-04-25T20:21:55Z</time>
      </trkpt>
      <trkpt lat="49.63499" lon="-1.59178">
        <ele>6</ele>
        <time>2022-04-25T20:21:56Z</time>
      </trkpt>
      <trkpt lat="49.63499" lon="-1.59153">
        <ele>6</ele>
        <time>2022-04-25T20:21:59Z</time>
      </trkpt>
      <trkpt lat="49.63501" lon="-1.59143">
        <ele>6</ele>
        <time>2022-04-25T20:22:00Z</time>
      </trkpt>
      <trkpt lat="49.63505" lon="-1.59133">
        <ele>6</ele>
        <time>2022-04-25T20:22:02Z</time>
      </trkpt>
      <trkpt lat="49.63507" lon="-1.5912">
        <ele>6</ele>
        <time>2022-04-25T20:22:03Z</time>
      </trkpt>
      <trkpt lat="49.63528" lon="-1.59109">
        <ele>6</ele>
        <time>2022-04-25T20:22:07Z</time>
      </trkpt>
      <trkpt lat="49.63517" lon="-1.59074">
        <ele>6</ele>
        <time>2022-04-25T20:22:12Z</time>
      </trkpt>
      <trkpt lat="49.63502" lon="-1.59016">
        <ele>6</ele>
        <time>2022-04-25T20:22:19Z</time>
      </trkpt>
      <trkpt lat="49.63492" lon="-1.58951">
        <ele>7</ele>
        <time>2022-04-25T20:22:27Z</time>
      </trkpt>
      <trkpt lat="49.63489" lon="-1.58911">
        <ele>7</ele>
        <time>2022-04-25T20:22:31Z</time>
      </trkpt>
      <trkpt lat="49.63488" lon="-1.58875">
        <ele>8</ele>
        <time>2022-04-25T20:22:35Z</time>
      </trkpt>
      <trkpt lat="49.63489" lon="-1.58835">
        <ele>8</ele>
        <time>2022-04-25T20:22:40Z</time>
      </trkpt>
      <trkpt lat="49.63492" lon="-1.58792">
        <ele>9</ele>
        <time>2022-04-25T20:22:45Z</time>
      </trkpt>
      <trkpt lat="49.63499" lon="-1.58746">
        <ele>9</ele>
        <time>2022-04-25T20:22:50Z</time>
      </trkpt>
      <trkpt lat="49.63508" lon="-1.58704">
        <ele>9</ele>
        <time>2022-04-25T20:22:56Z</time>
      </trkpt>
      <trkpt lat="49.63544" lon="-1.58587">
        <ele>9</ele>
        <time>2022-04-25T20:23:10Z</time>
      </trkpt>
      <trkpt lat="49.6356" lon="-1.58523">
        <ele>10</ele>
        <time>2022-04-25T20:23:18Z</time>
      </trkpt>
      <trkpt lat="49.63566" lon="-1.58491">
        <ele>11</ele>
        <time>2022-04-25T20:23:22Z</time>
      </trkpt>
      <trkpt lat="49.63579" lon="-1.58467">
        <ele>11</ele>
        <time>2022-04-25T20:23:26Z</time>
      </trkpt>
      <trkpt lat="49.63577" lon="-1.58447">
        <ele>12</ele>
        <time>2022-04-25T20:23:28Z</time>
      </trkpt>
      <trkpt lat="49.63598" lon="-1.58315">
        <ele>11</ele>
        <time>2022-04-25T20:23:44Z</time>
      </trkpt>
      <trkpt lat="49.63602" lon="-1.58272">
        <ele>11</ele>
        <time>2022-04-25T20:23:49Z</time>
      </trkpt>
      <trkpt lat="49.63607" lon="-1.58188">
        <ele>11</ele>
        <time>2022-04-25T20:23:59Z</time>
      </trkpt>
      <trkpt lat="49.63608" lon="-1.58065">
        <ele>13</ele>
        <time>2022-04-25T20:24:13Z</time>
      </trkpt>
      <trkpt lat="49.63604" lon="-1.57765">
        <ele>15</ele>
        <time>2022-04-25T20:24:47Z</time>
      </trkpt>
      <trkpt lat="49.63601" lon="-1.57679">
        <ele>13</ele>
        <time>2022-04-25T20:24:57Z</time>
      </trkpt>
      <trkpt lat="49.63605" lon="-1.57662">
        <ele>13</ele>
        <time>2022-04-25T20:24:59Z</time>
      </trkpt>
      <trkpt lat="49.63617" lon="-1.57649">
        <ele>13</ele>
        <time>2022-04-25T20:25:02Z</time>
      </trkpt>
      <trkpt lat="49.63635" lon="-1.57589">
        <ele>14</ele>
        <time>2022-04-25T20:25:10Z</time>
      </trkpt>
      <trkpt lat="49.63676" lon="-1.57561">
        <ele>14</ele>
        <time>2022-04-25T20:25:18Z</time>
      </trkpt>
      <trkpt lat="49.63691" lon="-1.57548">
        <ele>14</ele>
        <time>2022-04-25T20:25:21Z</time>
      </trkpt>
      <trkpt lat="49.63713" lon="-1.57523">
        <ele>13</ele>
        <time>2022-04-25T20:25:25Z</time>
      </trkpt>
      <trkpt lat="49.63732" lon="-1.57509">
        <ele>12</ele>
        <time>2022-04-25T20:25:29Z</time>
      </trkpt>
      <trkpt lat="49.63715" lon="-1.57471">
        <ele>13</ele>
        <time>2022-04-25T20:25:34Z</time>
      </trkpt>
      <trkpt lat="49.63698" lon="-1.57437">
        <ele>14</ele>
        <time>2022-04-25T20:25:39Z</time>
      </trkpt>
      <trkpt lat="49.63662" lon="-1.57326">
        <ele>14</ele>
        <time>2022-04-25T20:25:54Z</time>
      </trkpt>
      <trkpt lat="49.63635" lon="-1.57233">
        <ele>13</ele>
        <time>2022-04-25T20:26:05Z</time>
      </trkpt>
      <trkpt lat="49.63637" lon="-1.57203">
        <ele>14</ele>
        <time>2022-04-25T20:26:09Z</time>
      </trkpt>
      <trkpt lat="49.63638" lon="-1.57124">
        <ele>16</ele>
        <time>2022-04-25T20:26:18Z</time>
      </trkpt>
      <trkpt lat="49.6364" lon="-1.57113">
        <ele>16</ele>
        <time>2022-04-25T20:26:19Z</time>
      </trkpt>
      <trkpt lat="49.63637" lon="-1.57099">
        <ele>16</ele>
        <time>2022-04-25T20:26:21Z</time>
      </trkpt>
      <trkpt lat="49.63627" lon="-1.57086">
        <ele>16</ele>
        <time>2022-04-25T20:26:23Z</time>
      </trkpt>
      <trkpt lat="49.6361" lon="-1.57075">
        <ele>17</ele>
        <time>2022-04-25T20:26:27Z</time>
      </trkpt>
      <trkpt lat="49.63606" lon="-1.5707">
        <ele>17</ele>
        <time>2022-04-25T20:26:28Z</time>
      </trkpt>
      <trkpt lat="49.63604" lon="-1.57064">
        <ele>17</ele>
        <time>2022-04-25T20:26:28Z</time>
      </trkpt>
      <trkpt lat="49.63599" lon="-1.57043">
        <ele>18</ele>
        <time>2022-04-25T20:26:31Z</time>
      </trkpt>
      <trkpt lat="49.63576" lon="-1.57018">
        <ele>19</ele>
        <time>2022-04-25T20:26:36Z</time>
      </trkpt>
      <trkpt lat="49.63547" lon="-1.56996">
        <ele>20</ele>
        <time>2022-04-25T20:26:42Z</time>
      </trkpt>
      <trkpt lat="49.6353" lon="-1.56977">
        <ele>20</ele>
        <time>2022-04-25T20:26:45Z</time>
      </trkpt>
      <trkpt lat="49.63509" lon="-1.56943">
        <ele>22</ele>
        <time>2022-04-25T20:26:51Z</time>
      </trkpt>
      <trkpt lat="49.63503" lon="-1.56938">
        <ele>22</ele>
        <time>2022-04-25T20:26:52Z</time>
      </trkpt>
      <trkpt lat="49.63475" lon="-1.56919">
        <ele>23</ele>
        <time>2022-04-25T20:26:58Z</time>
      </trkpt>
      <trkpt lat="49.63434" lon="-1.56899">
        <ele>24</ele>
        <time>2022-04-25T20:27:05Z</time>
      </trkpt>
      <trkpt lat="49.63427" lon="-1.56892">
        <ele>24</ele>
        <time>2022-04-25T20:27:07Z</time>
      </trkpt>
      <trkpt lat="49.63416" lon="-1.56872">
        <ele>25</ele>
        <time>2022-04-25T20:27:10Z</time>
      </trkpt>
      <trkpt lat="49.63302" lon="-1.5664">
        <ele>37</ele>
        <time>2022-04-25T20:27:43Z</time>
      </trkpt>
      <trkpt lat="49.63299" lon="-1.56641">
        <ele>37</ele>
        <time>2022-04-25T20:27:44Z</time>
      </trkpt>
      <trkpt lat="49.63293" lon="-1.56639">
        <ele>37</ele>
        <time>2022-04-25T20:27:45Z</time>
      </trkpt>
      <trkpt lat="49.63289" lon="-1.56632">
        <ele>38</ele>
        <time>2022-04-25T20:27:46Z</time>
      </trkpt>
      <trkpt lat="49.63289" lon="-1.56624">
        <ele>38</ele>
        <time>2022-04-25T20:27:47Z</time>
      </trkpt>
      <trkpt lat="49.63293" lon="-1.56615">
        <ele>39</ele>
        <time>2022-04-25T20:27:48Z</time>
      </trkpt>
      <trkpt lat="49.63266" lon="-1.56525">
        <ele>42</ele>
        <time>2022-04-25T20:28:00Z</time>
      </trkpt>
      <trkpt lat="49.63244" lon="-1.56419">
        <ele>43</ele>
        <time>2022-04-25T20:28:12Z</time>
      </trkpt>
      <trkpt lat="49.63224" lon="-1.56337">
        <ele>43</ele>
        <time>2022-04-25T20:28:22Z</time>
      </trkpt>
      <trkpt lat="49.63166" lon="-1.56142">
        <ele>52</ele>
        <time>2022-04-25T20:28:47Z</time>
      </trkpt>
      <trkpt lat="49.63157" lon="-1.56127">
        <ele>53</ele>
        <time>2022-04-25T20:28:50Z</time>
      </trkpt>
      <trkpt lat="49.6315" lon="-1.56122">
        <ele>54</ele>
        <time>2022-04-25T20:28:51Z</time>
      </trkpt>
      <trkpt lat="49.63111" lon="-1.56104">
        <ele>56</ele>
        <time>2022-04-25T20:28:58Z</time>
      </trkpt>
      <trkpt lat="49.63062" lon="-1.56072">
        <ele>59</ele>
        <time>2022-04-25T20:29:08Z</time>
      </trkpt>
      <trkpt lat="49.63041" lon="-1.56055">
        <ele>60</ele>
        <time>2022-04-25T20:29:12Z</time>
      </trkpt>
      <trkpt lat="49.63021" lon="-1.56022">
        <ele>62</ele>
        <time>2022-04-25T20:29:17Z</time>
      </trkpt>
      <trkpt lat="49.62966" lon="-1.55872">
        <ele>71</ele>
        <time>2022-04-25T20:29:37Z</time>
      </trkpt>
      <trkpt lat="49.62953" lon="-1.55825">
        <ele>73</ele>
        <time>2022-04-25T20:29:43Z</time>
      </trkpt>
      <trkpt lat="49.62893" lon="-1.55505">
        <ele>83</ele>
        <time>2022-04-25T20:30:21Z</time>
      </trkpt>
      <trkpt lat="49.62884" lon="-1.55476">
        <ele>85</ele>
        <time>2022-04-25T20:30:25Z</time>
      </trkpt>
      <trkpt lat="49.62793" lon="-1.55282">
        <ele>99</ele>
        <time>2022-04-25T20:30:53Z</time>
      </trkpt>
      <trkpt lat="49.62784" lon="-1.55253">
        <ele>101</ele>
        <time>2022-04-25T20:30:56Z</time>
      </trkpt>
      <trkpt lat="49.62772" lon="-1.55212">
        <ele>104</ele>
        <time>2022-04-25T20:31:01Z</time>
      </trkpt>
      <trkpt lat="49.6276" lon="-1.55159">
        <ele>108</ele>
        <time>2022-04-25T20:31:08Z</time>
      </trkpt>
      <trkpt lat="49.62716" lon="-1.54945">
        <ele>120</ele>
        <time>2022-04-25T20:31:34Z</time>
      </trkpt>
      <trkpt lat="49.62702" lon="-1.54898">
        <ele>122</ele>
        <time>2022-04-25T20:31:40Z</time>
      </trkpt>
      <trkpt lat="49.62682" lon="-1.54862">
        <ele>122</ele>
        <time>2022-04-25T20:31:45Z</time>
      </trkpt>
      <trkpt lat="49.62593" lon="-1.54762">
        <ele>126</ele>
        <time>2022-04-25T20:32:05Z</time>
      </trkpt>
      <trkpt lat="49.62549" lon="-1.54715">
        <ele>127</ele>
        <time>2022-04-25T20:32:14Z</time>
      </trkpt>
      <trkpt lat="49.62427" lon="-1.54623">
        <ele>128</ele>
        <time>2022-04-25T20:32:38Z</time>
      </trkpt>
      <trkpt lat="49.62377" lon="-1.54574">
        <ele>130</ele>
        <time>2022-04-25T20:32:49Z</time>
      </trkpt>
      <trkpt lat="49.62331" lon="-1.54524">
        <ele>131</ele>
        <time>2022-04-25T20:32:59Z</time>
      </trkpt>
      <trkpt lat="49.62241" lon="-1.54434">
        <ele>133</ele>
        <time>2022-04-25T20:33:18Z</time>
      </trkpt>
      <trkpt lat="49.62227" lon="-1.54416">
        <ele>134</ele>
        <time>2022-04-25T20:33:21Z</time>
      </trkpt>
      <trkpt lat="49.62203" lon="-1.5438">
        <ele>134</ele>
        <time>2022-04-25T20:33:27Z</time>
      </trkpt>
      <trkpt lat="49.61917" lon="-1.5377">
        <ele>137</ele>
        <time>2022-04-25T20:34:54Z</time>
      </trkpt>
      <trkpt lat="49.61886" lon="-1.53685">
        <ele>135</ele>
        <time>2022-04-25T20:35:05Z</time>
      </trkpt>
      <trkpt lat="49.61852" lon="-1.53574">
        <ele>134</ele>
        <time>2022-04-25T20:35:19Z</time>
      </trkpt>
      <trkpt lat="49.61813" lon="-1.53404">
        <ele>136</ele>
        <time>2022-04-25T20:35:40Z</time>
      </trkpt>
      <trkpt lat="49.6176" lon="-1.53151">
        <ele>134</ele>
        <time>2022-04-25T20:36:11Z</time>
      </trkpt>
      <trkpt lat="49.61682" lon="-1.52718">
        <ele>126</ele>
        <time>2022-04-25T20:37:03Z</time>
      </trkpt>
      <trkpt lat="49.61643" lon="-1.52375">
        <ele>123</ele>
        <time>2022-04-25T20:37:43Z</time>
      </trkpt>
      <trkpt lat="49.61643" lon="-1.52336">
        <ele>123</ele>
        <time>2022-04-25T20:37:47Z</time>
      </trkpt>
      <trkpt lat="49.61646" lon="-1.52249">
        <ele>122</ele>
        <time>2022-04-25T20:37:57Z</time>
      </trkpt>
      <trkpt lat="49.61644" lon="-1.5222">
        <ele>122</ele>
        <time>2022-04-25T20:38:01Z</time>
      </trkpt>
      <trkpt lat="49.61636" lon="-1.52155">
        <ele>122</ele>
        <time>2022-04-25T20:38:08Z</time>
      </trkpt>
      <trkpt lat="49.6163" lon="-1.52129">
        <ele>122</ele>
        <time>2022-04-25T20:38:12Z</time>
      </trkpt>
      <trkpt lat="49.61617" lon="-1.52105">
        <ele>122</ele>
        <time>2022-04-25T20:38:15Z</time>
      </trkpt>
      <trkpt lat="49.61596" lon="-1.52073">
        <ele>122</ele>
        <time>2022-04-25T20:38:20Z</time>
      </trkpt>
      <trkpt lat="49.61582" lon="-1.52044">
        <ele>122</ele>
        <time>2022-04-25T20:38:25Z</time>
      </trkpt>
      <trkpt lat="49.61463" lon="-1.51665">
        <ele>118</ele>
        <time>2022-04-25T20:39:13Z</time>
      </trkpt>
      <trkpt lat="49.61423" lon="-1.51523">
        <ele>120</ele>
        <time>2022-04-25T20:39:31Z</time>
      </trkpt>
      <trkpt lat="49.61395" lon="-1.51451">
        <ele>120</ele>
        <time>2022-04-25T20:39:41Z</time>
      </trkpt>
      <trkpt lat="49.61597" lon="-1.51175">
        <ele>111</ele>
        <time>2022-04-25T20:40:29Z</time>
      </trkpt>
      <trkpt lat="49.61629" lon="-1.51127">
        <ele>109</ele>
        <time>2022-04-25T20:40:37Z</time>
      </trkpt>
      <trkpt lat="49.61646" lon="-1.51108">
        <ele>109</ele>
        <time>2022-04-25T20:40:40Z</time>
      </trkpt>
      <trkpt lat="49.61672" lon="-1.51087">
        <ele>108</ele>
        <time>2022-04-25T20:40:46Z</time>
      </trkpt>
      <trkpt lat="49.61691" lon="-1.51066">
        <ele>107</ele>
        <time>2022-04-25T20:40:50Z</time>
      </trkpt>
      <trkpt lat="49.61724" lon="-1.51003">
        <ele>107</ele>
        <time>2022-04-25T20:40:59Z</time>
      </trkpt>
      <trkpt lat="49.6174" lon="-1.50954">
        <ele>107</ele>
        <time>2022-04-25T20:41:05Z</time>
      </trkpt>
      <trkpt lat="49.61758" lon="-1.50888">
        <ele>107</ele>
        <time>2022-04-25T20:41:14Z</time>
      </trkpt>
      <trkpt lat="49.61771" lon="-1.50845">
        <ele>108</ele>
        <time>2022-04-25T20:41:19Z</time>
      </trkpt>
      <trkpt lat="49.61816" lon="-1.50726">
        <ele>112</ele>
        <time>2022-04-25T20:41:35Z</time>
      </trkpt>
      <trkpt lat="49.61859" lon="-1.50606">
        <ele>114</ele>
        <time>2022-04-25T20:41:51Z</time>
      </trkpt>
      <trkpt lat="49.61914" lon="-1.50546">
        <ele>112</ele>
        <time>2022-04-25T20:42:03Z</time>
      </trkpt>
      <trkpt lat="49.61973" lon="-1.50486">
        <ele>110</ele>
        <time>2022-04-25T20:42:15Z</time>
      </trkpt>
      <trkpt lat="49.61959" lon="-1.50462">
        <ele>109</ele>
        <time>2022-04-25T20:42:19Z</time>
      </trkpt>
      <trkpt lat="49.61933" lon="-1.50402">
        <ele>107</ele>
        <time>2022-04-25T20:42:27Z</time>
      </trkpt>
      <trkpt lat="49.61909" lon="-1.5034">
        <ele>105</ele>
        <time>2022-04-25T20:42:36Z</time>
      </trkpt>
      <trkpt lat="49.61892" lon="-1.50253">
        <ele>102</ele>
        <time>2022-04-25T20:42:46Z</time>
      </trkpt>
      <trkpt lat="49.61883" lon="-1.50231">
        <ele>102</ele>
        <time>2022-04-25T20:42:49Z</time>
      </trkpt>
      <trkpt lat="49.61854" lon="-1.50189">
        <ele>104</ele>
        <time>2022-04-25T20:42:56Z</time>
      </trkpt>
      <trkpt lat="49.61801" lon="-1.50104">
        <ele>104</ele>
        <time>2022-04-25T20:43:10Z</time>
      </trkpt>
      <trkpt lat="49.61689" lon="-1.4989">
        <ele>105</ele>
        <time>2022-04-25T20:43:42Z</time>
      </trkpt>
      <trkpt lat="49.61681" lon="-1.49879">
        <ele>105</ele>
        <time>2022-04-25T20:43:44Z</time>
      </trkpt>
      <trkpt lat="49.61657" lon="-1.49828">
        <ele>104</ele>
        <time>2022-04-25T20:43:51Z</time>
      </trkpt>
      <trkpt lat="49.6164" lon="-1.49778">
        <ele>102</ele>
        <time>2022-04-25T20:43:57Z</time>
      </trkpt>
      <trkpt lat="49.61623" lon="-1.49699">
        <ele>98</ele>
        <time>2022-04-25T20:44:07Z</time>
      </trkpt>
      <trkpt lat="49.61612" lon="-1.49637">
        <ele>93</ele>
        <time>2022-04-25T20:44:14Z</time>
      </trkpt>
      <trkpt lat="49.6161" lon="-1.49586">
        <ele>91</ele>
        <time>2022-04-25T20:44:20Z</time>
      </trkpt>
      <trkpt lat="49.61612" lon="-1.49554">
        <ele>90</ele>
        <time>2022-04-25T20:44:24Z</time>
      </trkpt>
      <trkpt lat="49.61615" lon="-1.4953">
        <ele>89</ele>
        <time>2022-04-25T20:44:27Z</time>
      </trkpt>
      <trkpt lat="49.61671" lon="-1.49248">
        <ele>79</ele>
        <time>2022-04-25T20:45:01Z</time>
      </trkpt>
      <trkpt lat="49.61676" lon="-1.49213">
        <ele>78</ele>
        <time>2022-04-25T20:45:05Z</time>
      </trkpt>
      <trkpt lat="49.61677" lon="-1.49194">
        <ele>77</ele>
        <time>2022-04-25T20:45:07Z</time>
      </trkpt>
      <trkpt lat="49.61675" lon="-1.49175">
        <ele>76</ele>
        <time>2022-04-25T20:45:09Z</time>
      </trkpt>
      <trkpt lat="49.61665" lon="-1.49145">
        <ele>75</ele>
        <time>2022-04-25T20:45:13Z</time>
      </trkpt>
      <trkpt lat="49.6166" lon="-1.49118">
        <ele>76</ele>
        <time>2022-04-25T20:45:16Z</time>
      </trkpt>
      <trkpt lat="49.61654" lon="-1.49075">
        <ele>76</ele>
        <time>2022-04-25T20:45:21Z</time>
      </trkpt>
      <trkpt lat="49.61652" lon="-1.49064">
        <ele>76</ele>
        <time>2022-04-25T20:45:23Z</time>
      </trkpt>
      <trkpt lat="49.61649" lon="-1.49053">
        <ele>76</ele>
        <time>2022-04-25T20:45:24Z</time>
      </trkpt>
      <trkpt lat="49.61641" lon="-1.49038">
        <ele>76</ele>
        <time>2022-04-25T20:45:26Z</time>
      </trkpt>
      <trkpt lat="49.61533" lon="-1.48928">
        <ele>75</ele>
        <time>2022-04-25T20:45:49Z</time>
      </trkpt>
      <trkpt lat="49.61526" lon="-1.48917">
        <ele>75</ele>
        <time>2022-04-25T20:45:51Z</time>
      </trkpt>
      <trkpt lat="49.61524" lon="-1.48902">
        <ele>76</ele>
        <time>2022-04-25T20:45:53Z</time>
      </trkpt>
      <trkpt lat="49.61531" lon="-1.48817">
        <ele>77</ele>
        <time>2022-04-25T20:46:03Z</time>
      </trkpt>
      <trkpt lat="49.61543" lon="-1.48749">
        <ele>77</ele>
        <time>2022-04-25T20:46:11Z</time>
      </trkpt>
      <trkpt lat="49.61553" lon="-1.48706">
        <ele>78</ele>
        <time>2022-04-25T20:46:16Z</time>
      </trkpt>
      <trkpt lat="49.6156" lon="-1.48666">
        <ele>78</ele>
        <time>2022-04-25T20:46:21Z</time>
      </trkpt>
      <trkpt lat="49.61565" lon="-1.48607">
        <ele>77</ele>
        <time>2022-04-25T20:46:28Z</time>
      </trkpt>
      <trkpt lat="49.61562" lon="-1.48569">
        <ele>78</ele>
        <time>2022-04-25T20:46:32Z</time>
      </trkpt>
      <trkpt lat="49.61554" lon="-1.4851">
        <ele>79</ele>
        <time>2022-04-25T20:46:39Z</time>
      </trkpt>
      <trkpt lat="49.61545" lon="-1.4841">
        <ele>77</ele>
        <time>2022-04-25T20:46:51Z</time>
      </trkpt>
      <trkpt lat="49.61541" lon="-1.48343">
        <ele>76</ele>
        <time>2022-04-25T20:46:59Z</time>
      </trkpt>
      <trkpt lat="49.61543" lon="-1.48302">
        <ele>75</ele>
        <time>2022-04-25T20:47:03Z</time>
      </trkpt>
      <trkpt lat="49.61549" lon="-1.48276">
        <ele>74</ele>
        <time>2022-04-25T20:47:07Z</time>
      </trkpt>
      <trkpt lat="49.61564" lon="-1.48265">
        <ele>73</ele>
        <time>2022-04-25T20:47:10Z</time>
      </trkpt>
      <trkpt lat="49.6159" lon="-1.48269">
        <ele>72</ele>
        <time>2022-04-25T20:47:14Z</time>
      </trkpt>
      <trkpt lat="49.616" lon="-1.48265">
        <ele>71</ele>
        <time>2022-04-25T20:47:16Z</time>
      </trkpt>
      <trkpt lat="49.61612" lon="-1.48253">
        <ele>71</ele>
        <time>2022-04-25T20:47:19Z</time>
      </trkpt>
      <trkpt lat="49.61621" lon="-1.48227">
        <ele>71</ele>
        <time>2022-04-25T20:47:22Z</time>
      </trkpt>
      <trkpt lat="49.61627" lon="-1.482">
        <ele>71</ele>
        <time>2022-04-25T20:47:25Z</time>
      </trkpt>
      <trkpt lat="49.61555" lon="-1.48044">
        <ele>79</ele>
        <time>2022-04-25T20:47:47Z</time>
      </trkpt>
      <trkpt lat="49.61562" lon="-1.48025">
        <ele>80</ele>
        <time>2022-04-25T20:47:50Z</time>
      </trkpt>
      <trkpt lat="49.61589" lon="-1.47883">
        <ele>82</ele>
        <time>2022-04-25T20:48:07Z</time>
      </trkpt>
      <trkpt lat="49.61604" lon="-1.47789">
        <ele>82</ele>
        <time>2022-04-25T20:48:18Z</time>
      </trkpt>
      <trkpt lat="49.61613" lon="-1.4772">
        <ele>83</ele>
        <time>2022-04-25T20:48:26Z</time>
      </trkpt>
      <trkpt lat="49.61623" lon="-1.47662">
        <ele>82</ele>
        <time>2022-04-25T20:48:33Z</time>
      </trkpt>
      <trkpt lat="49.61637" lon="-1.47624">
        <ele>80</ele>
        <time>2022-04-25T20:48:38Z</time>
      </trkpt>
      <trkpt lat="49.6166" lon="-1.47575">
        <ele>78</ele>
        <time>2022-04-25T20:48:45Z</time>
      </trkpt>
      <trkpt lat="49.61669" lon="-1.47547">
        <ele>77</ele>
        <time>2022-04-25T20:48:49Z</time>
      </trkpt>
      <trkpt lat="49.61676" lon="-1.47513">
        <ele>77</ele>
        <time>2022-04-25T20:48:53Z</time>
      </trkpt>
      <trkpt lat="49.61682" lon="-1.47461">
        <ele>78</ele>
        <time>2022-04-25T20:48:59Z</time>
      </trkpt>
      <trkpt lat="49.61697" lon="-1.47394">
        <ele>77</ele>
        <time>2022-04-25T20:49:07Z</time>
      </trkpt>
      <trkpt lat="49.61721" lon="-1.47301">
        <ele>75</ele>
        <time>2022-04-25T20:49:19Z</time>
      </trkpt>
      <trkpt lat="49.6174" lon="-1.47244">
        <ele>73</ele>
        <time>2022-04-25T20:49:26Z</time>
      </trkpt>
      <trkpt lat="49.61758" lon="-1.47211">
        <ele>73</ele>
        <time>2022-04-25T20:49:31Z</time>
      </trkpt>
      <trkpt lat="49.61777" lon="-1.47197">
        <ele>72</ele>
        <time>2022-04-25T20:49:35Z</time>
      </trkpt>
      <trkpt lat="49.61828" lon="-1.47178">
        <ele>71</ele>
        <time>2022-04-25T20:49:44Z</time>
      </trkpt>
      <trkpt lat="49.61856" lon="-1.47163">
        <ele>70</ele>
        <time>2022-04-25T20:49:49Z</time>
      </trkpt>
      <trkpt lat="49.61904" lon="-1.47123">
        <ele>70</ele>
        <time>2022-04-25T20:49:59Z</time>
      </trkpt>
      <trkpt lat="49.61918" lon="-1.47101">
        <ele>70</ele>
        <time>2022-04-25T20:50:03Z</time>
      </trkpt>
      <trkpt lat="49.6194" lon="-1.47042">
        <ele>71</ele>
        <time>2022-04-25T20:50:10Z</time>
      </trkpt>
      <trkpt lat="49.61966" lon="-1.46934">
        <ele>71</ele>
        <time>2022-04-25T20:50:24Z</time>
      </trkpt>
      <trkpt lat="49.61973" lon="-1.46883">
        <ele>71</ele>
        <time>2022-04-25T20:50:30Z</time>
      </trkpt>
      <trkpt lat="49.6198" lon="-1.46853">
        <ele>70</ele>
        <time>2022-04-25T20:50:33Z</time>
      </trkpt>
      <trkpt lat="49.61997" lon="-1.468">
        <ele>69</ele>
        <time>2022-04-25T20:50:40Z</time>
      </trkpt>
      <trkpt lat="49.62009" lon="-1.46771">
        <ele>70</ele>
        <time>2022-04-25T20:50:44Z</time>
      </trkpt>
      <trkpt lat="49.62066" lon="-1.46689">
        <ele>70</ele>
        <time>2022-04-25T20:50:58Z</time>
      </trkpt>
      <trkpt lat="49.62074" lon="-1.46662">
        <ele>70</ele>
        <time>2022-04-25T20:51:01Z</time>
      </trkpt>
      <trkpt lat="49.62079" lon="-1.46629">
        <ele>70</ele>
        <time>2022-04-25T20:51:05Z</time>
      </trkpt>
      <trkpt lat="49.6208" lon="-1.46594">
        <ele>70</ele>
        <time>2022-04-25T20:51:09Z</time>
      </trkpt>
      <trkpt lat="49.62076" lon="-1.46525">
        <ele>71</ele>
        <time>2022-04-25T20:51:17Z</time>
      </trkpt>
      <trkpt lat="49.62069" lon="-1.4649">
        <ele>71</ele>
        <time>2022-04-25T20:51:22Z</time>
      </trkpt>
      <trkpt lat="49.62065" lon="-1.46472">
        <ele>71</ele>
        <time>2022-04-25T20:51:24Z</time>
      </trkpt>
      <trkpt lat="49.62039" lon="-1.46396">
        <ele>73</ele>
        <time>2022-04-25T20:51:34Z</time>
      </trkpt>
      <trkpt lat="49.62015" lon="-1.46341">
        <ele>73</ele>
        <time>2022-04-25T20:51:41Z</time>
      </trkpt>
      <trkpt lat="49.62009" lon="-1.46319">
        <ele>73</ele>
        <time>2022-04-25T20:51:44Z</time>
      </trkpt>
      <trkpt lat="49.62005" lon="-1.46296">
        <ele>73</ele>
        <time>2022-04-25T20:51:47Z</time>
      </trkpt>
      <trkpt lat="49.62" lon="-1.46216">
        <ele>73</ele>
        <time>2022-04-25T20:51:56Z</time>
      </trkpt>
      <trkpt lat="49.61992" lon="-1.46018">
        <ele>75</ele>
        <time>2022-04-25T20:52:19Z</time>
      </trkpt>
      <trkpt lat="49.61988" lon="-1.45986">
        <ele>74</ele>
        <time>2022-04-25T20:52:23Z</time>
      </trkpt>
      <trkpt lat="49.61976" lon="-1.45944">
        <ele>72</ele>
        <time>2022-04-25T20:52:28Z</time>
      </trkpt>
      <trkpt lat="49.61952" lon="-1.45886">
        <ele>70</ele>
        <time>2022-04-25T20:52:36Z</time>
      </trkpt>
      <trkpt lat="49.61923" lon="-1.45824">
        <ele>68</ele>
        <time>2022-04-25T20:52:45Z</time>
      </trkpt>
      <trkpt lat="49.61919" lon="-1.45807">
        <ele>67</ele>
        <time>2022-04-25T20:52:47Z</time>
      </trkpt>
      <trkpt lat="49.61917" lon="-1.45748">
        <ele>65</ele>
        <time>2022-04-25T20:52:54Z</time>
      </trkpt>
      <trkpt lat="49.6189" lon="-1.45644">
        <ele>65</ele>
        <time>2022-04-25T20:53:07Z</time>
      </trkpt>
      <trkpt lat="49.61883" lon="-1.45587">
        <ele>64</ele>
        <time>2022-04-25T20:53:13Z</time>
      </trkpt>
      <trkpt lat="49.61862" lon="-1.4554">
        <ele>66</ele>
        <time>2022-04-25T20:53:20Z</time>
      </trkpt>
      <trkpt lat="49.61854" lon="-1.45507">
        <ele>66</ele>
        <time>2022-04-25T20:53:24Z</time>
      </trkpt>
      <trkpt lat="49.61846" lon="-1.45443">
        <ele>66</ele>
        <time>2022-04-25T20:53:31Z</time>
      </trkpt>
      <trkpt lat="49.6183" lon="-1.45341">
        <ele>67</ele>
        <time>2022-04-25T20:53:44Z</time>
      </trkpt>
      <trkpt lat="49.61819" lon="-1.45263">
        <ele>66</ele>
        <time>2022-04-25T20:53:53Z</time>
      </trkpt>
      <trkpt lat="49.61801" lon="-1.45213">
        <ele>67</ele>
        <time>2022-04-25T20:53:59Z</time>
      </trkpt>
      <trkpt lat="49.61786" lon="-1.45188">
        <ele>67</ele>
        <time>2022-04-25T20:54:03Z</time>
      </trkpt>
      <trkpt lat="49.61783" lon="-1.45175">
        <ele>66</ele>
        <time>2022-04-25T20:54:05Z</time>
      </trkpt>
      <trkpt lat="49.61749" lon="-1.45177">
        <ele>70</ele>
        <time>2022-04-25T20:54:11Z</time>
      </trkpt>
      <trkpt lat="49.6175" lon="-1.45151">
        <ele>69</ele>
        <time>2022-04-25T20:54:14Z</time>
      </trkpt>
      <trkpt lat="49.61756" lon="-1.45124">
        <ele>68</ele>
        <time>2022-04-25T20:54:17Z</time>
      </trkpt>
      <trkpt lat="49.61767" lon="-1.45104">
        <ele>68</ele>
        <time>2022-04-25T20:54:20Z</time>
      </trkpt>
      <trkpt lat="49.6178" lon="-1.4509">
        <ele>67</ele>
        <time>2022-04-25T20:54:23Z</time>
      </trkpt>
      <trkpt lat="49.61788" lon="-1.45077">
        <ele>67</ele>
        <time>2022-04-25T20:54:25Z</time>
      </trkpt>
      <trkpt lat="49.61793" lon="-1.45067">
        <ele>67</ele>
        <time>2022-04-25T20:54:27Z</time>
      </trkpt>
      <trkpt lat="49.61797" lon="-1.45053">
        <ele>68</ele>
        <time>2022-04-25T20:54:28Z</time>
      </trkpt>
      <trkpt lat="49.61797" lon="-1.45038">
        <ele>68</ele>
        <time>2022-04-25T20:54:30Z</time>
      </trkpt>
      <trkpt lat="49.61796" lon="-1.45022">
        <ele>68</ele>
        <time>2022-04-25T20:54:32Z</time>
      </trkpt>
      <trkpt lat="49.61775" lon="-1.4495">
        <ele>67</ele>
        <time>2022-04-25T20:54:41Z</time>
      </trkpt>
      <trkpt lat="49.61761" lon="-1.44881">
        <ele>65</ele>
        <time>2022-04-25T20:54:49Z</time>
      </trkpt>
      <trkpt lat="49.61754" lon="-1.44859">
        <ele>64</ele>
        <time>2022-04-25T20:54:52Z</time>
      </trkpt>
      <trkpt lat="49.61745" lon="-1.44836">
        <ele>63</ele>
        <time>2022-04-25T20:54:55Z</time>
      </trkpt>
      <trkpt lat="49.61652" lon="-1.44666">
        <ele>57</ele>
        <time>2022-04-25T20:55:21Z</time>
      </trkpt>
      <trkpt lat="49.61629" lon="-1.44618">
        <ele>58</ele>
        <time>2022-04-25T20:55:28Z</time>
      </trkpt>
      <trkpt lat="49.61583" lon="-1.44488">
        <ele>57</ele>
        <time>2022-04-25T20:55:45Z</time>
      </trkpt>
      <trkpt lat="49.61581" lon="-1.4447">
        <ele>59</ele>
        <time>2022-04-25T20:55:47Z</time>
      </trkpt>
      <trkpt lat="49.61581" lon="-1.44462">
        <ele>59</ele>
        <time>2022-04-25T20:55:48Z</time>
      </trkpt>
      <trkpt lat="49.61599" lon="-1.4437">
        <ele>64</ele>
        <time>2022-04-25T20:55:59Z</time>
      </trkpt>
      <trkpt lat="49.61602" lon="-1.44334">
        <ele>66</ele>
        <time>2022-04-25T20:56:03Z</time>
      </trkpt>
      <trkpt lat="49.61607" lon="-1.44181">
        <ele>70</ele>
        <time>2022-04-25T20:56:21Z</time>
      </trkpt>
      <trkpt lat="49.61608" lon="-1.44134">
        <ele>70</ele>
        <time>2022-04-25T20:56:26Z</time>
      </trkpt>
      <trkpt lat="49.61605" lon="-1.44035">
        <ele>70</ele>
        <time>2022-04-25T20:56:38Z</time>
      </trkpt>
      <trkpt lat="49.61594" lon="-1.43938">
        <ele>70</ele>
        <time>2022-04-25T20:56:49Z</time>
      </trkpt>
      <trkpt lat="49.61576" lon="-1.43835">
        <ele>69</ele>
        <time>2022-04-25T20:57:01Z</time>
      </trkpt>
      <trkpt lat="49.61559" lon="-1.43764">
        <ele>71</ele>
        <time>2022-04-25T20:57:10Z</time>
      </trkpt>
      <trkpt lat="49.61554" lon="-1.43733">
        <ele>70</ele>
        <time>2022-04-25T20:57:14Z</time>
      </trkpt>
      <trkpt lat="49.61544" lon="-1.43704">
        <ele>71</ele>
        <time>2022-04-25T20:57:18Z</time>
      </trkpt>
      <trkpt lat="49.61515" lon="-1.4364">
        <ele>71</ele>
        <time>2022-04-25T20:57:27Z</time>
      </trkpt>
      <trkpt lat="49.61475" lon="-1.43578">
        <ele>66</ele>
        <time>2022-04-25T20:57:37Z</time>
      </trkpt>
      <trkpt lat="49.6147" lon="-1.43562">
        <ele>64</ele>
        <time>2022-04-25T20:57:39Z</time>
      </trkpt>
      <trkpt lat="49.61461" lon="-1.43524">
        <ele>59</ele>
        <time>2022-04-25T20:57:43Z</time>
      </trkpt>
      <trkpt lat="49.61451" lon="-1.43497">
        <ele>56</ele>
        <time>2022-04-25T20:57:47Z</time>
      </trkpt>
      <trkpt lat="49.61438" lon="-1.43472">
        <ele>56</ele>
        <time>2022-04-25T20:57:51Z</time>
      </trkpt>
      <trkpt lat="49.61426" lon="-1.43455">
        <ele>56</ele>
        <time>2022-04-25T20:57:54Z</time>
      </trkpt>
      <trkpt lat="49.61415" lon="-1.43426">
        <ele>55</ele>
        <time>2022-04-25T20:57:57Z</time>
      </trkpt>
      <trkpt lat="49.61414" lon="-1.43414">
        <ele>54</ele>
        <time>2022-04-25T20:57:59Z</time>
      </trkpt>
      <trkpt lat="49.61417" lon="-1.43397">
        <ele>54</ele>
        <time>2022-04-25T20:58:01Z</time>
      </trkpt>
      <trkpt lat="49.61462" lon="-1.43308">
        <ele>56</ele>
        <time>2022-04-25T20:58:14Z</time>
      </trkpt>
      <trkpt lat="49.61468" lon="-1.43297">
        <ele>57</ele>
        <time>2022-04-25T20:58:16Z</time>
      </trkpt>
      <trkpt lat="49.6147" lon="-1.43288">
        <ele>58</ele>
        <time>2022-04-25T20:58:17Z</time>
      </trkpt>
      <trkpt lat="49.6147" lon="-1.43272">
        <ele>59</ele>
        <time>2022-04-25T20:58:18Z</time>
      </trkpt>
      <trkpt lat="49.61461" lon="-1.43232">
        <ele>59</ele>
        <time>2022-04-25T20:58:23Z</time>
      </trkpt>
      <trkpt lat="49.61458" lon="-1.43212">
        <ele>59</ele>
        <time>2022-04-25T20:58:26Z</time>
      </trkpt>
      <trkpt lat="49.61458" lon="-1.4319">
        <ele>59</ele>
        <time>2022-04-25T20:58:28Z</time>
      </trkpt>
      <trkpt lat="49.61472" lon="-1.43077">
        <ele>59</ele>
        <time>2022-04-25T20:58:41Z</time>
      </trkpt>
      <trkpt lat="49.61469" lon="-1.43045">
        <ele>57</ele>
        <time>2022-04-25T20:58:45Z</time>
      </trkpt>
      <trkpt lat="49.61461" lon="-1.4298">
        <ele>55</ele>
        <time>2022-04-25T20:58:53Z</time>
      </trkpt>
      <trkpt lat="49.61456" lon="-1.42928">
        <ele>54</ele>
        <time>2022-04-25T20:58:59Z</time>
      </trkpt>
      <trkpt lat="49.61458" lon="-1.42852">
        <ele>55</ele>
        <time>2022-04-25T20:59:08Z</time>
      </trkpt>
      <trkpt lat="49.61457" lon="-1.42807">
        <ele>55</ele>
        <time>2022-04-25T20:59:13Z</time>
      </trkpt>
      <trkpt lat="49.61453" lon="-1.42762">
        <ele>54</ele>
        <time>2022-04-25T20:59:18Z</time>
      </trkpt>
      <trkpt lat="49.61447" lon="-1.42727">
        <ele>54</ele>
        <time>2022-04-25T20:59:22Z</time>
      </trkpt>
      <trkpt lat="49.61444" lon="-1.42699">
        <ele>55</ele>
        <time>2022-04-25T20:59:26Z</time>
      </trkpt>
      <trkpt lat="49.61444" lon="-1.4268">
        <ele>55</ele>
        <time>2022-04-25T20:59:28Z</time>
      </trkpt>
      <trkpt lat="49.61468" lon="-1.42542">
        <ele>60</ele>
        <time>2022-04-25T20:59:44Z</time>
      </trkpt>
      <trkpt lat="49.61481" lon="-1.42445">
        <ele>63</ele>
        <time>2022-04-25T20:59:56Z</time>
      </trkpt>
      <trkpt lat="49.61485" lon="-1.42372">
        <ele>65</ele>
        <time>2022-04-25T21:00:04Z</time>
      </trkpt>
      <trkpt lat="49.61472" lon="-1.42236">
        <ele>67</ele>
        <time>2022-04-25T21:00:20Z</time>
      </trkpt>
      <trkpt lat="49.61463" lon="-1.42161">
        <ele>67</ele>
        <time>2022-04-25T21:00:29Z</time>
      </trkpt>
      <trkpt lat="49.61455" lon="-1.42128">
        <ele>67</ele>
        <time>2022-04-25T21:00:33Z</time>
      </trkpt>
      <trkpt lat="49.61447" lon="-1.4209">
        <ele>66</ele>
        <time>2022-04-25T21:00:37Z</time>
      </trkpt>
      <trkpt lat="49.61438" lon="-1.41971">
        <ele>66</ele>
        <time>2022-04-25T21:00:51Z</time>
      </trkpt>
      <trkpt lat="49.61421" lon="-1.41876">
        <ele>68</ele>
        <time>2022-04-25T21:01:03Z</time>
      </trkpt>
      <trkpt lat="49.61405" lon="-1.41803">
        <ele>68</ele>
        <time>2022-04-25T21:01:11Z</time>
      </trkpt>
      <trkpt lat="49.61372" lon="-1.41717">
        <ele>67</ele>
        <time>2022-04-25T21:01:23Z</time>
      </trkpt>
      <trkpt lat="49.61364" lon="-1.41684">
        <ele>67</ele>
        <time>2022-04-25T21:01:27Z</time>
      </trkpt>
      <trkpt lat="49.6134" lon="-1.41554">
        <ele>64</ele>
        <time>2022-04-25T21:01:43Z</time>
      </trkpt>
      <trkpt lat="49.6133" lon="-1.41511">
        <ele>62</ele>
        <time>2022-04-25T21:01:48Z</time>
      </trkpt>
      <trkpt lat="49.61318" lon="-1.41473">
        <ele>60</ele>
        <time>2022-04-25T21:01:53Z</time>
      </trkpt>
      <trkpt lat="49.61289" lon="-1.41404">
        <ele>57</ele>
        <time>2022-04-25T21:02:02Z</time>
      </trkpt>
      <trkpt lat="49.61284" lon="-1.41386">
        <ele>56</ele>
        <time>2022-04-25T21:02:05Z</time>
      </trkpt>
      <trkpt lat="49.61283" lon="-1.41367">
        <ele>56</ele>
        <time>2022-04-25T21:02:07Z</time>
      </trkpt>
      <trkpt lat="49.6129" lon="-1.41288">
        <ele>56</ele>
        <time>2022-04-25T21:02:16Z</time>
      </trkpt>
      <trkpt lat="49.61297" lon="-1.41233">
        <ele>56</ele>
        <time>2022-04-25T21:02:22Z</time>
      </trkpt>
      <trkpt lat="49.61309" lon="-1.4108">
        <ele>52</ele>
        <time>2022-04-25T21:02:40Z</time>
      </trkpt>
      <trkpt lat="49.61325" lon="-1.40912">
        <ele>48</ele>
        <time>2022-04-25T21:03:00Z</time>
      </trkpt>
      <trkpt lat="49.6133" lon="-1.40883">
        <ele>47</ele>
        <time>2022-04-25T21:03:03Z</time>
      </trkpt>
      <trkpt lat="49.61339" lon="-1.40856">
        <ele>47</ele>
        <time>2022-04-25T21:03:07Z</time>
      </trkpt>
      <trkpt lat="49.6137" lon="-1.40804">
        <ele>48</ele>
        <time>2022-04-25T21:03:15Z</time>
      </trkpt>
      <trkpt lat="49.61417" lon="-1.40634">
        <ele>55</ele>
        <time>2022-04-25T21:03:36Z</time>
      </trkpt>
      <trkpt lat="49.6142" lon="-1.40618">
        <ele>55</ele>
        <time>2022-04-25T21:03:38Z</time>
      </trkpt>
      <trkpt lat="49.61421" lon="-1.40605">
        <ele>55</ele>
        <time>2022-04-25T21:03:40Z</time>
      </trkpt>
      <trkpt lat="49.61416" lon="-1.40575">
        <ele>55</ele>
        <time>2022-04-25T21:03:43Z</time>
      </trkpt>
      <trkpt lat="49.61417" lon="-1.40559">
        <ele>55</ele>
        <time>2022-04-25T21:03:45Z</time>
      </trkpt>
      <trkpt lat="49.61426" lon="-1.40535">
        <ele>55</ele>
        <time>2022-04-25T21:03:48Z</time>
      </trkpt>
      <trkpt lat="49.61435" lon="-1.40517">
        <ele>55</ele>
        <time>2022-04-25T21:03:51Z</time>
      </trkpt>
      <trkpt lat="49.61461" lon="-1.40496">
        <ele>56</ele>
        <time>2022-04-25T21:03:56Z</time>
      </trkpt>
      <trkpt lat="49.6147" lon="-1.4048">
        <ele>56</ele>
        <time>2022-04-25T21:03:58Z</time>
      </trkpt>
      <trkpt lat="49.61496" lon="-1.40426">
        <ele>55</ele>
        <time>2022-04-25T21:04:06Z</time>
      </trkpt>
      <trkpt lat="49.61507" lon="-1.4039">
        <ele>54</ele>
        <time>2022-04-25T21:04:11Z</time>
      </trkpt>
      <trkpt lat="49.6151" lon="-1.40354">
        <ele>52</ele>
        <time>2022-04-25T21:04:15Z</time>
      </trkpt>
      <trkpt lat="49.6151" lon="-1.40318">
        <ele>50</ele>
        <time>2022-04-25T21:04:19Z</time>
      </trkpt>
      <trkpt lat="49.61515" lon="-1.40278">
        <ele>49</ele>
        <time>2022-04-25T21:04:24Z</time>
      </trkpt>
      <trkpt lat="49.61528" lon="-1.40229">
        <ele>49</ele>
        <time>2022-04-25T21:04:30Z</time>
      </trkpt>
      <trkpt lat="49.6156" lon="-1.40152">
        <ele>51</ele>
        <time>2022-04-25T21:04:40Z</time>
      </trkpt>
      <trkpt lat="49.61588" lon="-1.40032">
        <ele>51</ele>
        <time>2022-04-25T21:04:55Z</time>
      </trkpt>
      <trkpt lat="49.61611" lon="-1.39919">
        <ele>52</ele>
        <time>2022-04-25T21:05:09Z</time>
      </trkpt>
      <trkpt lat="49.61617" lon="-1.39868">
        <ele>52</ele>
        <time>2022-04-25T21:05:15Z</time>
      </trkpt>
      <trkpt lat="49.61618" lon="-1.39764">
        <ele>50</ele>
        <time>2022-04-25T21:05:27Z</time>
      </trkpt>
      <trkpt lat="49.61613" lon="-1.39683">
        <ele>47</ele>
        <time>2022-04-25T21:05:36Z</time>
      </trkpt>
      <trkpt lat="49.61611" lon="-1.3955">
        <ele>46</ele>
        <time>2022-04-25T21:05:52Z</time>
      </trkpt>
      <trkpt lat="49.61605" lon="-1.39447">
        <ele>43</ele>
        <time>2022-04-25T21:06:03Z</time>
      </trkpt>
      <trkpt lat="49.61604" lon="-1.39403">
        <ele>40</ele>
        <time>2022-04-25T21:06:09Z</time>
      </trkpt>
      <trkpt lat="49.61605" lon="-1.3936">
        <ele>39</ele>
        <time>2022-04-25T21:06:13Z</time>
      </trkpt>
      <trkpt lat="49.61608" lon="-1.39341">
        <ele>38</ele>
        <time>2022-04-25T21:06:16Z</time>
      </trkpt>
      <trkpt lat="49.61613" lon="-1.39324">
        <ele>38</ele>
        <time>2022-04-25T21:06:18Z</time>
      </trkpt>
      <trkpt lat="49.61631" lon="-1.39285">
        <ele>38</ele>
        <time>2022-04-25T21:06:23Z</time>
      </trkpt>
      <trkpt lat="49.61635" lon="-1.39269">
        <ele>38</ele>
        <time>2022-04-25T21:06:25Z</time>
      </trkpt>
      <trkpt lat="49.61632" lon="-1.39244">
        <ele>38</ele>
        <time>2022-04-25T21:06:28Z</time>
      </trkpt>
      <trkpt lat="49.61635" lon="-1.39199">
        <ele>38</ele>
        <time>2022-04-25T21:06:34Z</time>
      </trkpt>
      <trkpt lat="49.61645" lon="-1.39104">
        <ele>41</ele>
        <time>2022-04-25T21:06:45Z</time>
      </trkpt>
      <trkpt lat="49.61647" lon="-1.39023">
        <ele>42</ele>
        <time>2022-04-25T21:06:54Z</time>
      </trkpt>
      <trkpt lat="49.61647" lon="-1.38962">
        <ele>42</ele>
        <time>2022-04-25T21:07:01Z</time>
      </trkpt>
      <trkpt lat="49.61644" lon="-1.38916">
        <ele>41</ele>
        <time>2022-04-25T21:07:06Z</time>
      </trkpt>
      <trkpt lat="49.61639" lon="-1.3889">
        <ele>41</ele>
        <time>2022-04-25T21:07:09Z</time>
      </trkpt>
      <trkpt lat="49.61628" lon="-1.3886">
        <ele>40</ele>
        <time>2022-04-25T21:07:13Z</time>
      </trkpt>
      <trkpt lat="49.61618" lon="-1.38825">
        <ele>40</ele>
        <time>2022-04-25T21:07:18Z</time>
      </trkpt>
      <trkpt lat="49.61626" lon="-1.38712">
        <ele>40</ele>
        <time>2022-04-25T21:07:31Z</time>
      </trkpt>
      <trkpt lat="49.61642" lon="-1.3861">
        <ele>39</ele>
        <time>2022-04-25T21:07:43Z</time>
      </trkpt>
      <trkpt lat="49.61657" lon="-1.38548">
        <ele>39</ele>
        <time>2022-04-25T21:07:51Z</time>
      </trkpt>
      <trkpt lat="49.61671" lon="-1.38505">
        <ele>41</ele>
        <time>2022-04-25T21:07:56Z</time>
      </trkpt>
      <trkpt lat="49.61678" lon="-1.38467">
        <ele>41</ele>
        <time>2022-04-25T21:08:01Z</time>
      </trkpt>
      <trkpt lat="49.61688" lon="-1.38388">
        <ele>41</ele>
        <time>2022-04-25T21:08:10Z</time>
      </trkpt>
      <trkpt lat="49.617" lon="-1.38272">
        <ele>41</ele>
        <time>2022-04-25T21:08:24Z</time>
      </trkpt>
      <trkpt lat="49.617" lon="-1.3816">
        <ele>42</ele>
        <time>2022-04-25T21:08:36Z</time>
      </trkpt>
      <trkpt lat="49.61703" lon="-1.38092">
        <ele>43</ele>
        <time>2022-04-25T21:08:44Z</time>
      </trkpt>
      <trkpt lat="49.61713" lon="-1.38042">
        <ele>44</ele>
        <time>2022-04-25T21:08:50Z</time>
      </trkpt>
      <trkpt lat="49.61722" lon="-1.3797">
        <ele>45</ele>
        <time>2022-04-25T21:08:59Z</time>
      </trkpt>
      <trkpt lat="49.61725" lon="-1.37891">
        <ele>45</ele>
        <time>2022-04-25T21:09:08Z</time>
      </trkpt>
      <trkpt lat="49.61719" lon="-1.37759">
        <ele>43</ele>
        <time>2022-04-25T21:09:23Z</time>
      </trkpt>
      <trkpt lat="49.61714" lon="-1.37723">
        <ele>43</ele>
        <time>2022-04-25T21:09:27Z</time>
      </trkpt>
      <trkpt lat="49.61706" lon="-1.37689">
        <ele>42</ele>
        <time>2022-04-25T21:09:32Z</time>
      </trkpt>
      <trkpt lat="49.617" lon="-1.37649">
        <ele>42</ele>
        <time>2022-04-25T21:09:36Z</time>
      </trkpt>
      <trkpt lat="49.61695" lon="-1.37613">
        <ele>41</ele>
        <time>2022-04-25T21:09:41Z</time>
      </trkpt>
      <trkpt lat="49.61696" lon="-1.37581">
        <ele>40</ele>
        <time>2022-04-25T21:09:44Z</time>
      </trkpt>
      <trkpt lat="49.61704" lon="-1.37538">
        <ele>40</ele>
        <time>2022-04-25T21:09:49Z</time>
      </trkpt>
      <trkpt lat="49.61714" lon="-1.37496">
        <ele>40</ele>
        <time>2022-04-25T21:09:55Z</time>
      </trkpt>
      <trkpt lat="49.61727" lon="-1.37454">
        <ele>40</ele>
        <time>2022-04-25T21:10:00Z</time>
      </trkpt>
      <trkpt lat="49.61748" lon="-1.37407">
        <ele>40</ele>
        <time>2022-04-25T21:10:07Z</time>
      </trkpt>
      <trkpt lat="49.61795" lon="-1.37311">
        <ele>38</ele>
        <time>2022-04-25T21:10:20Z</time>
      </trkpt>
      <trkpt lat="49.61837" lon="-1.37194">
        <ele>37</ele>
        <time>2022-04-25T21:10:36Z</time>
      </trkpt>
      <trkpt lat="49.6184" lon="-1.37176">
        <ele>36</ele>
        <time>2022-04-25T21:10:38Z</time>
      </trkpt>
      <trkpt lat="49.6184" lon="-1.3716">
        <ele>36</ele>
        <time>2022-04-25T21:10:40Z</time>
      </trkpt>
      <trkpt lat="49.61835" lon="-1.37148">
        <ele>36</ele>
        <time>2022-04-25T21:10:41Z</time>
      </trkpt>
      <trkpt lat="49.61811" lon="-1.37109">
        <ele>34</ele>
        <time>2022-04-25T21:10:48Z</time>
      </trkpt>
      <trkpt lat="49.61805" lon="-1.37092">
        <ele>33</ele>
        <time>2022-04-25T21:10:50Z</time>
      </trkpt>
      <trkpt lat="49.61799" lon="-1.37004">
        <ele>32</ele>
        <time>2022-04-25T21:11:00Z</time>
      </trkpt>
      <trkpt lat="49.61795" lon="-1.36988">
        <ele>32</ele>
        <time>2022-04-25T21:11:02Z</time>
      </trkpt>
      <trkpt lat="49.61793" lon="-1.36964">
        <ele>31</ele>
        <time>2022-04-25T21:11:05Z</time>
      </trkpt>
      <trkpt lat="49.61793" lon="-1.36919">
        <ele>31</ele>
        <time>2022-04-25T21:11:10Z</time>
      </trkpt>
      <trkpt lat="49.61798" lon="-1.36877">
        <ele>30</ele>
        <time>2022-04-25T21:11:15Z</time>
      </trkpt>
      <trkpt lat="49.61803" lon="-1.36854">
        <ele>29</ele>
        <time>2022-04-25T21:11:18Z</time>
      </trkpt>
      <trkpt lat="49.61811" lon="-1.36837">
        <ele>29</ele>
        <time>2022-04-25T21:11:20Z</time>
      </trkpt>
      <trkpt lat="49.61824" lon="-1.36814">
        <ele>28</ele>
        <time>2022-04-25T21:11:24Z</time>
      </trkpt>
      <trkpt lat="49.61867" lon="-1.36759">
        <ele>29</ele>
        <time>2022-04-25T21:11:34Z</time>
      </trkpt>
      <trkpt lat="49.61869" lon="-1.36753">
        <ele>29</ele>
        <time>2022-04-25T21:11:34Z</time>
      </trkpt>
      <trkpt lat="49.61936" lon="-1.36606">
        <ele>30</ele>
        <time>2022-04-25T21:11:55Z</time>
      </trkpt>
      <trkpt lat="49.61989" lon="-1.36476">
        <ele>31</ele>
        <time>2022-04-25T21:12:13Z</time>
      </trkpt>
      <trkpt lat="49.62028" lon="-1.36341">
        <ele>33</ele>
        <time>2022-04-25T21:12:30Z</time>
      </trkpt>
      <trkpt lat="49.62051" lon="-1.36289">
        <ele>36</ele>
        <time>2022-04-25T21:12:37Z</time>
      </trkpt>
      <trkpt lat="49.62068" lon="-1.36244">
        <ele>38</ele>
        <time>2022-04-25T21:12:43Z</time>
      </trkpt>
      <trkpt lat="49.62112" lon="-1.36064">
        <ele>43</ele>
        <time>2022-04-25T21:13:05Z</time>
      </trkpt>
      <trkpt lat="49.62132" lon="-1.36024">
        <ele>43</ele>
        <time>2022-04-25T21:13:11Z</time>
      </trkpt>
      <trkpt lat="49.62189" lon="-1.35941">
        <ele>40</ele>
        <time>2022-04-25T21:13:25Z</time>
      </trkpt>
      <trkpt lat="49.62252" lon="-1.35853">
        <ele>37</ele>
        <time>2022-04-25T21:13:40Z</time>
      </trkpt>
      <trkpt lat="49.62242" lon="-1.35831">
        <ele>36</ele>
        <time>2022-04-25T21:13:43Z</time>
      </trkpt>
      <trkpt lat="49.62187" lon="-1.35744">
        <ele>32</ele>
        <time>2022-04-25T21:13:57Z</time>
      </trkpt>
      <trkpt lat="49.62186" lon="-1.35726">
        <ele>32</ele>
        <time>2022-04-25T21:13:59Z</time>
      </trkpt>
      <trkpt lat="49.62205" lon="-1.35673">
        <ele>30</ele>
        <time>2022-04-25T21:14:06Z</time>
      </trkpt>
      <trkpt lat="49.62199" lon="-1.35664">
        <ele>30</ele>
        <time>2022-04-25T21:14:08Z</time>
      </trkpt>
      <trkpt lat="49.62194" lon="-1.35656">
        <ele>29</ele>
        <time>2022-04-25T21:14:09Z</time>
      </trkpt>
      <trkpt lat="49.62076" lon="-1.35533">
        <ele>30</ele>
        <time>2022-04-25T21:14:35Z</time>
      </trkpt>
      <trkpt lat="49.62055" lon="-1.35495">
        <ele>31</ele>
        <time>2022-04-25T21:14:40Z</time>
      </trkpt>
      <trkpt lat="49.62038" lon="-1.35448">
        <ele>33</ele>
        <time>2022-04-25T21:14:46Z</time>
      </trkpt>
      <trkpt lat="49.62019" lon="-1.35418">
        <ele>34</ele>
        <time>2022-04-25T21:14:51Z</time>
      </trkpt>
      <trkpt lat="49.61911" lon="-1.3529">
        <ele>38</ele>
        <time>2022-04-25T21:15:16Z</time>
      </trkpt>
      <trkpt lat="49.61887" lon="-1.35252">
        <ele>38</ele>
        <time>2022-04-25T21:15:22Z</time>
      </trkpt>
      <trkpt lat="49.61875" lon="-1.35208">
        <ele>42</ele>
        <time>2022-04-25T21:15:27Z</time>
      </trkpt>
      <trkpt lat="49.61826" lon="-1.34949">
        <ele>57</ele>
        <time>2022-04-25T21:15:58Z</time>
      </trkpt>
      <trkpt lat="49.61825" lon="-1.34884">
        <ele>59</ele>
        <time>2022-04-25T21:16:06Z</time>
      </trkpt>
      <trkpt lat="49.61836" lon="-1.34724">
        <ele>63</ele>
        <time>2022-04-25T21:16:24Z</time>
      </trkpt>
      <trkpt lat="49.6183" lon="-1.34642">
        <ele>64</ele>
        <time>2022-04-25T21:16:34Z</time>
      </trkpt>
      <trkpt lat="49.61786" lon="-1.34463">
        <ele>68</ele>
        <time>2022-04-25T21:16:56Z</time>
      </trkpt>
      <trkpt lat="49.61758" lon="-1.34315">
        <ele>73</ele>
        <time>2022-04-25T21:17:14Z</time>
      </trkpt>
      <trkpt lat="49.61747" lon="-1.34277">
        <ele>72</ele>
        <time>2022-04-25T21:17:18Z</time>
      </trkpt>
      <trkpt lat="49.61714" lon="-1.342">
        <ele>75</ele>
        <time>2022-04-25T21:17:29Z</time>
      </trkpt>
      <trkpt lat="49.61697" lon="-1.34144">
        <ele>77</ele>
        <time>2022-04-25T21:17:36Z</time>
      </trkpt>
      <trkpt lat="49.61685" lon="-1.34084">
        <ele>77</ele>
        <time>2022-04-25T21:17:43Z</time>
      </trkpt>
      <trkpt lat="49.61669" lon="-1.34046">
        <ele>78</ele>
        <time>2022-04-25T21:17:49Z</time>
      </trkpt>
      <trkpt lat="49.61405" lon="-1.33769">
        <ele>84</ele>
        <time>2022-04-25T21:18:45Z</time>
      </trkpt>
      <trkpt lat="49.61302" lon="-1.3365">
        <ele>90</ele>
        <time>2022-04-25T21:19:08Z</time>
      </trkpt>
      <trkpt lat="49.61216" lon="-1.33572">
        <ele>98</ele>
        <time>2022-04-25T21:19:26Z</time>
      </trkpt>
      <trkpt lat="49.61183" lon="-1.33523">
        <ele>101</ele>
        <time>2022-04-25T21:19:34Z</time>
      </trkpt>
      <trkpt lat="49.61148" lon="-1.33453">
        <ele>103</ele>
        <time>2022-04-25T21:19:44Z</time>
      </trkpt>
      <trkpt lat="49.61135" lon="-1.33415">
        <ele>103</ele>
        <time>2022-04-25T21:19:49Z</time>
      </trkpt>
      <trkpt lat="49.61117" lon="-1.33386">
        <ele>104</ele>
        <time>2022-04-25T21:19:54Z</time>
      </trkpt>
      <trkpt lat="49.61032" lon="-1.3332">
        <ele>102</ele>
        <time>2022-04-25T21:20:11Z</time>
      </trkpt>
      <trkpt lat="49.60969" lon="-1.33263">
        <ele>96</ele>
        <time>2022-04-25T21:20:24Z</time>
      </trkpt>
      <trkpt lat="49.60949" lon="-1.33234">
        <ele>94</ele>
        <time>2022-04-25T21:20:29Z</time>
      </trkpt>
      <trkpt lat="49.60937" lon="-1.33202">
        <ele>94</ele>
        <time>2022-04-25T21:20:33Z</time>
      </trkpt>
      <trkpt lat="49.60932" lon="-1.33183">
        <ele>93</ele>
        <time>2022-04-25T21:20:35Z</time>
      </trkpt>
      <trkpt lat="49.60911" lon="-1.33075">
        <ele>95</ele>
        <time>2022-04-25T21:20:48Z</time>
      </trkpt>
      <trkpt lat="49.60895" lon="-1.32949">
        <ele>96</ele>
        <time>2022-04-25T21:21:03Z</time>
      </trkpt>
      <trkpt lat="49.6084" lon="-1.32716">
        <ele>94</ele>
        <time>2022-04-25T21:21:32Z</time>
      </trkpt>
      <trkpt lat="49.60808" lon="-1.32544">
        <ele>92</ele>
        <time>2022-04-25T21:21:53Z</time>
      </trkpt>
      <trkpt lat="49.60799" lon="-1.32446">
        <ele>92</ele>
        <time>2022-04-25T21:22:04Z</time>
      </trkpt>
      <trkpt lat="49.60786" lon="-1.32363">
        <ele>90</ele>
        <time>2022-04-25T21:22:14Z</time>
      </trkpt>
      <trkpt lat="49.60777" lon="-1.32251">
        <ele>89</ele>
        <time>2022-04-25T21:22:27Z</time>
      </trkpt>
      <trkpt lat="49.60772" lon="-1.32226">
        <ele>88</ele>
        <time>2022-04-25T21:22:30Z</time>
      </trkpt>
      <trkpt lat="49.60762" lon="-1.32197">
        <ele>88</ele>
        <time>2022-04-25T21:22:34Z</time>
      </trkpt>
      <trkpt lat="49.60747" lon="-1.32141">
        <ele>86</ele>
        <time>2022-04-25T21:22:41Z</time>
      </trkpt>
      <trkpt lat="49.60723" lon="-1.32005">
        <ele>85</ele>
        <time>2022-04-25T21:22:57Z</time>
      </trkpt>
      <trkpt lat="49.60707" lon="-1.31951">
        <ele>85</ele>
        <time>2022-04-25T21:23:04Z</time>
      </trkpt>
      <trkpt lat="49.60636" lon="-1.31788">
        <ele>86</ele>
        <time>2022-04-25T21:23:26Z</time>
      </trkpt>
      <trkpt lat="49.60628" lon="-1.31759">
        <ele>85</ele>
        <time>2022-04-25T21:23:30Z</time>
      </trkpt>
      <trkpt lat="49.6059" lon="-1.31567">
        <ele>80</ele>
        <time>2022-04-25T21:23:53Z</time>
      </trkpt>
      <trkpt lat="49.60541" lon="-1.31353">
        <ele>76</ele>
        <time>2022-04-25T21:24:19Z</time>
      </trkpt>
      <trkpt lat="49.60532" lon="-1.313">
        <ele>74</ele>
        <time>2022-04-25T21:24:26Z</time>
      </trkpt>
      <trkpt lat="49.60522" lon="-1.3118">
        <ele>70</ele>
        <time>2022-04-25T21:24:40Z</time>
      </trkpt>
      <trkpt lat="49.60514" lon="-1.3114">
        <ele>68</ele>
        <time>2022-04-25T21:24:44Z</time>
      </trkpt>
      <trkpt lat="49.60509" lon="-1.31124">
        <ele>68</ele>
        <time>2022-04-25T21:24:46Z</time>
      </trkpt>
      <trkpt lat="49.60454" lon="-1.31035">
        <ele>63</ele>
        <time>2022-04-25T21:25:01Z</time>
      </trkpt>
      <trkpt lat="49.60397" lon="-1.30959">
        <ele>58</ele>
        <time>2022-04-25T21:25:14Z</time>
      </trkpt>
      <trkpt lat="49.60337" lon="-1.3091">
        <ele>55</ele>
        <time>2022-04-25T21:25:26Z</time>
      </trkpt>
      <trkpt lat="49.60265" lon="-1.30883">
        <ele>56</ele>
        <time>2022-04-25T21:25:39Z</time>
      </trkpt>
      <trkpt lat="49.60183" lon="-1.30885">
        <ele>50</ele>
        <time>2022-04-25T21:25:54Z</time>
      </trkpt>
      <trkpt lat="49.60161" lon="-1.30873">
        <ele>48</ele>
        <time>2022-04-25T21:25:58Z</time>
      </trkpt>
      <trkpt lat="49.6004" lon="-1.30738">
        <ele>37</ele>
        <time>2022-04-25T21:26:25Z</time>
      </trkpt>
      <trkpt lat="49.60029" lon="-1.30724">
        <ele>35</ele>
        <time>2022-04-25T21:26:27Z</time>
      </trkpt>
      <trkpt lat="49.60002" lon="-1.30677">
        <ele>32</ele>
        <time>2022-04-25T21:26:34Z</time>
      </trkpt>
      <trkpt lat="49.59963" lon="-1.30592">
        <ele>30</ele>
        <time>2022-04-25T21:26:46Z</time>
      </trkpt>
      <trkpt lat="49.59888" lon="-1.30395">
        <ele>19</ele>
        <time>2022-04-25T21:27:13Z</time>
      </trkpt>
      <trkpt lat="49.59863" lon="-1.30223">
        <ele>15</ele>
        <time>2022-04-25T21:27:33Z</time>
      </trkpt>
      <trkpt lat="49.59853" lon="-1.30192">
        <ele>15</ele>
        <time>2022-04-25T21:27:37Z</time>
      </trkpt>
      <trkpt lat="49.5982" lon="-1.30132">
        <ele>14</ele>
        <time>2022-04-25T21:27:46Z</time>
      </trkpt>
      <trkpt lat="49.5977" lon="-1.30047">
        <ele>14</ele>
        <time>2022-04-25T21:27:59Z</time>
      </trkpt>
      <trkpt lat="49.5975" lon="-1.30035">
        <ele>13</ele>
        <time>2022-04-25T21:28:03Z</time>
      </trkpt>
      <trkpt lat="49.59682" lon="-1.30109">
        <ele>12</ele>
        <time>2022-04-25T21:28:18Z</time>
      </trkpt>
      <trkpt lat="49.59586" lon="-1.30208">
        <ele>12</ele>
        <time>2022-04-25T21:28:39Z</time>
      </trkpt>
      <trkpt lat="49.59567" lon="-1.30228">
        <ele>13</ele>
        <time>2022-04-25T21:28:43Z</time>
      </trkpt>
      <trkpt lat="49.5946" lon="-1.30342">
        <ele>14</ele>
        <time>2022-04-25T21:29:06Z</time>
      </trkpt>
      <trkpt lat="49.5944" lon="-1.30354">
        <ele>15</ele>
        <time>2022-04-25T21:29:10Z</time>
      </trkpt>
      <trkpt lat="49.59427" lon="-1.30356">
        <ele>15</ele>
        <time>2022-04-25T21:29:12Z</time>
      </trkpt>
      <trkpt lat="49.59355" lon="-1.30342">
        <ele>14</ele>
        <time>2022-04-25T21:29:25Z</time>
      </trkpt>
      <trkpt lat="49.59329" lon="-1.30338">
        <ele>14</ele>
        <time>2022-04-25T21:29:29Z</time>
      </trkpt>
      <trkpt lat="49.59275" lon="-1.30331">
        <ele>13</ele>
        <time>2022-04-25T21:29:39Z</time>
      </trkpt>
      <trkpt lat="49.59255" lon="-1.30333">
        <ele>13</ele>
        <time>2022-04-25T21:29:43Z</time>
      </trkpt>
      <trkpt lat="49.59253" lon="-1.30339">
        <ele>13</ele>
        <time>2022-04-25T21:29:43Z</time>
      </trkpt>
      <trkpt lat="49.59248" lon="-1.30341">
        <ele>13</ele>
        <time>2022-04-25T21:29:44Z</time>
      </trkpt>
      <trkpt lat="49.59246" lon="-1.30339">
        <ele>13</ele>
        <time>2022-04-25T21:29:45Z</time>
      </trkpt>
      <trkpt lat="49.59244" lon="-1.30335">
        <ele>13</ele>
        <time>2022-04-25T21:29:45Z</time>
      </trkpt>
      <trkpt lat="49.59244" lon="-1.3033">
        <ele>13</ele>
        <time>2022-04-25T21:29:46Z</time>
      </trkpt>
      <trkpt lat="49.59247" lon="-1.30325">
        <ele>13</ele>
        <time>2022-04-25T21:29:47Z</time>
      </trkpt>
      <trkpt lat="49.59241" lon="-1.30245">
        <ele>13</ele>
        <time>2022-04-25T21:29:56Z</time>
      </trkpt>
      <trkpt lat="49.59232" lon="-1.30172">
        <ele>12</ele>
        <time>2022-04-25T21:30:05Z</time>
      </trkpt>
      <trkpt lat="49.59229" lon="-1.30168">
        <ele>12</ele>
        <time>2022-04-25T21:30:05Z</time>
      </trkpt>
      <trkpt lat="49.59098" lon="-1.30203">
        <ele>11</ele>
        <time>2022-04-25T21:30:29Z</time>
      </trkpt>
      <trkpt lat="49.59049" lon="-1.30218">
        <ele>10</ele>
        <time>2022-04-25T21:30:38Z</time>
      </trkpt>
      <trkpt lat="49.59025" lon="-1.30223">
        <ele>10</ele>
        <time>2022-04-25T21:30:42Z</time>
      </trkpt>
      <trkpt lat="49.59001" lon="-1.30232">
        <ele>10</ele>
        <time>2022-04-25T21:30:47Z</time>
      </trkpt>
      <trkpt lat="49.58932" lon="-1.3024">
        <ele>10</ele>
        <time>2022-04-25T21:30:59Z</time>
      </trkpt>
      <trkpt lat="49.58902" lon="-1.30239">
        <ele>10</ele>
        <time>2022-04-25T21:31:04Z</time>
      </trkpt>
      <trkpt lat="49.58862" lon="-1.30243">
        <ele>9</ele>
        <time>2022-04-25T21:31:11Z</time>
      </trkpt>
      <trkpt lat="49.5881" lon="-1.30258">
        <ele>9</ele>
        <time>2022-04-25T21:31:21Z</time>
      </trkpt>
      <trkpt lat="49.58798" lon="-1.30263">
        <ele>9</ele>
        <time>2022-04-25T21:31:23Z</time>
      </trkpt>
      <trkpt lat="49.58722" lon="-1.3031">
        <ele>8</ele>
        <time>2022-04-25T21:31:38Z</time>
      </trkpt>
      <trkpt lat="49.58695" lon="-1.30323">
        <ele>8</ele>
        <time>2022-04-25T21:31:43Z</time>
      </trkpt>
      <trkpt lat="49.58699" lon="-1.30352">
        <ele>8</ele>
        <time>2022-04-25T21:31:46Z</time>
      </trkpt>
      <trkpt lat="49.58702" lon="-1.30393">
        <ele>9</ele>
        <time>2022-04-25T21:31:51Z</time>
      </trkpt>
      <trkpt lat="49.58701" lon="-1.30465">
        <ele>10</ele>
        <time>2022-04-25T21:31:59Z</time>
      </trkpt>
      <trkpt lat="49.58711" lon="-1.30546">
        <ele>11</ele>
        <time>2022-04-25T21:32:09Z</time>
      </trkpt>
      <trkpt lat="49.5871" lon="-1.30569">
        <ele>11</ele>
        <time>2022-04-25T21:32:11Z</time>
      </trkpt>
      <trkpt lat="49.58688" lon="-1.30561">
        <ele>11</ele>
        <time>2022-04-25T21:32:15Z</time>
      </trkpt>
      <trkpt lat="49.58662" lon="-1.30562">
        <ele>11</ele>
        <time>2022-04-25T21:32:20Z</time>
      </trkpt>
      <trkpt lat="49.58613" lon="-1.30576">
        <ele>12</ele>
        <time>2022-04-25T21:32:29Z</time>
      </trkpt>
      <trkpt lat="49.58576" lon="-1.30589">
        <ele>12</ele>
        <time>2022-04-25T21:32:35Z</time>
      </trkpt>
      <trkpt lat="49.58487" lon="-1.30645">
        <ele>12</ele>
        <time>2022-04-25T21:32:53Z</time>
      </trkpt>
      <trkpt lat="49.58417" lon="-1.30697">
        <ele>13</ele>
        <time>2022-04-25T21:33:06Z</time>
      </trkpt>
      <trkpt lat="49.58316" lon="-1.30784">
        <ele>16</ele>
        <time>2022-04-25T21:33:27Z</time>
      </trkpt>
      <trkpt lat="49.5823" lon="-1.3085">
        <ele>20</ele>
        <time>2022-04-25T21:33:44Z</time>
      </trkpt>
      <trkpt lat="49.58131" lon="-1.3091">
        <ele>22</ele>
        <time>2022-04-25T21:34:03Z</time>
      </trkpt>
      <trkpt lat="49.58098" lon="-1.30942">
        <ele>23</ele>
        <time>2022-04-25T21:34:10Z</time>
      </trkpt>
      <trkpt lat="49.58068" lon="-1.3095">
        <ele>23</ele>
        <time>2022-04-25T21:34:15Z</time>
      </trkpt>
      <trkpt lat="49.58056" lon="-1.30951">
        <ele>23</ele>
        <time>2022-04-25T21:34:17Z</time>
      </trkpt>
      <trkpt lat="49.58028" lon="-1.30941">
        <ele>22</ele>
        <time>2022-04-25T21:34:23Z</time>
      </trkpt>
      <trkpt lat="49.58" lon="-1.30943">
        <ele>21</ele>
        <time>2022-04-25T21:34:28Z</time>
      </trkpt>
      <trkpt lat="49.57972" lon="-1.30953">
        <ele>21</ele>
        <time>2022-04-25T21:34:33Z</time>
      </trkpt>
      <trkpt lat="49.57922" lon="-1.30983">
        <ele>20</ele>
        <time>2022-04-25T21:34:42Z</time>
      </trkpt>
      <trkpt lat="49.57847" lon="-1.31021">
        <ele>17</ele>
        <time>2022-04-25T21:34:56Z</time>
      </trkpt>
      <trkpt lat="49.57797" lon="-1.31031">
        <ele>15</ele>
        <time>2022-04-25T21:35:05Z</time>
      </trkpt>
      <trkpt lat="49.57757" lon="-1.31029">
        <ele>13</ele>
        <time>2022-04-25T21:35:12Z</time>
      </trkpt>
      <trkpt lat="49.57748" lon="-1.31026">
        <ele>13</ele>
        <time>2022-04-25T21:35:14Z</time>
      </trkpt>
      <trkpt lat="49.57743" lon="-1.31019">
        <ele>12</ele>
        <time>2022-04-25T21:35:15Z</time>
      </trkpt>
      <trkpt lat="49.57689" lon="-1.31059">
        <ele>11</ele>
        <time>2022-04-25T21:35:26Z</time>
      </trkpt>
      <trkpt lat="49.57657" lon="-1.31091">
        <ele>10</ele>
        <time>2022-04-25T21:35:33Z</time>
      </trkpt>
      <trkpt lat="49.57646" lon="-1.31099">
        <ele>10</ele>
        <time>2022-04-25T21:35:35Z</time>
      </trkpt>
      <trkpt lat="49.57584" lon="-1.31129">
        <ele>8</ele>
        <time>2022-04-25T21:35:46Z</time>
      </trkpt>
      <trkpt lat="49.57432" lon="-1.3119">
        <ele>15</ele>
        <time>2022-04-25T21:36:14Z</time>
      </trkpt>
      <trkpt lat="49.57336" lon="-1.31245">
        <ele>20</ele>
        <time>2022-04-25T21:36:33Z</time>
      </trkpt>
      <trkpt lat="49.57256" lon="-1.31266">
        <ele>19</ele>
        <time>2022-04-25T21:36:47Z</time>
      </trkpt>
      <trkpt lat="49.57215" lon="-1.31289">
        <ele>18</ele>
        <time>2022-04-25T21:36:55Z</time>
      </trkpt>
      <trkpt lat="49.57123" lon="-1.31361">
        <ele>16</ele>
        <time>2022-04-25T21:37:13Z</time>
      </trkpt>
      <trkpt lat="49.5707" lon="-1.31396">
        <ele>15</ele>
        <time>2022-04-25T21:37:23Z</time>
      </trkpt>
      <trkpt lat="49.57027" lon="-1.31417">
        <ele>16</ele>
        <time>2022-04-25T21:37:31Z</time>
      </trkpt>
      <trkpt lat="49.56976" lon="-1.3143">
        <ele>16</ele>
        <time>2022-04-25T21:37:41Z</time>
      </trkpt>
      <trkpt lat="49.56873" lon="-1.31436">
        <ele>16</ele>
        <time>2022-04-25T21:37:59Z</time>
      </trkpt>
      <trkpt lat="49.56804" lon="-1.31448">
        <ele>16</ele>
        <time>2022-04-25T21:38:11Z</time>
      </trkpt>
      <trkpt lat="49.56722" lon="-1.31472">
        <ele>17</ele>
        <time>2022-04-25T21:38:26Z</time>
      </trkpt>
      <trkpt lat="49.56686" lon="-1.31486">
        <ele>17</ele>
        <time>2022-04-25T21:38:33Z</time>
      </trkpt>
      <trkpt lat="49.56663" lon="-1.31498">
        <ele>18</ele>
        <time>2022-04-25T21:38:37Z</time>
      </trkpt>
      <trkpt lat="49.56633" lon="-1.31518">
        <ele>18</ele>
        <time>2022-04-25T21:38:43Z</time>
      </trkpt>
      <trkpt lat="49.56529" lon="-1.31597">
        <ele>20</ele>
        <time>2022-04-25T21:39:04Z</time>
      </trkpt>
      <trkpt lat="49.56478" lon="-1.31625">
        <ele>21</ele>
        <time>2022-04-25T21:39:13Z</time>
      </trkpt>
      <trkpt lat="49.5643" lon="-1.31645">
        <ele>22</ele>
        <time>2022-04-25T21:39:22Z</time>
      </trkpt>
      <trkpt lat="49.56383" lon="-1.31659">
        <ele>23</ele>
        <time>2022-04-25T21:39:31Z</time>
      </trkpt>
      <trkpt lat="49.56334" lon="-1.31668">
        <ele>23</ele>
        <time>2022-04-25T21:39:39Z</time>
      </trkpt>
      <trkpt lat="49.56247" lon="-1.31678">
        <ele>24</ele>
        <time>2022-04-25T21:39:55Z</time>
      </trkpt>
      <trkpt lat="49.56211" lon="-1.31675">
        <ele>24</ele>
        <time>2022-04-25T21:40:01Z</time>
      </trkpt>
      <trkpt lat="49.56092" lon="-1.31653">
        <ele>25</ele>
        <time>2022-04-25T21:40:23Z</time>
      </trkpt>
      <trkpt lat="49.56072" lon="-1.31654">
        <ele>25</ele>
        <time>2022-04-25T21:40:26Z</time>
      </trkpt>
      <trkpt lat="49.55931" lon="-1.31672">
        <ele>30</ele>
        <time>2022-04-25T21:40:51Z</time>
      </trkpt>
      <trkpt lat="49.55903" lon="-1.31671">
        <ele>30</ele>
        <time>2022-04-25T21:40:56Z</time>
      </trkpt>
      <trkpt lat="49.5569" lon="-1.31619">
        <ele>15</ele>
        <time>2022-04-25T21:41:35Z</time>
      </trkpt>
      <trkpt lat="49.55668" lon="-1.31618">
        <ele>14</ele>
        <time>2022-04-25T21:41:39Z</time>
      </trkpt>
      <trkpt lat="49.55646" lon="-1.3162">
        <ele>15</ele>
        <time>2022-04-25T21:41:42Z</time>
      </trkpt>
      <trkpt lat="49.55401" lon="-1.31675">
        <ele>18</ele>
        <time>2022-04-25T21:42:27Z</time>
      </trkpt>
      <trkpt lat="49.552" lon="-1.31707">
        <ele>15</ele>
        <time>2022-04-25T21:43:03Z</time>
      </trkpt>
      <trkpt lat="49.55163" lon="-1.31723">
        <ele>14</ele>
        <time>2022-04-25T21:43:09Z</time>
      </trkpt>
      <trkpt lat="49.55142" lon="-1.31735">
        <ele>14</ele>
        <time>2022-04-25T21:43:13Z</time>
      </trkpt>
      <trkpt lat="49.55119" lon="-1.31756">
        <ele>14</ele>
        <time>2022-04-25T21:43:18Z</time>
      </trkpt>
      <trkpt lat="49.54975" lon="-1.31907">
        <ele>16</ele>
        <time>2022-04-25T21:43:49Z</time>
      </trkpt>
      <trkpt lat="49.54884" lon="-1.31988">
        <ele>15</ele>
        <time>2022-04-25T21:44:08Z</time>
      </trkpt>
      <trkpt lat="49.54817" lon="-1.32036">
        <ele>13</ele>
        <time>2022-04-25T21:44:21Z</time>
      </trkpt>
      <trkpt lat="49.54779" lon="-1.32058">
        <ele>13</ele>
        <time>2022-04-25T21:44:28Z</time>
      </trkpt>
      <trkpt lat="49.54729" lon="-1.32074">
        <ele>12</ele>
        <time>2022-04-25T21:44:37Z</time>
      </trkpt>
      <trkpt lat="49.54682" lon="-1.32084">
        <ele>13</ele>
        <time>2022-04-25T21:44:46Z</time>
      </trkpt>
      <trkpt lat="49.54567" lon="-1.32096">
        <ele>15</ele>
        <time>2022-04-25T21:45:06Z</time>
      </trkpt>
      <trkpt lat="49.54315" lon="-1.32154">
        <ele>17</ele>
        <time>2022-04-25T21:45:52Z</time>
      </trkpt>
      <trkpt lat="49.54256" lon="-1.32148">
        <ele>17</ele>
        <time>2022-04-25T21:46:02Z</time>
      </trkpt>
      <trkpt lat="49.54175" lon="-1.32132">
        <ele>16</ele>
        <time>2022-04-25T21:46:17Z</time>
      </trkpt>
      <trkpt lat="49.54018" lon="-1.32109">
        <ele>17</ele>
        <time>2022-04-25T21:46:45Z</time>
      </trkpt>
      <trkpt lat="49.53943" lon="-1.32103">
        <ele>14</ele>
        <time>2022-04-25T21:46:58Z</time>
      </trkpt>
      <trkpt lat="49.53874" lon="-1.32085">
        <ele>14</ele>
        <time>2022-04-25T21:47:10Z</time>
      </trkpt>
      <trkpt lat="49.53828" lon="-1.32078">
        <ele>14</ele>
        <time>2022-04-25T21:47:19Z</time>
      </trkpt>
      <trkpt lat="49.53796" lon="-1.3208">
        <ele>15</ele>
        <time>2022-04-25T21:47:24Z</time>
      </trkpt>
      <trkpt lat="49.53777" lon="-1.32084">
        <ele>15</ele>
        <time>2022-04-25T21:47:28Z</time>
      </trkpt>
      <trkpt lat="49.53463" lon="-1.32198">
        <ele>19</ele>
        <time>2022-04-25T21:48:25Z</time>
      </trkpt>
      <trkpt lat="49.53426" lon="-1.32207">
        <ele>17</ele>
        <time>2022-04-25T21:48:32Z</time>
      </trkpt>
      <trkpt lat="49.53368" lon="-1.32208">
        <ele>16</ele>
        <time>2022-04-25T21:48:42Z</time>
      </trkpt>
      <trkpt lat="49.53335" lon="-1.32204">
        <ele>14</ele>
        <time>2022-04-25T21:48:48Z</time>
      </trkpt>
      <trkpt lat="49.53306" lon="-1.32198">
        <ele>15</ele>
        <time>2022-04-25T21:48:53Z</time>
      </trkpt>
      <trkpt lat="49.53269" lon="-1.32185">
        <ele>16</ele>
        <time>2022-04-25T21:49:00Z</time>
      </trkpt>
      <trkpt lat="49.53232" lon="-1.32168">
        <ele>18</ele>
        <time>2022-04-25T21:49:07Z</time>
      </trkpt>
      <trkpt lat="49.53121" lon="-1.32093">
        <ele>20</ele>
        <time>2022-04-25T21:49:28Z</time>
      </trkpt>
      <trkpt lat="49.53079" lon="-1.32067">
        <ele>19</ele>
        <time>2022-04-25T21:49:36Z</time>
      </trkpt>
      <trkpt lat="49.52839" lon="-1.31945">
        <ele>21</ele>
        <time>2022-04-25T21:50:21Z</time>
      </trkpt>
      <trkpt lat="49.52707" lon="-1.31873">
        <ele>25</ele>
        <time>2022-04-25T21:50:46Z</time>
      </trkpt>
      <trkpt lat="49.52667" lon="-1.31846">
        <ele>26</ele>
        <time>2022-04-25T21:50:54Z</time>
      </trkpt>
      <trkpt lat="49.52505" lon="-1.31727">
        <ele>25</ele>
        <time>2022-04-25T21:51:26Z</time>
      </trkpt>
      <trkpt lat="49.52472" lon="-1.3171">
        <ele>25</ele>
        <time>2022-04-25T21:51:32Z</time>
      </trkpt>
      <trkpt lat="49.52437" lon="-1.31699">
        <ele>26</ele>
        <time>2022-04-25T21:51:39Z</time>
      </trkpt>
      <trkpt lat="49.52402" lon="-1.31696">
        <ele>25</ele>
        <time>2022-04-25T21:51:45Z</time>
      </trkpt>
      <trkpt lat="49.52372" lon="-1.31699">
        <ele>25</ele>
        <time>2022-04-25T21:51:50Z</time>
      </trkpt>
      <trkpt lat="49.5232" lon="-1.31713">
        <ele>24</ele>
        <time>2022-04-25T21:52:00Z</time>
      </trkpt>
      <trkpt lat="49.52139" lon="-1.3178">
        <ele>20</ele>
        <time>2022-04-25T21:52:33Z</time>
      </trkpt>
      <trkpt lat="49.52134" lon="-1.31754">
        <ele>20</ele>
        <time>2022-04-25T21:52:36Z</time>
      </trkpt>
      <trkpt lat="49.52124" lon="-1.31723">
        <ele>20</ele>
        <time>2022-04-25T21:52:40Z</time>
      </trkpt>
      <trkpt lat="49.52113" lon="-1.31693">
        <ele>19</ele>
        <time>2022-04-25T21:52:44Z</time>
      </trkpt>
      <trkpt lat="49.52066" lon="-1.31599">
        <ele>18</ele>
        <time>2022-04-25T21:52:58Z</time>
      </trkpt>
      <trkpt lat="49.51998" lon="-1.31479">
        <ele>16</ele>
        <time>2022-04-25T21:53:16Z</time>
      </trkpt>
      <trkpt lat="49.51983" lon="-1.31446">
        <ele>16</ele>
        <time>2022-04-25T21:53:21Z</time>
      </trkpt>
      <trkpt lat="49.51936" lon="-1.31379">
        <ele>15</ele>
        <time>2022-04-25T21:53:32Z</time>
      </trkpt>
      <trkpt lat="49.51932" lon="-1.31366">
        <ele>15</ele>
        <time>2022-04-25T21:53:34Z</time>
      </trkpt>
      <trkpt lat="49.51928" lon="-1.31338">
        <ele>14</ele>
        <time>2022-04-25T21:53:37Z</time>
      </trkpt>
      <trkpt lat="49.51928" lon="-1.31294">
        <ele>15</ele>
        <time>2022-04-25T21:53:42Z</time>
      </trkpt>
      <trkpt lat="49.5193" lon="-1.31281">
        <ele>15</ele>
        <time>2022-04-25T21:53:44Z</time>
      </trkpt>
      <trkpt lat="49.51938" lon="-1.31254">
        <ele>16</ele>
        <time>2022-04-25T21:53:47Z</time>
      </trkpt>
      <trkpt lat="49.5195" lon="-1.31232">
        <ele>16</ele>
        <time>2022-04-25T21:53:50Z</time>
      </trkpt>
      <trkpt lat="49.51958" lon="-1.31209">
        <ele>16</ele>
        <time>2022-04-25T21:53:53Z</time>
      </trkpt>
      <trkpt lat="49.51976" lon="-1.31146">
        <ele>16</ele>
        <time>2022-04-25T21:54:01Z</time>
      </trkpt>
      <trkpt lat="49.51978" lon="-1.31121">
        <ele>15</ele>
        <time>2022-04-25T21:54:04Z</time>
      </trkpt>
      <trkpt lat="49.5198" lon="-1.30979">
        <ele>10</ele>
        <time>2022-04-25T21:54:21Z</time>
      </trkpt>
      <trkpt lat="49.51977" lon="-1.30949">
        <ele>9</ele>
        <time>2022-04-25T21:54:24Z</time>
      </trkpt>
      <trkpt lat="49.51973" lon="-1.30932">
        <ele>8</ele>
        <time>2022-04-25T21:54:26Z</time>
      </trkpt>
      <trkpt lat="49.51967" lon="-1.3092">
        <ele>7</ele>
        <time>2022-04-25T21:54:28Z</time>
      </trkpt>
      <trkpt lat="49.51957" lon="-1.30905">
        <ele>7</ele>
        <time>2022-04-25T21:54:30Z</time>
      </trkpt>
      <trkpt lat="49.51854" lon="-1.30813">
        <ele>5</ele>
        <time>2022-04-25T21:54:52Z</time>
      </trkpt>
      <trkpt lat="49.51826" lon="-1.30776">
        <ele>5</ele>
        <time>2022-04-25T21:54:58Z</time>
      </trkpt>
      <trkpt lat="49.51804" lon="-1.30725">
        <ele>6</ele>
        <time>2022-04-25T21:55:05Z</time>
      </trkpt>
      <trkpt lat="49.51574" lon="-1.30158">
        <ele>12</ele>
        <time>2022-04-25T21:56:22Z</time>
      </trkpt>
      <trkpt lat="49.51556" lon="-1.30107">
        <ele>12</ele>
        <time>2022-04-25T21:56:29Z</time>
      </trkpt>
      <trkpt lat="49.51552" lon="-1.30089">
        <ele>11</ele>
        <time>2022-04-25T21:56:31Z</time>
      </trkpt>
      <trkpt lat="49.51548" lon="-1.30063">
        <ele>10</ele>
        <time>2022-04-25T21:56:34Z</time>
      </trkpt>
      <trkpt lat="49.51547" lon="-1.3003">
        <ele>8</ele>
        <time>2022-04-25T21:56:38Z</time>
      </trkpt>
      <trkpt lat="49.51548" lon="-1.30004">
        <ele>6</ele>
        <time>2022-04-25T21:56:41Z</time>
      </trkpt>
      <trkpt lat="49.51566" lon="-1.29772">
        <ele>3</ele>
        <time>2022-04-25T21:57:08Z</time>
      </trkpt>
      <trkpt lat="49.51565" lon="-1.29732">
        <ele>3</ele>
        <time>2022-04-25T21:57:13Z</time>
      </trkpt>
      <trkpt lat="49.51561" lon="-1.2969">
        <ele>2</ele>
        <time>2022-04-25T21:57:18Z</time>
      </trkpt>
      <trkpt lat="49.51551" lon="-1.29635">
        <ele>2</ele>
        <time>2022-04-25T21:57:24Z</time>
      </trkpt>
      <trkpt lat="49.51549" lon="-1.29608">
        <ele>3</ele>
        <time>2022-04-25T21:57:28Z</time>
      </trkpt>
      <trkpt lat="49.51548" lon="-1.29586">
        <ele>3</ele>
        <time>2022-04-25T21:57:30Z</time>
      </trkpt>
      <trkpt lat="49.51552" lon="-1.29528">
        <ele>2</ele>
        <time>2022-04-25T21:57:37Z</time>
      </trkpt>
      <trkpt lat="49.51552" lon="-1.29469">
        <ele>1</ele>
        <time>2022-04-25T21:57:44Z</time>
      </trkpt>
      <trkpt lat="49.51543" lon="-1.2934">
        <ele>1</ele>
        <time>2022-04-25T21:57:59Z</time>
      </trkpt>
      <trkpt lat="49.51534" lon="-1.2925">
        <ele>2</ele>
        <time>2022-04-25T21:58:09Z</time>
      </trkpt>
      <trkpt lat="49.51484" lon="-1.29146">
        <ele>3</ele>
        <time>2022-04-25T21:58:24Z</time>
      </trkpt>
      <trkpt lat="49.51476" lon="-1.29121">
        <ele>3</ele>
        <time>2022-04-25T21:58:27Z</time>
      </trkpt>
      <trkpt lat="49.51472" lon="-1.29094">
        <ele>3</ele>
        <time>2022-04-25T21:58:31Z</time>
      </trkpt>
      <trkpt lat="49.51459" lon="-1.28943">
        <ele>3</ele>
        <time>2022-04-25T21:58:48Z</time>
      </trkpt>
      <trkpt lat="49.51461" lon="-1.28927">
        <ele>3</ele>
        <time>2022-04-25T21:58:50Z</time>
      </trkpt>
      <trkpt lat="49.51491" lon="-1.28789">
        <ele>4</ele>
        <time>2022-04-25T21:59:07Z</time>
      </trkpt>
      <trkpt lat="49.51473" lon="-1.28774">
        <ele>4</ele>
        <time>2022-04-25T21:59:10Z</time>
      </trkpt>
      <trkpt lat="49.51437" lon="-1.28704">
        <ele>3</ele>
        <time>2022-04-25T21:59:21Z</time>
      </trkpt>
      <trkpt lat="49.5142" lon="-1.28678">
        <ele>3</ele>
        <time>2022-04-25T21:59:25Z</time>
      </trkpt>
      <trkpt lat="49.51376" lon="-1.28601">
        <ele>3</ele>
        <time>2022-04-25T21:59:37Z</time>
      </trkpt>
      <trkpt lat="49.51324" lon="-1.28541">
        <ele>2</ele>
        <time>2022-04-25T21:59:48Z</time>
      </trkpt>
      <trkpt lat="49.51198" lon="-1.2836">
        <ele>4</ele>
        <time>2022-04-25T22:00:19Z</time>
      </trkpt>
      <trkpt lat="49.51185" lon="-1.28345">
        <ele>4</ele>
        <time>2022-04-25T22:00:22Z</time>
      </trkpt>
      <trkpt lat="49.51051" lon="-1.28224">
        <ele>3</ele>
        <time>2022-04-25T22:00:50Z</time>
      </trkpt>
      <trkpt lat="49.51008" lon="-1.28181">
        <ele>4</ele>
        <time>2022-04-25T22:00:59Z</time>
      </trkpt>
      <trkpt lat="49.50888" lon="-1.28082">
        <ele>3</ele>
        <time>2022-04-25T22:01:23Z</time>
      </trkpt>
      <trkpt lat="49.50846" lon="-1.28042">
        <ele>3</ele>
        <time>2022-04-25T22:01:32Z</time>
      </trkpt>
      <trkpt lat="49.50814" lon="-1.27999">
        <ele>4</ele>
        <time>2022-04-25T22:01:39Z</time>
      </trkpt>
      <trkpt lat="49.50741" lon="-1.27844">
        <ele>3</ele>
        <time>2022-04-25T22:02:01Z</time>
      </trkpt>
      <trkpt lat="49.50703" lon="-1.27787">
        <ele>2</ele>
        <time>2022-04-25T22:02:11Z</time>
      </trkpt>
      <trkpt lat="49.50661" lon="-1.27738">
        <ele>2</ele>
        <time>2022-04-25T22:02:20Z</time>
      </trkpt>
      <trkpt lat="49.50385" lon="-1.27435">
        <ele>2</ele>
        <time>2022-04-25T22:03:21Z</time>
      </trkpt>
      <trkpt lat="49.50081" lon="-1.27078">
        <ele>3</ele>
        <time>2022-04-25T22:04:29Z</time>
      </trkpt>
      <trkpt lat="49.49983" lon="-1.26969">
        <ele>2</ele>
        <time>2022-04-25T22:04:50Z</time>
      </trkpt>
      <trkpt lat="49.49829" lon="-1.26833">
        <ele>1</ele>
        <time>2022-04-25T22:05:22Z</time>
      </trkpt>
      <trkpt lat="49.49726" lon="-1.26749">
        <ele>2</ele>
        <time>2022-04-25T22:05:42Z</time>
      </trkpt>
      <trkpt lat="49.49655" lon="-1.26694">
        <ele>2</ele>
        <time>2022-04-25T22:05:57Z</time>
      </trkpt>
      <trkpt lat="49.49497" lon="-1.26566">
        <ele>1</ele>
        <time>2022-04-25T22:06:28Z</time>
      </trkpt>
      <trkpt lat="49.49419" lon="-1.26515">
        <ele>2</ele>
        <time>2022-04-25T22:06:43Z</time>
      </trkpt>
      <trkpt lat="49.49321" lon="-1.26428">
        <ele>1</ele>
        <time>2022-04-25T22:07:04Z</time>
      </trkpt>
      <trkpt lat="49.49162" lon="-1.26294">
        <ele>1</ele>
        <time>2022-04-25T22:07:36Z</time>
      </trkpt>
      <trkpt lat="49.48954" lon="-1.26105">
        <ele>2</ele>
        <time>2022-04-25T22:08:19Z</time>
      </trkpt>
      <trkpt lat="49.48914" lon="-1.26075">
        <ele>2</ele>
        <time>2022-04-25T22:08:27Z</time>
      </trkpt>
      <trkpt lat="49.48897" lon="-1.26065">
        <ele>2</ele>
        <time>2022-04-25T22:08:30Z</time>
      </trkpt>
      <trkpt lat="49.48862" lon="-1.2605">
        <ele>2</ele>
        <time>2022-04-25T22:08:36Z</time>
      </trkpt>
      <trkpt lat="49.4883" lon="-1.26043">
        <ele>2</ele>
        <time>2022-04-25T22:08:42Z</time>
      </trkpt>
      <trkpt lat="49.48797" lon="-1.26033">
        <ele>3</ele>
        <time>2022-04-25T22:08:48Z</time>
      </trkpt>
      <trkpt lat="49.48781" lon="-1.26025">
        <ele>3</ele>
        <time>2022-04-25T22:08:51Z</time>
      </trkpt>
      <trkpt lat="49.48745" lon="-1.25998">
        <ele>4</ele>
        <time>2022-04-25T22:08:58Z</time>
      </trkpt>
      <trkpt lat="49.48704" lon="-1.25971">
        <ele>4</ele>
        <time>2022-04-25T22:09:06Z</time>
      </trkpt>
      <trkpt lat="49.48681" lon="-1.2596">
        <ele>4</ele>
        <time>2022-04-25T22:09:10Z</time>
      </trkpt>
      <trkpt lat="49.48669" lon="-1.25957">
        <ele>4</ele>
        <time>2022-04-25T22:09:13Z</time>
      </trkpt>
      <trkpt lat="49.48654" lon="-1.25959">
        <ele>4</ele>
        <time>2022-04-25T22:09:15Z</time>
      </trkpt>
      <trkpt lat="49.48606" lon="-1.25976">
        <ele>3</ele>
        <time>2022-04-25T22:09:24Z</time>
      </trkpt>
      <trkpt lat="49.48578" lon="-1.25983">
        <ele>2</ele>
        <time>2022-04-25T22:09:29Z</time>
      </trkpt>
      <trkpt lat="49.48545" lon="-1.25982">
        <ele>2</ele>
        <time>2022-04-25T22:09:35Z</time>
      </trkpt>
      <trkpt lat="49.48502" lon="-1.2597">
        <ele>1</ele>
        <time>2022-04-25T22:09:43Z</time>
      </trkpt>
      <trkpt lat="49.48362" lon="-1.2591">
        <ele>2</ele>
        <time>2022-04-25T22:10:09Z</time>
      </trkpt>
      <trkpt lat="49.48319" lon="-1.25903">
        <ele>2</ele>
        <time>2022-04-25T22:10:16Z</time>
      </trkpt>
      <trkpt lat="49.48255" lon="-1.25906">
        <ele>1</ele>
        <time>2022-04-25T22:10:28Z</time>
      </trkpt>
      <trkpt lat="49.48194" lon="-1.25913">
        <ele>2</ele>
        <time>2022-04-25T22:10:39Z</time>
      </trkpt>
      <trkpt lat="49.48168" lon="-1.25908">
        <ele>2</ele>
        <time>2022-04-25T22:10:43Z</time>
      </trkpt>
      <trkpt lat="49.48124" lon="-1.25886">
        <ele>2</ele>
        <time>2022-04-25T22:10:52Z</time>
      </trkpt>
      <trkpt lat="49.48086" lon="-1.25857">
        <ele>2</ele>
        <time>2022-04-25T22:10:59Z</time>
      </trkpt>
      <trkpt lat="49.4784" lon="-1.25549">
        <ele>2</ele>
        <time>2022-04-25T22:11:55Z</time>
      </trkpt>
      <trkpt lat="49.47766" lon="-1.25464">
        <ele>2</ele>
        <time>2022-04-25T22:12:12Z</time>
      </trkpt>
      <trkpt lat="49.47682" lon="-1.25381">
        <ele>2</ele>
        <time>2022-04-25T22:12:30Z</time>
      </trkpt>
      <trkpt lat="49.4757" lon="-1.25288">
        <ele>2</ele>
        <time>2022-04-25T22:12:52Z</time>
      </trkpt>
      <trkpt lat="49.47474" lon="-1.25224">
        <ele>1</ele>
        <time>2022-04-25T22:13:11Z</time>
      </trkpt>
      <trkpt lat="49.47297" lon="-1.25111">
        <ele>2</ele>
        <time>2022-04-25T22:13:45Z</time>
      </trkpt>
      <trkpt lat="49.47264" lon="-1.25088">
        <ele>2</ele>
        <time>2022-04-25T22:13:51Z</time>
      </trkpt>
      <trkpt lat="49.47205" lon="-1.25038">
        <ele>2</ele>
        <time>2022-04-25T22:14:03Z</time>
      </trkpt>
      <trkpt lat="49.47158" lon="-1.24976">
        <ele>1</ele>
        <time>2022-04-25T22:14:14Z</time>
      </trkpt>
      <trkpt lat="49.47135" lon="-1.24941">
        <ele>1</ele>
        <time>2022-04-25T22:14:20Z</time>
      </trkpt>
      <trkpt lat="49.47098" lon="-1.24895">
        <ele>1</ele>
        <time>2022-04-25T22:14:29Z</time>
      </trkpt>
      <trkpt lat="49.47263" lon="-1.24537">
        <ele>2</ele>
        <time>2022-04-25T22:15:19Z</time>
      </trkpt>
      <trkpt lat="49.47225" lon="-1.24337">
        <ele>3</ele>
        <time>2022-04-25T22:15:44Z</time>
      </trkpt>
      <trkpt lat="49.47216" lon="-1.24246">
        <ele>3</ele>
        <time>2022-04-25T22:15:54Z</time>
      </trkpt>
      <trkpt lat="49.47203" lon="-1.24163">
        <ele>2</ele>
        <time>2022-04-25T22:16:04Z</time>
      </trkpt>
      <trkpt lat="49.47199" lon="-1.24147">
        <ele>2</ele>
        <time>2022-04-25T22:16:06Z</time>
      </trkpt>
      <trkpt lat="49.47187" lon="-1.24112">
        <ele>1</ele>
        <time>2022-04-25T22:16:11Z</time>
      </trkpt>
      <trkpt lat="49.47173" lon="-1.24088">
        <ele>1</ele>
        <time>2022-04-25T22:16:14Z</time>
      </trkpt>
      <trkpt lat="49.47106" lon="-1.24">
        <ele>1</ele>
        <time>2022-04-25T22:16:30Z</time>
      </trkpt>
      <trkpt lat="49.46874" lon="-1.23744">
        <ele>1</ele>
        <time>2022-04-25T22:17:21Z</time>
      </trkpt>
      <trkpt lat="49.46802" lon="-1.23668">
        <ele>1</ele>
        <time>2022-04-25T22:17:36Z</time>
      </trkpt>
      <trkpt lat="49.46662" lon="-1.23511">
        <ele>1</ele>
        <time>2022-04-25T22:18:07Z</time>
      </trkpt>
      <trkpt lat="49.46537" lon="-1.23381">
        <ele>1</ele>
        <time>2022-04-25T22:18:34Z</time>
      </trkpt>
      <trkpt lat="49.46264" lon="-1.23075">
        <ele>2</ele>
        <time>2022-04-25T22:19:34Z</time>
      </trkpt>
      <trkpt lat="49.46174" lon="-1.22964">
        <ele>2</ele>
        <time>2022-04-25T22:19:55Z</time>
      </trkpt>
      <trkpt lat="49.45918" lon="-1.22687">
        <ele>1</ele>
        <time>2022-04-25T22:20:50Z</time>
      </trkpt>
      <trkpt lat="49.45683" lon="-1.22439">
        <ele>2</ele>
        <time>2022-04-25T22:21:41Z</time>
      </trkpt>
      <trkpt lat="49.45474" lon="-1.22191">
        <ele>1</ele>
        <time>2022-04-25T22:22:28Z</time>
      </trkpt>
      <trkpt lat="49.45434" lon="-1.22132">
        <ele>1</ele>
        <time>2022-04-25T22:22:38Z</time>
      </trkpt>
      <trkpt lat="49.45324" lon="-1.22015">
        <ele>1</ele>
        <time>2022-04-25T22:23:02Z</time>
      </trkpt>
      <trkpt lat="49.4507" lon="-1.2173">
        <ele>2</ele>
        <time>2022-04-25T22:23:58Z</time>
      </trkpt>
      <trkpt lat="49.44963" lon="-1.21653">
        <ele>1</ele>
        <time>2022-04-25T22:24:19Z</time>
      </trkpt>
      <trkpt lat="49.4478" lon="-1.21529">
        <ele>2</ele>
        <time>2022-04-25T22:24:54Z</time>
      </trkpt>
      <trkpt lat="49.4475" lon="-1.21502">
        <ele>2</ele>
        <time>2022-04-25T22:25:00Z</time>
      </trkpt>
      <trkpt lat="49.44684" lon="-1.21418">
        <ele>1</ele>
        <time>2022-04-25T22:25:16Z</time>
      </trkpt>
      <trkpt lat="49.44652" lon="-1.21389">
        <ele>1</ele>
        <time>2022-04-25T22:25:22Z</time>
      </trkpt>
      <trkpt lat="49.44625" lon="-1.21369">
        <ele>1</ele>
        <time>2022-04-25T22:25:28Z</time>
      </trkpt>
      <trkpt lat="49.44583" lon="-1.21342">
        <ele>2</ele>
        <time>2022-04-25T22:25:36Z</time>
      </trkpt>
      <trkpt lat="49.44546" lon="-1.21323">
        <ele>2</ele>
        <time>2022-04-25T22:25:43Z</time>
      </trkpt>
      <trkpt lat="49.44522" lon="-1.21314">
        <ele>2</ele>
        <time>2022-04-25T22:25:47Z</time>
      </trkpt>
      <trkpt lat="49.44433" lon="-1.21293">
        <ele>2</ele>
        <time>2022-04-25T22:26:03Z</time>
      </trkpt>
      <trkpt lat="49.44415" lon="-1.21286">
        <ele>2</ele>
        <time>2022-04-25T22:26:06Z</time>
      </trkpt>
      <trkpt lat="49.44401" lon="-1.21274">
        <ele>2</ele>
        <time>2022-04-25T22:26:09Z</time>
      </trkpt>
      <trkpt lat="49.44394" lon="-1.21264">
        <ele>2</ele>
        <time>2022-04-25T22:26:11Z</time>
      </trkpt>
      <trkpt lat="49.44382" lon="-1.21233">
        <ele>2</ele>
        <time>2022-04-25T22:26:15Z</time>
      </trkpt>
      <trkpt lat="49.44379" lon="-1.21219">
        <ele>2</ele>
        <time>2022-04-25T22:26:17Z</time>
      </trkpt>
      <trkpt lat="49.44377" lon="-1.21184">
        <ele>2</ele>
        <time>2022-04-25T22:26:21Z</time>
      </trkpt>
      <trkpt lat="49.44387" lon="-1.21128">
        <ele>2</ele>
        <time>2022-04-25T22:26:28Z</time>
      </trkpt>
      <trkpt lat="49.44388" lon="-1.21096">
        <ele>2</ele>
        <time>2022-04-25T22:26:31Z</time>
      </trkpt>
      <trkpt lat="49.44387" lon="-1.21078">
        <ele>2</ele>
        <time>2022-04-25T22:26:33Z</time>
      </trkpt>
      <trkpt lat="49.44383" lon="-1.21054">
        <ele>2</ele>
        <time>2022-04-25T22:26:36Z</time>
      </trkpt>
      <trkpt lat="49.44377" lon="-1.21033">
        <ele>2</ele>
        <time>2022-04-25T22:26:39Z</time>
      </trkpt>
      <trkpt lat="49.44365" lon="-1.2101">
        <ele>2</ele>
        <time>2022-04-25T22:26:42Z</time>
      </trkpt>
      <trkpt lat="49.44342" lon="-1.20982">
        <ele>2</ele>
        <time>2022-04-25T22:26:47Z</time>
      </trkpt>
      <trkpt lat="49.44296" lon="-1.20941">
        <ele>2</ele>
        <time>2022-04-25T22:26:57Z</time>
      </trkpt>
      <trkpt lat="49.44197" lon="-1.20871">
        <ele>2</ele>
        <time>2022-04-25T22:27:16Z</time>
      </trkpt>
      <trkpt lat="49.44153" lon="-1.20833">
        <ele>2</ele>
        <time>2022-04-25T22:27:25Z</time>
      </trkpt>
      <trkpt lat="49.44125" lon="-1.20803">
        <ele>2</ele>
        <time>2022-04-25T22:27:31Z</time>
      </trkpt>
      <trkpt lat="49.44098" lon="-1.20786">
        <ele>2</ele>
        <time>2022-04-25T22:27:37Z</time>
      </trkpt>
      <trkpt lat="49.43841" lon="-1.20671">
        <ele>1</ele>
        <time>2022-04-25T22:28:24Z</time>
      </trkpt>
      <trkpt lat="49.43824" lon="-1.2066">
        <ele>1</ele>
        <time>2022-04-25T22:28:27Z</time>
      </trkpt>
      <trkpt lat="49.43804" lon="-1.20643">
        <ele>1</ele>
        <time>2022-04-25T22:28:32Z</time>
      </trkpt>
      <trkpt lat="49.43787" lon="-1.20622">
        <ele>1</ele>
        <time>2022-04-25T22:28:35Z</time>
      </trkpt>
      <trkpt lat="49.43773" lon="-1.20601">
        <ele>1</ele>
        <time>2022-04-25T22:28:39Z</time>
      </trkpt>
      <trkpt lat="49.43704" lon="-1.20477">
        <ele>1</ele>
        <time>2022-04-25T22:28:58Z</time>
      </trkpt>
      <trkpt lat="49.43694" lon="-1.20454">
        <ele>1</ele>
        <time>2022-04-25T22:29:01Z</time>
      </trkpt>
      <trkpt lat="49.43672" lon="-1.20387">
        <ele>1</ele>
        <time>2022-04-25T22:29:10Z</time>
      </trkpt>
      <trkpt lat="49.43653" lon="-1.20297">
        <ele>1</ele>
        <time>2022-04-25T22:29:21Z</time>
      </trkpt>
      <trkpt lat="49.43638" lon="-1.20258">
        <ele>1</ele>
        <time>2022-04-25T22:29:26Z</time>
      </trkpt>
      <trkpt lat="49.43629" lon="-1.2024">
        <ele>2</ele>
        <time>2022-04-25T22:29:28Z</time>
      </trkpt>
      <trkpt lat="49.43614" lon="-1.20217">
        <ele>2</ele>
        <time>2022-04-25T22:29:32Z</time>
      </trkpt>
      <trkpt lat="49.43565" lon="-1.20168">
        <ele>2</ele>
        <time>2022-04-25T22:29:43Z</time>
      </trkpt>
      <trkpt lat="49.43556" lon="-1.20159">
        <ele>2</ele>
        <time>2022-04-25T22:29:45Z</time>
      </trkpt>
      <trkpt lat="49.43539" lon="-1.20138">
        <ele>2</ele>
        <time>2022-04-25T22:29:48Z</time>
      </trkpt>
      <trkpt lat="49.43525" lon="-1.20115">
        <ele>2</ele>
        <time>2022-04-25T22:29:52Z</time>
      </trkpt>
      <trkpt lat="49.43513" lon="-1.20088">
        <ele>2</ele>
        <time>2022-04-25T22:29:56Z</time>
      </trkpt>
      <trkpt lat="49.43496" lon="-1.20039">
        <ele>2</ele>
        <time>2022-04-25T22:30:02Z</time>
      </trkpt>
      <trkpt lat="49.43477" lon="-1.19991">
        <ele>2</ele>
        <time>2022-04-25T22:30:09Z</time>
      </trkpt>
      <trkpt lat="49.43461" lon="-1.19958">
        <ele>2</ele>
        <time>2022-04-25T22:30:14Z</time>
      </trkpt>
      <trkpt lat="49.43442" lon="-1.19927">
        <ele>1</ele>
        <time>2022-04-25T22:30:18Z</time>
      </trkpt>
      <trkpt lat="49.43421" lon="-1.19898">
        <ele>1</ele>
        <time>2022-04-25T22:30:23Z</time>
      </trkpt>
      <trkpt lat="49.43373" lon="-1.19839">
        <ele>1</ele>
        <time>2022-04-25T22:30:34Z</time>
      </trkpt>
      <trkpt lat="49.43354" lon="-1.1982">
        <ele>1</ele>
        <time>2022-04-25T22:30:38Z</time>
      </trkpt>
      <trkpt lat="49.43316" lon="-1.19795">
        <ele>2</ele>
        <time>2022-04-25T22:30:46Z</time>
      </trkpt>
      <trkpt lat="49.43262" lon="-1.19766">
        <ele>3</ele>
        <time>2022-04-25T22:30:56Z</time>
      </trkpt>
      <trkpt lat="49.43243" lon="-1.19753">
        <ele>3</ele>
        <time>2022-04-25T22:31:00Z</time>
      </trkpt>
      <trkpt lat="49.43226" lon="-1.19738">
        <ele>3</ele>
        <time>2022-04-25T22:31:03Z</time>
      </trkpt>
      <trkpt lat="49.43202" lon="-1.19712">
        <ele>2</ele>
        <time>2022-04-25T22:31:08Z</time>
      </trkpt>
      <trkpt lat="49.42975" lon="-1.19434">
        <ele>2</ele>
        <time>2022-04-25T22:32:00Z</time>
      </trkpt>
      <trkpt lat="49.42954" lon="-1.19397">
        <ele>2</ele>
        <time>2022-04-25T22:32:06Z</time>
      </trkpt>
      <trkpt lat="49.42947" lon="-1.19381">
        <ele>2</ele>
        <time>2022-04-25T22:32:08Z</time>
      </trkpt>
      <trkpt lat="49.42939" lon="-1.19355">
        <ele>2</ele>
        <time>2022-04-25T22:32:11Z</time>
      </trkpt>
      <trkpt lat="49.42865" lon="-1.18986">
        <ele>2</ele>
        <time>2022-04-25T22:32:56Z</time>
      </trkpt>
      <trkpt lat="49.42856" lon="-1.18955">
        <ele>3</ele>
        <time>2022-04-25T22:33:00Z</time>
      </trkpt>
      <trkpt lat="49.42844" lon="-1.18926">
        <ele>3</ele>
        <time>2022-04-25T22:33:04Z</time>
      </trkpt>
      <trkpt lat="49.42811" lon="-1.18869">
        <ele>3</ele>
        <time>2022-04-25T22:33:13Z</time>
      </trkpt>
      <trkpt lat="49.42794" lon="-1.18848">
        <ele>3</ele>
        <time>2022-04-25T22:33:17Z</time>
      </trkpt>
      <trkpt lat="49.42593" lon="-1.18642">
        <ele>3</ele>
        <time>2022-04-25T22:34:00Z</time>
      </trkpt>
      <trkpt lat="49.42295" lon="-1.18318">
        <ele>3</ele>
        <time>2022-04-25T22:35:05Z</time>
      </trkpt>
      <trkpt lat="49.42168" lon="-1.18204">
        <ele>3</ele>
        <time>2022-04-25T22:35:31Z</time>
      </trkpt>
      <trkpt lat="49.42148" lon="-1.18183">
        <ele>3</ele>
        <time>2022-04-25T22:35:35Z</time>
      </trkpt>
      <trkpt lat="49.42046" lon="-1.18047">
        <ele>3</ele>
        <time>2022-04-25T22:35:59Z</time>
      </trkpt>
      <trkpt lat="49.42012" lon="-1.18006">
        <ele>4</ele>
        <time>2022-04-25T22:36:07Z</time>
      </trkpt>
      <trkpt lat="49.41895" lon="-1.17892">
        <ele>4</ele>
        <time>2022-04-25T22:36:31Z</time>
      </trkpt>
      <trkpt lat="49.4167" lon="-1.1768">
        <ele>4</ele>
        <time>2022-04-25T22:37:18Z</time>
      </trkpt>
      <trkpt lat="49.41657" lon="-1.17676">
        <ele>4</ele>
        <time>2022-04-25T22:37:21Z</time>
      </trkpt>
      <trkpt lat="49.41645" lon="-1.17683">
        <ele>3</ele>
        <time>2022-04-25T22:37:23Z</time>
      </trkpt>
      <trkpt lat="49.41639" lon="-1.17692">
        <ele>3</ele>
        <time>2022-04-25T22:37:24Z</time>
      </trkpt>
      <trkpt lat="49.41614" lon="-1.17753">
        <ele>3</ele>
        <time>2022-04-25T22:37:33Z</time>
      </trkpt>
      <trkpt lat="49.41603" lon="-1.17761">
        <ele>3</ele>
        <time>2022-04-25T22:37:35Z</time>
      </trkpt>
      <trkpt lat="49.41598" lon="-1.17762">
        <ele>3</ele>
        <time>2022-04-25T22:37:36Z</time>
      </trkpt>
      <trkpt lat="49.41587" lon="-1.17757">
        <ele>3</ele>
        <time>2022-04-25T22:37:38Z</time>
      </trkpt>
      <trkpt lat="49.41509" lon="-1.17688">
        <ele>2</ele>
        <time>2022-04-25T22:37:54Z</time>
      </trkpt>
      <trkpt lat="49.41485" lon="-1.17665">
        <ele>2</ele>
        <time>2022-04-25T22:37:59Z</time>
      </trkpt>
      <trkpt lat="49.41477" lon="-1.17655">
        <ele>2</ele>
        <time>2022-04-25T22:38:01Z</time>
      </trkpt>
      <trkpt lat="49.4147" lon="-1.17637">
        <ele>2</ele>
        <time>2022-04-25T22:38:03Z</time>
      </trkpt>
      <trkpt lat="49.41464" lon="-1.17627">
        <ele>2</ele>
        <time>2022-04-25T22:38:05Z</time>
      </trkpt>
      <trkpt lat="49.41419" lon="-1.17597">
        <ele>2</ele>
        <time>2022-04-25T22:38:13Z</time>
      </trkpt>
      <trkpt lat="49.41412" lon="-1.17583">
        <ele>2</ele>
        <time>2022-04-25T22:38:16Z</time>
      </trkpt>
      <trkpt lat="49.41408" lon="-1.17572">
        <ele>2</ele>
        <time>2022-04-25T22:38:17Z</time>
      </trkpt>
      <trkpt lat="49.41406" lon="-1.17556">
        <ele>2</ele>
        <time>2022-04-25T22:38:19Z</time>
      </trkpt>
      <trkpt lat="49.41407" lon="-1.17539">
        <ele>2</ele>
        <time>2022-04-25T22:38:21Z</time>
      </trkpt>
      <trkpt lat="49.4141" lon="-1.17526">
        <ele>2</ele>
        <time>2022-04-25T22:38:22Z</time>
      </trkpt>
      <trkpt lat="49.41434" lon="-1.17457">
        <ele>3</ele>
        <time>2022-04-25T22:38:32Z</time>
      </trkpt>
      <trkpt lat="49.41433" lon="-1.17445">
        <ele>3</ele>
        <time>2022-04-25T22:38:33Z</time>
      </trkpt>
      <trkpt lat="49.41423" lon="-1.17434">
        <ele>3</ele>
        <time>2022-04-25T22:38:35Z</time>
      </trkpt>
      <trkpt lat="49.41311" lon="-1.17355">
        <ele>4</ele>
        <time>2022-04-25T22:38:57Z</time>
      </trkpt>
      <trkpt lat="49.41295" lon="-1.17345">
        <ele>4</ele>
        <time>2022-04-25T22:39:00Z</time>
      </trkpt>
      <trkpt lat="49.41275" lon="-1.17343">
        <ele>4</ele>
        <time>2022-04-25T22:39:04Z</time>
      </trkpt>
      <trkpt lat="49.41189" lon="-1.17353">
        <ele>4</ele>
        <time>2022-04-25T22:39:19Z</time>
      </trkpt>
      <trkpt lat="49.41109" lon="-1.17367">
        <ele>4</ele>
        <time>2022-04-25T22:39:33Z</time>
      </trkpt>
      <trkpt lat="49.40884" lon="-1.17396">
        <ele>3</ele>
        <time>2022-04-25T22:40:14Z</time>
      </trkpt>
      <trkpt lat="49.40799" lon="-1.1741">
        <ele>3</ele>
        <time>2022-04-25T22:40:29Z</time>
      </trkpt>
      <trkpt lat="49.40219" lon="-1.17407">
        <ele>4</ele>
        <time>2022-04-25T22:42:12Z</time>
      </trkpt>
      <trkpt lat="49.4014" lon="-1.17415">
        <ele>5</ele>
        <time>2022-04-25T22:42:26Z</time>
      </trkpt>
      <trkpt lat="49.40044" lon="-1.17453">
        <ele>5</ele>
        <time>2022-04-25T22:42:44Z</time>
      </trkpt>
      <trkpt lat="49.39821" lon="-1.17524">
        <ele>3</ele>
        <time>2022-04-25T22:43:24Z</time>
      </trkpt>
      <trkpt lat="49.39558" lon="-1.17581">
        <ele>5</ele>
        <time>2022-04-25T22:44:11Z</time>
      </trkpt>
      <trkpt lat="49.39446" lon="-1.17582">
        <ele>4</ele>
        <time>2022-04-25T22:44:31Z</time>
      </trkpt>
      <trkpt lat="49.3931" lon="-1.17578">
        <ele>3</ele>
        <time>2022-04-25T22:44:56Z</time>
      </trkpt>
      <trkpt lat="49.39196" lon="-1.17579">
        <ele>4</ele>
        <time>2022-04-25T22:45:16Z</time>
      </trkpt>
      <trkpt lat="49.39105" lon="-1.17594">
        <ele>3</ele>
        <time>2022-04-25T22:45:32Z</time>
      </trkpt>
      <trkpt lat="49.39047" lon="-1.17617">
        <ele>2</ele>
        <time>2022-04-25T22:45:43Z</time>
      </trkpt>
      <trkpt lat="49.39028" lon="-1.17626">
        <ele>2</ele>
        <time>2022-04-25T22:45:46Z</time>
      </trkpt>
      <trkpt lat="49.39023" lon="-1.17632">
        <ele>2</ele>
        <time>2022-04-25T22:45:47Z</time>
      </trkpt>
      <trkpt lat="49.38971" lon="-1.17919">
        <ele>4</ele>
        <time>2022-04-25T22:46:22Z</time>
      </trkpt>
      <trkpt lat="49.38937" lon="-1.18089">
        <ele>3</ele>
        <time>2022-04-25T22:46:43Z</time>
      </trkpt>
      <trkpt lat="49.38903" lon="-1.18227">
        <ele>2</ele>
        <time>2022-04-25T22:47:00Z</time>
      </trkpt>
      <trkpt lat="49.38893" lon="-1.18263">
        <ele>2</ele>
        <time>2022-04-25T22:47:04Z</time>
      </trkpt>
      <trkpt lat="49.38879" lon="-1.18294">
        <ele>2</ele>
        <time>2022-04-25T22:47:09Z</time>
      </trkpt>
      <trkpt lat="49.38872" lon="-1.18308">
        <ele>2</ele>
        <time>2022-04-25T22:47:11Z</time>
      </trkpt>
      <trkpt lat="49.38855" lon="-1.18331">
        <ele>2</ele>
        <time>2022-04-25T22:47:15Z</time>
      </trkpt>
      <trkpt lat="49.38828" lon="-1.18359">
        <ele>2</ele>
        <time>2022-04-25T22:47:20Z</time>
      </trkpt>
      <trkpt lat="49.38815" lon="-1.18385">
        <ele>2</ele>
        <time>2022-04-25T22:47:24Z</time>
      </trkpt>
      <trkpt lat="49.3881" lon="-1.18396">
        <ele>2</ele>
        <time>2022-04-25T22:47:26Z</time>
      </trkpt>
      <trkpt lat="49.38767" lon="-1.18516">
        <ele>1</ele>
        <time>2022-04-25T22:47:42Z</time>
      </trkpt>
      <trkpt lat="49.38747" lon="-1.18566">
        <ele>2</ele>
        <time>2022-04-25T22:47:48Z</time>
      </trkpt>
      <trkpt lat="49.38689" lon="-1.18682">
        <ele>2</ele>
        <time>2022-04-25T22:48:05Z</time>
      </trkpt>
      <trkpt lat="49.3866" lon="-1.18737">
        <ele>2</ele>
        <time>2022-04-25T22:48:14Z</time>
      </trkpt>
      <trkpt lat="49.38636" lon="-1.18778">
        <ele>2</ele>
        <time>2022-04-25T22:48:20Z</time>
      </trkpt>
      <trkpt lat="49.38548" lon="-1.18936">
        <ele>4</ele>
        <time>2022-04-25T22:48:44Z</time>
      </trkpt>
      <trkpt lat="49.38498" lon="-1.19019">
        <ele>5</ele>
        <time>2022-04-25T22:48:57Z</time>
      </trkpt>
      <trkpt lat="49.38452" lon="-1.19085">
        <ele>7</ele>
        <time>2022-04-25T22:49:08Z</time>
      </trkpt>
      <trkpt lat="49.38399" lon="-1.19187">
        <ele>11</ele>
        <time>2022-04-25T22:49:23Z</time>
      </trkpt>
      <trkpt lat="49.38381" lon="-1.19217">
        <ele>11</ele>
        <time>2022-04-25T22:49:28Z</time>
      </trkpt>
      <trkpt lat="49.38369" lon="-1.19243">
        <ele>12</ele>
        <time>2022-04-25T22:49:32Z</time>
      </trkpt>
      <trkpt lat="49.38336" lon="-1.19337">
        <ele>13</ele>
        <time>2022-04-25T22:49:44Z</time>
      </trkpt>
      <trkpt lat="49.3832" lon="-1.19374">
        <ele>13</ele>
        <time>2022-04-25T22:49:49Z</time>
      </trkpt>
      <trkpt lat="49.38302" lon="-1.19407">
        <ele>14</ele>
        <time>2022-04-25T22:49:54Z</time>
      </trkpt>
      <trkpt lat="49.38224" lon="-1.19532">
        <ele>16</ele>
        <time>2022-04-25T22:50:14Z</time>
      </trkpt>
      <trkpt lat="49.38203" lon="-1.19573">
        <ele>17</ele>
        <time>2022-04-25T22:50:20Z</time>
      </trkpt>
      <trkpt lat="49.38189" lon="-1.19614">
        <ele>17</ele>
        <time>2022-04-25T22:50:26Z</time>
      </trkpt>
      <trkpt lat="49.38151" lon="-1.19749">
        <ele>15</ele>
        <time>2022-04-25T22:50:43Z</time>
      </trkpt>
      <trkpt lat="49.38139" lon="-1.19783">
        <ele>15</ele>
        <time>2022-04-25T22:50:47Z</time>
      </trkpt>
      <trkpt lat="49.38108" lon="-1.19856">
        <ele>16</ele>
        <time>2022-04-25T22:50:57Z</time>
      </trkpt>
      <trkpt lat="49.38049" lon="-1.19986">
        <ele>16</ele>
        <time>2022-04-25T22:51:16Z</time>
      </trkpt>
      <trkpt lat="49.38041" lon="-1.19961">
        <ele>16</ele>
        <time>2022-04-25T22:51:19Z</time>
      </trkpt>
      <trkpt lat="49.37992" lon="-1.19774">
        <ele>16</ele>
        <time>2022-04-25T22:51:42Z</time>
      </trkpt>
      <trkpt lat="49.37956" lon="-1.1969">
        <ele>14</ele>
        <time>2022-04-25T22:51:54Z</time>
      </trkpt>
      <trkpt lat="49.37904" lon="-1.19592">
        <ele>13</ele>
        <time>2022-04-25T22:52:09Z</time>
      </trkpt>
      <trkpt lat="49.37703" lon="-1.19195">
        <ele>6</ele>
        <time>2022-04-25T22:53:07Z</time>
      </trkpt>
      <trkpt lat="49.37647" lon="-1.19071">
        <ele>6</ele>
        <time>2022-04-25T22:53:24Z</time>
      </trkpt>
      <trkpt lat="49.37627" lon="-1.19021">
        <ele>6</ele>
        <time>2022-04-25T22:53:31Z</time>
      </trkpt>
      <trkpt lat="49.37606" lon="-1.18976">
        <ele>6</ele>
        <time>2022-04-25T22:53:38Z</time>
      </trkpt>
      <trkpt lat="49.37555" lon="-1.18876">
        <ele>6</ele>
        <time>2022-04-25T22:53:52Z</time>
      </trkpt>
      <trkpt lat="49.37483" lon="-1.18688">
        <ele>6</ele>
        <time>2022-04-25T22:54:18Z</time>
      </trkpt>
      <trkpt lat="49.37423" lon="-1.18598">
        <ele>4</ele>
        <time>2022-04-25T22:54:33Z</time>
      </trkpt>
      <trkpt lat="49.37347" lon="-1.18421">
        <ele>5</ele>
        <time>2022-04-25T22:54:57Z</time>
      </trkpt>
      <trkpt lat="49.37319" lon="-1.18372">
        <ele>6</ele>
        <time>2022-04-25T22:55:05Z</time>
      </trkpt>
      <trkpt lat="49.37234" lon="-1.18249">
        <ele>7</ele>
        <time>2022-04-25T22:55:25Z</time>
      </trkpt>
      <trkpt lat="49.37174" lon="-1.18138">
        <ele>6</ele>
        <time>2022-04-25T22:55:42Z</time>
      </trkpt>
      <trkpt lat="49.37162" lon="-1.18121">
        <ele>6</ele>
        <time>2022-04-25T22:55:45Z</time>
      </trkpt>
      <trkpt lat="49.3715" lon="-1.18108">
        <ele>6</ele>
        <time>2022-04-25T22:55:48Z</time>
      </trkpt>
      <trkpt lat="49.37087" lon="-1.18056">
        <ele>5</ele>
        <time>2022-04-25T22:56:00Z</time>
      </trkpt>
      <trkpt lat="49.3707" lon="-1.18038">
        <ele>5</ele>
        <time>2022-04-25T22:56:04Z</time>
      </trkpt>
      <trkpt lat="49.37044" lon="-1.18006">
        <ele>5</ele>
        <time>2022-04-25T22:56:10Z</time>
      </trkpt>
      <trkpt lat="49.36969" lon="-1.17893">
        <ele>6</ele>
        <time>2022-04-25T22:56:29Z</time>
      </trkpt>
      <trkpt lat="49.36894" lon="-1.17795">
        <ele>6</ele>
        <time>2022-04-25T22:56:46Z</time>
      </trkpt>
      <trkpt lat="49.3684" lon="-1.17733">
        <ele>4</ele>
        <time>2022-04-25T22:56:58Z</time>
      </trkpt>
      <trkpt lat="49.36816" lon="-1.17711">
        <ele>4</ele>
        <time>2022-04-25T22:57:03Z</time>
      </trkpt>
      <trkpt lat="49.36799" lon="-1.17702">
        <ele>4</ele>
        <time>2022-04-25T22:57:06Z</time>
      </trkpt>
      <trkpt lat="49.36747" lon="-1.17691">
        <ele>4</ele>
        <time>2022-04-25T22:57:16Z</time>
      </trkpt>
      <trkpt lat="49.36729" lon="-1.17684">
        <ele>4</ele>
        <time>2022-04-25T22:57:19Z</time>
      </trkpt>
      <trkpt lat="49.36698" lon="-1.17668">
        <ele>4</ele>
        <time>2022-04-25T22:57:25Z</time>
      </trkpt>
      <trkpt lat="49.36692" lon="-1.17669">
        <ele>4</ele>
        <time>2022-04-25T22:57:26Z</time>
      </trkpt>
      <trkpt lat="49.36593" lon="-1.17716">
        <ele>3</ele>
        <time>2022-04-25T22:57:44Z</time>
      </trkpt>
      <trkpt lat="49.36554" lon="-1.1774">
        <ele>4</ele>
        <time>2022-04-25T22:57:52Z</time>
      </trkpt>
      <trkpt lat="49.36535" lon="-1.17764">
        <ele>4</ele>
        <time>2022-04-25T22:57:56Z</time>
      </trkpt>
      <trkpt lat="49.36525" lon="-1.17803">
        <ele>4</ele>
        <time>2022-04-25T22:58:01Z</time>
      </trkpt>
      <trkpt lat="49.36518" lon="-1.17908">
        <ele>2</ele>
        <time>2022-04-25T22:58:13Z</time>
      </trkpt>
      <trkpt lat="49.36515" lon="-1.17999">
        <ele>2</ele>
        <time>2022-04-25T22:58:24Z</time>
      </trkpt>
      <trkpt lat="49.36513" lon="-1.18017">
        <ele>2</ele>
        <time>2022-04-25T22:58:26Z</time>
      </trkpt>
      <trkpt lat="49.36509" lon="-1.18033">
        <ele>2</ele>
        <time>2022-04-25T22:58:28Z</time>
      </trkpt>
      <trkpt lat="49.36499" lon="-1.18066">
        <ele>2</ele>
        <time>2022-04-25T22:58:32Z</time>
      </trkpt>
      <trkpt lat="49.36451" lon="-1.18171">
        <ele>2</ele>
        <time>2022-04-25T22:58:47Z</time>
      </trkpt>
      <trkpt lat="49.36445" lon="-1.1819">
        <ele>2</ele>
        <time>2022-04-25T22:58:49Z</time>
      </trkpt>
      <trkpt lat="49.36441" lon="-1.1821">
        <ele>2</ele>
        <time>2022-04-25T22:58:52Z</time>
      </trkpt>
      <trkpt lat="49.3644" lon="-1.18232">
        <ele>2</ele>
        <time>2022-04-25T22:58:54Z</time>
      </trkpt>
      <trkpt lat="49.36441" lon="-1.18253">
        <ele>2</ele>
        <time>2022-04-25T22:58:57Z</time>
      </trkpt>
      <trkpt lat="49.36444" lon="-1.18263">
        <ele>2</ele>
        <time>2022-04-25T22:58:58Z</time>
      </trkpt>
      <trkpt lat="49.36445" lon="-1.18282">
        <ele>2</ele>
        <time>2022-04-25T22:59:00Z</time>
      </trkpt>
      <trkpt lat="49.3646" lon="-1.1834">
        <ele>1</ele>
        <time>2022-04-25T22:59:08Z</time>
      </trkpt>
      <trkpt lat="49.36468" lon="-1.18379">
        <ele>2</ele>
        <time>2022-04-25T22:59:12Z</time>
      </trkpt>
      <trkpt lat="49.36492" lon="-1.18568">
        <ele>1</ele>
        <time>2022-04-25T22:59:35Z</time>
      </trkpt>
      <trkpt lat="49.36493" lon="-1.18588">
        <ele>1</ele>
        <time>2022-04-25T22:59:37Z</time>
      </trkpt>
      <trkpt lat="49.36492" lon="-1.18608">
        <ele>1</ele>
        <time>2022-04-25T22:59:39Z</time>
      </trkpt>
      <trkpt lat="49.36467" lon="-1.18693">
        <ele>1</ele>
        <time>2022-04-25T22:59:50Z</time>
      </trkpt>
      <trkpt lat="49.36463" lon="-1.18728">
        <ele>1</ele>
        <time>2022-04-25T22:59:54Z</time>
      </trkpt>
      <trkpt lat="49.36458" lon="-1.18824">
        <ele>1</ele>
        <time>2022-04-25T23:00:05Z</time>
      </trkpt>
      <trkpt lat="49.36454" lon="-1.18856">
        <ele>2</ele>
        <time>2022-04-25T23:00:09Z</time>
      </trkpt>
      <trkpt lat="49.36445" lon="-1.18892">
        <ele>2</ele>
        <time>2022-04-25T23:00:14Z</time>
      </trkpt>
      <trkpt lat="49.36428" lon="-1.18931">
        <ele>3</ele>
        <time>2022-04-25T23:00:19Z</time>
      </trkpt>
      <trkpt lat="49.36416" lon="-1.18954">
        <ele>3</ele>
        <time>2022-04-25T23:00:22Z</time>
      </trkpt>
      <trkpt lat="49.36375" lon="-1.19011">
        <ele>3</ele>
        <time>2022-04-25T23:00:32Z</time>
      </trkpt>
      <trkpt lat="49.36184" lon="-1.19298">
        <ele>4</ele>
        <time>2022-04-25T23:01:20Z</time>
      </trkpt>
      <trkpt lat="49.36174" lon="-1.19318">
        <ele>4</ele>
        <time>2022-04-25T23:01:23Z</time>
      </trkpt>
      <trkpt lat="49.36171" lon="-1.1933">
        <ele>4</ele>
        <time>2022-04-25T23:01:24Z</time>
      </trkpt>
      <trkpt lat="49.3617" lon="-1.19344">
        <ele>4</ele>
        <time>2022-04-25T23:01:26Z</time>
      </trkpt>
      <trkpt lat="49.36176" lon="-1.19413">
        <ele>4</ele>
        <time>2022-04-25T23:01:34Z</time>
      </trkpt>
      <trkpt lat="49.36173" lon="-1.19442">
        <ele>4</ele>
        <time>2022-04-25T23:01:37Z</time>
      </trkpt>
      <trkpt lat="49.36163" lon="-1.19504">
        <ele>4</ele>
        <time>2022-04-25T23:01:45Z</time>
      </trkpt>
      <trkpt lat="49.36135" lon="-1.19565">
        <ele>4</ele>
        <time>2022-04-25T23:01:53Z</time>
      </trkpt>
      <trkpt lat="49.36114" lon="-1.19593">
        <ele>4</ele>
        <time>2022-04-25T23:01:58Z</time>
      </trkpt>
      <trkpt lat="49.36072" lon="-1.19636">
        <ele>3</ele>
        <time>2022-04-25T23:02:07Z</time>
      </trkpt>
      <trkpt lat="49.36053" lon="-1.19659">
        <ele>3</ele>
        <time>2022-04-25T23:02:12Z</time>
      </trkpt>
      <trkpt lat="49.36003" lon="-1.19698">
        <ele>2</ele>
        <time>2022-04-25T23:02:22Z</time>
      </trkpt>
      <trkpt lat="49.35979" lon="-1.1972">
        <ele>2</ele>
        <time>2022-04-25T23:02:27Z</time>
      </trkpt>
      <trkpt lat="49.35967" lon="-1.19735">
        <ele>2</ele>
        <time>2022-04-25T23:02:29Z</time>
      </trkpt>
      <trkpt lat="49.35955" lon="-1.1974">
        <ele>2</ele>
        <time>2022-04-25T23:02:32Z</time>
      </trkpt>
      <trkpt lat="49.35927" lon="-1.19744">
        <ele>2</ele>
        <time>2022-04-25T23:02:37Z</time>
      </trkpt>
      <trkpt lat="49.35876" lon="-1.19757">
        <ele>2</ele>
        <time>2022-04-25T23:02:46Z</time>
      </trkpt>
      <trkpt lat="49.35848" lon="-1.19768">
        <ele>1</ele>
        <time>2022-04-25T23:02:51Z</time>
      </trkpt>
      <trkpt lat="49.35834" lon="-1.19783">
        <ele>1</ele>
        <time>2022-04-25T23:02:54Z</time>
      </trkpt>
      <trkpt lat="49.35737" lon="-1.19944">
        <ele>1</ele>
        <time>2022-04-25T23:03:19Z</time>
      </trkpt>
      <trkpt lat="49.35708" lon="-1.20005">
        <ele>1</ele>
        <time>2022-04-25T23:03:28Z</time>
      </trkpt>
      <trkpt lat="49.35694" lon="-1.20046">
        <ele>1</ele>
        <time>2022-04-25T23:03:34Z</time>
      </trkpt>
      <trkpt lat="49.35687" lon="-1.20085">
        <ele>1</ele>
        <time>2022-04-25T23:03:38Z</time>
      </trkpt>
      <trkpt lat="49.35675" lon="-1.20119">
        <ele>1</ele>
        <time>2022-04-25T23:03:43Z</time>
      </trkpt>
      <trkpt lat="49.35644" lon="-1.20158">
        <ele>1</ele>
        <time>2022-04-25T23:03:50Z</time>
      </trkpt>
      <trkpt lat="49.35617" lon="-1.202">
        <ele>1</ele>
        <time>2022-04-25T23:03:57Z</time>
      </trkpt>
      <trkpt lat="49.35474" lon="-1.20346">
        <ele>1</ele>
        <time>2022-04-25T23:04:27Z</time>
      </trkpt>
      <trkpt lat="49.35318" lon="-1.20496">
        <ele>2</ele>
        <time>2022-04-25T23:05:00Z</time>
      </trkpt>
      <trkpt lat="49.35208" lon="-1.20579">
        <ele>3</ele>
        <time>2022-04-25T23:05:22Z</time>
      </trkpt>
      <trkpt lat="49.35158" lon="-1.20593">
        <ele>3</ele>
        <time>2022-04-25T23:05:31Z</time>
      </trkpt>
      <trkpt lat="49.35061" lon="-1.20648">
        <ele>2</ele>
        <time>2022-04-25T23:05:49Z</time>
      </trkpt>
      <trkpt lat="49.3494" lon="-1.20744">
        <ele>2</ele>
        <time>2022-04-25T23:06:13Z</time>
      </trkpt>
      <trkpt lat="49.34915" lon="-1.20758">
        <ele>2</ele>
        <time>2022-04-25T23:06:18Z</time>
      </trkpt>
      <trkpt lat="49.34877" lon="-1.20764">
        <ele>1</ele>
        <time>2022-04-25T23:06:25Z</time>
      </trkpt>
      <trkpt lat="49.34816" lon="-1.20797">
        <ele>1</ele>
        <time>2022-04-25T23:06:36Z</time>
      </trkpt>
      <trkpt lat="49.34759" lon="-1.20818">
        <ele>2</ele>
        <time>2022-04-25T23:06:47Z</time>
      </trkpt>
      <trkpt lat="49.34735" lon="-1.20839">
        <ele>2</ele>
        <time>2022-04-25T23:06:52Z</time>
      </trkpt>
      <trkpt lat="49.3466" lon="-1.20929">
        <ele>2</ele>
        <time>2022-04-25T23:07:09Z</time>
      </trkpt>
      <trkpt lat="49.3462" lon="-1.20995">
        <ele>2</ele>
        <time>2022-04-25T23:07:19Z</time>
      </trkpt>
      <trkpt lat="49.34561" lon="-1.211">
        <ele>1</ele>
        <time>2022-04-25T23:07:35Z</time>
      </trkpt>
      <trkpt lat="49.34516" lon="-1.21176">
        <ele>1</ele>
        <time>2022-04-25T23:07:47Z</time>
      </trkpt>
      <trkpt lat="49.34474" lon="-1.21197">
        <ele>1</ele>
        <time>2022-04-25T23:07:55Z</time>
      </trkpt>
      <trkpt lat="49.34223" lon="-1.21468">
        <ele>2</ele>
        <time>2022-04-25T23:08:50Z</time>
      </trkpt>
      <trkpt lat="49.34194" lon="-1.21502">
        <ele>2</ele>
        <time>2022-04-25T23:08:56Z</time>
      </trkpt>
      <trkpt lat="49.34156" lon="-1.21525">
        <ele>2</ele>
        <time>2022-04-25T23:09:03Z</time>
      </trkpt>
      <trkpt lat="49.33965" lon="-1.21607">
        <ele>1</ele>
        <time>2022-04-25T23:09:39Z</time>
      </trkpt>
      <trkpt lat="49.33904" lon="-1.21666">
        <ele>1</ele>
        <time>2022-04-25T23:09:52Z</time>
      </trkpt>
      <trkpt lat="49.3389" lon="-1.21687">
        <ele>1</ele>
        <time>2022-04-25T23:09:55Z</time>
      </trkpt>
      <trkpt lat="49.33881" lon="-1.21731">
        <ele>1</ele>
        <time>2022-04-25T23:10:00Z</time>
      </trkpt>
      <trkpt lat="49.33877" lon="-1.21782">
        <ele>1</ele>
        <time>2022-04-25T23:10:06Z</time>
      </trkpt>
      <trkpt lat="49.33871" lon="-1.21815">
        <ele>1</ele>
        <time>2022-04-25T23:10:10Z</time>
      </trkpt>
      <trkpt lat="49.33862" lon="-1.21847">
        <ele>1</ele>
        <time>2022-04-25T23:10:14Z</time>
      </trkpt>
      <trkpt lat="49.33836" lon="-1.21885">
        <ele>1</ele>
        <time>2022-04-25T23:10:21Z</time>
      </trkpt>
      <trkpt lat="49.33637" lon="-1.22082">
        <ele>1</ele>
        <time>2022-04-25T23:11:03Z</time>
      </trkpt>
      <trkpt lat="49.33581" lon="-1.22112">
        <ele>1</ele>
        <time>2022-04-25T23:11:13Z</time>
      </trkpt>
      <trkpt lat="49.33477" lon="-1.22153">
        <ele>1</ele>
        <time>2022-04-25T23:11:33Z</time>
      </trkpt>
      <trkpt lat="49.33444" lon="-1.22156">
        <ele>1</ele>
        <time>2022-04-25T23:11:38Z</time>
      </trkpt>
      <trkpt lat="49.33315" lon="-1.22138">
        <ele>3</ele>
        <time>2022-04-25T23:12:01Z</time>
      </trkpt>
      <trkpt lat="49.33175" lon="-1.22175">
        <ele>1</ele>
        <time>2022-04-25T23:12:27Z</time>
      </trkpt>
      <trkpt lat="49.33094" lon="-1.22189">
        <ele>2</ele>
        <time>2022-04-25T23:12:41Z</time>
      </trkpt>
      <trkpt lat="49.33065" lon="-1.222">
        <ele>2</ele>
        <time>2022-04-25T23:12:47Z</time>
      </trkpt>
      <trkpt lat="49.33012" lon="-1.22233">
        <ele>2</ele>
        <time>2022-04-25T23:12:57Z</time>
      </trkpt>
      <trkpt lat="49.32961" lon="-1.22272">
        <ele>2</ele>
        <time>2022-04-25T23:13:07Z</time>
      </trkpt>
      <trkpt lat="49.32943" lon="-1.22299">
        <ele>1</ele>
        <time>2022-04-25T23:13:11Z</time>
      </trkpt>
      <trkpt lat="49.32935" lon="-1.22325">
        <ele>1</ele>
        <time>2022-04-25T23:13:15Z</time>
      </trkpt>
      <trkpt lat="49.32934" lon="-1.22373">
        <ele>1</ele>
        <time>2022-04-25T23:13:20Z</time>
      </trkpt>
      <trkpt lat="49.32927" lon="-1.22456">
        <ele>1</ele>
        <time>2022-04-25T23:13:30Z</time>
      </trkpt>
      <trkpt lat="49.32915" lon="-1.22514">
        <ele>1</ele>
        <time>2022-04-25T23:13:37Z</time>
      </trkpt>
      <trkpt lat="49.32902" lon="-1.22557">
        <ele>1</ele>
        <time>2022-04-25T23:13:43Z</time>
      </trkpt>
      <trkpt lat="49.32897" lon="-1.22598">
        <ele>1</ele>
        <time>2022-04-25T23:13:47Z</time>
      </trkpt>
      <trkpt lat="49.32897" lon="-1.2265">
        <ele>1</ele>
        <time>2022-04-25T23:13:53Z</time>
      </trkpt>
      <trkpt lat="49.32894" lon="-1.22674">
        <ele>1</ele>
        <time>2022-04-25T23:13:56Z</time>
      </trkpt>
      <trkpt lat="49.32889" lon="-1.22692">
        <ele>1</ele>
        <time>2022-04-25T23:13:58Z</time>
      </trkpt>
      <trkpt lat="49.32854" lon="-1.22785">
        <ele>2</ele>
        <time>2022-04-25T23:14:11Z</time>
      </trkpt>
      <trkpt lat="49.3283" lon="-1.22855">
        <ele>2</ele>
        <time>2022-04-25T23:14:20Z</time>
      </trkpt>
      <trkpt lat="49.32788" lon="-1.22925">
        <ele>2</ele>
        <time>2022-04-25T23:14:31Z</time>
      </trkpt>
      <trkpt lat="49.32764" lon="-1.22991">
        <ele>1</ele>
        <time>2022-04-25T23:14:40Z</time>
      </trkpt>
      <trkpt lat="49.32758" lon="-1.23003">
        <ele>1</ele>
        <time>2022-04-25T23:14:42Z</time>
      </trkpt>
      <trkpt lat="49.32738" lon="-1.23029">
        <ele>1</ele>
        <time>2022-04-25T23:14:46Z</time>
      </trkpt>
      <trkpt lat="49.32724" lon="-1.2305">
        <ele>1</ele>
        <time>2022-04-25T23:14:50Z</time>
      </trkpt>
      <trkpt lat="49.32715" lon="-1.23073">
        <ele>1</ele>
        <time>2022-04-25T23:14:53Z</time>
      </trkpt>
      <trkpt lat="49.32678" lon="-1.23181">
        <ele>1</ele>
        <time>2022-04-25T23:15:07Z</time>
      </trkpt>
      <trkpt lat="49.32674" lon="-1.23199">
        <ele>1</ele>
        <time>2022-04-25T23:15:09Z</time>
      </trkpt>
      <trkpt lat="49.32663" lon="-1.23282">
        <ele>1</ele>
        <time>2022-04-25T23:15:19Z</time>
      </trkpt>
      <trkpt lat="49.32652" lon="-1.23344">
        <ele>1</ele>
        <time>2022-04-25T23:15:27Z</time>
      </trkpt>
      <trkpt lat="49.32649" lon="-1.23376">
        <ele>2</ele>
        <time>2022-04-25T23:15:30Z</time>
      </trkpt>
      <trkpt lat="49.32649" lon="-1.23393">
        <ele>2</ele>
        <time>2022-04-25T23:15:32Z</time>
      </trkpt>
      <trkpt lat="49.32652" lon="-1.23409">
        <ele>2</ele>
        <time>2022-04-25T23:15:34Z</time>
      </trkpt>
      <trkpt lat="49.32705" lon="-1.23611">
        <ele>1</ele>
        <time>2022-04-25T23:15:59Z</time>
      </trkpt>
      <trkpt lat="49.32718" lon="-1.23637">
        <ele>1</ele>
        <time>2022-04-25T23:16:03Z</time>
      </trkpt>
      <trkpt lat="49.32724" lon="-1.23642">
        <ele>1</ele>
        <time>2022-04-25T23:16:04Z</time>
      </trkpt>
      <trkpt lat="49.32739" lon="-1.23647">
        <ele>2</ele>
        <time>2022-04-25T23:16:07Z</time>
      </trkpt>
      <trkpt lat="49.3281" lon="-1.2366">
        <ele>1</ele>
        <time>2022-04-25T23:16:20Z</time>
      </trkpt>
      <trkpt lat="49.32827" lon="-1.23677">
        <ele>1</ele>
        <time>2022-04-25T23:16:24Z</time>
      </trkpt>
      <trkpt lat="49.32834" lon="-1.23697">
        <ele>1</ele>
        <time>2022-04-25T23:16:26Z</time>
      </trkpt>
      <trkpt lat="49.3285" lon="-1.2377">
        <ele>1</ele>
        <time>2022-04-25T23:16:35Z</time>
      </trkpt>
      <trkpt lat="49.32865" lon="-1.23813">
        <ele>1</ele>
        <time>2022-04-25T23:16:41Z</time>
      </trkpt>
      <trkpt lat="49.32883" lon="-1.23854">
        <ele>1</ele>
        <time>2022-04-25T23:16:46Z</time>
      </trkpt>
      <trkpt lat="49.32905" lon="-1.23894">
        <ele>2</ele>
        <time>2022-04-25T23:16:53Z</time>
      </trkpt>
      <trkpt lat="49.32911" lon="-1.23909">
        <ele>2</ele>
        <time>2022-04-25T23:16:55Z</time>
      </trkpt>
      <trkpt lat="49.32918" lon="-1.23937">
        <ele>2</ele>
        <time>2022-04-25T23:16:58Z</time>
      </trkpt>
      <trkpt lat="49.3292" lon="-1.2395">
        <ele>2</ele>
        <time>2022-04-25T23:17:00Z</time>
      </trkpt>
      <trkpt lat="49.32919" lon="-1.23962">
        <ele>1</ele>
        <time>2022-04-25T23:17:01Z</time>
      </trkpt>
      <trkpt lat="49.3291" lon="-1.24002">
        <ele>1</ele>
        <time>2022-04-25T23:17:06Z</time>
      </trkpt>
      <trkpt lat="49.32907" lon="-1.24027">
        <ele>1</ele>
        <time>2022-04-25T23:17:09Z</time>
      </trkpt>
      <trkpt lat="49.32913" lon="-1.24069">
        <ele>1</ele>
        <time>2022-04-25T23:17:14Z</time>
      </trkpt>
      <trkpt lat="49.32915" lon="-1.24101">
        <ele>1</ele>
        <time>2022-04-25T23:17:18Z</time>
      </trkpt>
      <trkpt lat="49.32913" lon="-1.24132">
        <ele>2</ele>
        <time>2022-04-25T23:17:21Z</time>
      </trkpt>
      <trkpt lat="49.32909" lon="-1.24151">
        <ele>2</ele>
        <time>2022-04-25T23:17:24Z</time>
      </trkpt>
      <trkpt lat="49.32852" lon="-1.24341">
        <ele>1</ele>
        <time>2022-04-25T23:17:48Z</time>
      </trkpt>
      <trkpt lat="49.32835" lon="-1.24417">
        <ele>3</ele>
        <time>2022-04-25T23:17:57Z</time>
      </trkpt>
      <trkpt lat="49.32789" lon="-1.24582">
        <ele>3</ele>
        <time>2022-04-25T23:18:18Z</time>
      </trkpt>
      <trkpt lat="49.32766" lon="-1.24573">
        <ele>3</ele>
        <time>2022-04-25T23:18:22Z</time>
      </trkpt>
      <trkpt lat="49.32718" lon="-1.24563">
        <ele>3</ele>
        <time>2022-04-25T23:18:31Z</time>
      </trkpt>
      <trkpt lat="49.32611" lon="-1.24545">
        <ele>1</ele>
        <time>2022-04-25T23:18:50Z</time>
      </trkpt>
      <trkpt lat="49.32594" lon="-1.24546">
        <ele>1</ele>
        <time>2022-04-25T23:18:53Z</time>
      </trkpt>
      <trkpt lat="49.32571" lon="-1.24558">
        <ele>1</ele>
        <time>2022-04-25T23:18:57Z</time>
      </trkpt>
      <trkpt lat="49.32563" lon="-1.24558">
        <ele>1</ele>
        <time>2022-04-25T23:18:59Z</time>
      </trkpt>
      <trkpt lat="49.32523" lon="-1.24491">
        <ele>1</ele>
        <time>2022-04-25T23:19:09Z</time>
      </trkpt>
      <trkpt lat="49.32522" lon="-1.24486">
        <ele>1</ele>
        <time>2022-04-25T23:19:10Z</time>
      </trkpt>
      <trkpt lat="49.32543" lon="-1.2446">
        <ele>1</ele>
        <time>2022-04-25T23:19:15Z</time>
      </trkpt>
      <trkpt lat="49.32543" lon="-1.24457">
        <ele>4</ele>
        <time>2022-04-25T23:19:15Z</time>
      </trkpt>
      <trkpt lat="49.32532" lon="-1.24439">
        <ele>3.8</ele>
        <time>2022-04-25T23:19:18Z</time>
      </trkpt>
      <trkpt lat="49.32557" lon="-1.24396">
        <ele>4</ele>
        <time>2022-04-25T23:19:24Z</time>
      </trkpt>
      <trkpt lat="49.32564" lon="-1.24378">
        <ele>3.5</ele>
        <time>2022-04-25T23:19:27Z</time>
      </trkpt>
      <trkpt lat="49.32593" lon="-1.24173">
        <ele>2</ele>
        <time>2022-04-25T23:19:51Z</time>
      </trkpt>
      <trkpt lat="49.32596" lon="-1.24121">
        <ele>1</ele>
        <time>2022-04-25T23:19:57Z</time>
      </trkpt>
      <trkpt lat="49.32596" lon="-1.24075">
        <ele>1</ele>
        <time>2022-04-25T23:20:03Z</time>
      </trkpt>
      <trkpt lat="49.32591" lon="-1.24056">
        <ele>1</ele>
        <time>2022-04-25T23:20:05Z</time>
      </trkpt>
      <trkpt lat="49.32583" lon="-1.24043">
        <ele>1</ele>
        <time>2022-04-25T23:20:07Z</time>
      </trkpt>
      <trkpt lat="49.3256" lon="-1.2403">
        <ele>1</ele>
        <time>2022-04-25T23:20:11Z</time>
      </trkpt>
      <trkpt lat="49.32537" lon="-1.24014">
        <ele>2</ele>
        <time>2022-04-25T23:20:16Z</time>
      </trkpt>
      <trkpt lat="49.32512" lon="-1.23988">
        <ele>2</ele>
        <time>2022-04-25T23:20:21Z</time>
      </trkpt>
      <trkpt lat="49.32473" lon="-1.23926">
        <ele>1</ele>
        <time>2022-04-25T23:20:31Z</time>
      </trkpt>
      <trkpt lat="49.32461" lon="-1.23898">
        <ele>1</ele>
        <time>2022-04-25T23:20:35Z</time>
      </trkpt>
      <trkpt lat="49.32448" lon="-1.2385">
        <ele>1</ele>
        <time>2022-04-25T23:20:41Z</time>
      </trkpt>
      <trkpt lat="49.32441" lon="-1.23834">
        <ele>1</ele>
        <time>2022-04-25T23:20:43Z</time>
      </trkpt>
      <trkpt lat="49.32431" lon="-1.23825">
        <ele>3</ele>
        <time>2022-04-25T23:20:46Z</time>
      </trkpt>
      <trkpt lat="49.32264" lon="-1.23805">
        <ele>1</ele>
        <time>2022-04-25T23:21:15Z</time>
      </trkpt>
      <trkpt lat="49.32242" lon="-1.23805">
        <ele>1</ele>
        <time>2022-04-25T23:21:19Z</time>
      </trkpt>
      <trkpt lat="49.3223" lon="-1.23808">
        <ele>1</ele>
        <time>2022-04-25T23:21:21Z</time>
      </trkpt>
      <trkpt lat="49.32237" lon="-1.23996">
        <ele>1</ele>
        <time>2022-04-25T23:21:43Z</time>
      </trkpt>
      <trkpt lat="49.32236" lon="-1.24011">
        <ele>1</ele>
        <time>2022-04-25T23:21:45Z</time>
      </trkpt>
      <trkpt lat="49.3223" lon="-1.24027">
        <ele>1</ele>
        <time>2022-04-25T23:21:47Z</time>
      </trkpt>
      <trkpt lat="49.32225" lon="-1.24034">
        <ele>1</ele>
        <time>2022-04-25T23:21:48Z</time>
      </trkpt>
      <trkpt lat="49.32112" lon="-1.24186">
        <ele>2</ele>
        <time>2022-04-25T23:22:15Z</time>
      </trkpt>
      <trkpt lat="49.32081" lon="-1.24227">
        <ele>4</ele>
        <time>2022-04-25T23:22:22Z</time>
      </trkpt>
      <trkpt lat="49.32052" lon="-1.24266">
        <ele>4</ele>
        <time>2022-04-25T23:22:29Z</time>
      </trkpt>
      <trkpt lat="49.31928" lon="-1.24434">
        <ele>2</ele>
        <time>2022-04-25T23:22:59Z</time>
      </trkpt>
      <trkpt lat="49.31901" lon="-1.24476">
        <ele>1</ele>
        <time>2022-04-25T23:23:05Z</time>
      </trkpt>
      <trkpt lat="49.31875" lon="-1.24523">
        <ele>2.7</ele>
        <time>2022-04-25T23:23:13Z</time>
      </trkpt>
      <trkpt lat="49.31845" lon="-1.24594">
        <ele>1</ele>
        <time>2022-04-25T23:23:22Z</time>
      </trkpt>
      <trkpt lat="49.3183" lon="-1.24641">
        <ele>2</ele>
        <time>2022-04-25T23:23:29Z</time>
      </trkpt>
      <trkpt lat="49.31816" lon="-1.24696">
        <ele>2</ele>
        <time>2022-04-25T23:23:35Z</time>
      </trkpt>
      <trkpt lat="49.31796" lon="-1.24805">
        <ele>1</ele>
        <time>2022-04-25T23:23:49Z</time>
      </trkpt>
      <trkpt lat="49.31779" lon="-1.24876">
        <ele>1</ele>
        <time>2022-04-25T23:23:57Z</time>
      </trkpt>
      <trkpt lat="49.31632" lon="-1.25394">
        <ele>2</ele>
        <time>2022-04-25T23:25:03Z</time>
      </trkpt>
      <trkpt lat="49.31613" lon="-1.2545">
        <ele>2</ele>
        <time>2022-04-25T23:25:10Z</time>
      </trkpt>
      <trkpt lat="49.31587" lon="-1.25518">
        <ele>1</ele>
        <time>2022-04-25T23:25:19Z</time>
      </trkpt>
      <trkpt lat="49.31557" lon="-1.25581">
        <ele>2</ele>
        <time>2022-04-25T23:25:28Z</time>
      </trkpt>
      <trkpt lat="49.31484" lon="-1.25715">
        <ele>2</ele>
        <time>2022-04-25T23:25:49Z</time>
      </trkpt>
      <trkpt lat="49.31462" lon="-1.25762">
        <ele>1</ele>
        <time>2022-04-25T23:25:55Z</time>
      </trkpt>
      <trkpt lat="49.31451" lon="-1.25794">
        <ele>1</ele>
        <time>2022-04-25T23:25:59Z</time>
      </trkpt>
      <trkpt lat="49.31438" lon="-1.25867">
        <ele>1</ele>
        <time>2022-04-25T23:26:08Z</time>
      </trkpt>
      <trkpt lat="49.31439" lon="-1.25885">
        <ele>1</ele>
        <time>2022-04-25T23:26:10Z</time>
      </trkpt>
      <trkpt lat="49.31445" lon="-1.25904">
        <ele>1</ele>
        <time>2022-04-25T23:26:13Z</time>
      </trkpt>
      <trkpt lat="49.31446" lon="-1.25915">
        <ele>1</ele>
        <time>2022-04-25T23:26:14Z</time>
      </trkpt>
      <trkpt lat="49.31445" lon="-1.25927">
        <ele>1</ele>
        <time>2022-04-25T23:26:15Z</time>
      </trkpt>
      <trkpt lat="49.31442" lon="-1.25939">
        <ele>1</ele>
        <time>2022-04-25T23:26:17Z</time>
      </trkpt>
      <trkpt lat="49.31437" lon="-1.25949">
        <ele>1</ele>
        <time>2022-04-25T23:26:18Z</time>
      </trkpt>
      <trkpt lat="49.3143" lon="-1.25957">
        <ele>1</ele>
        <time>2022-04-25T23:26:20Z</time>
      </trkpt>
      <trkpt lat="49.31422" lon="-1.25961">
        <ele>1</ele>
        <time>2022-04-25T23:26:22Z</time>
      </trkpt>
      <trkpt lat="49.31413" lon="-1.25962">
        <ele>1</ele>
        <time>2022-04-25T23:26:23Z</time>
      </trkpt>
      <trkpt lat="49.31405" lon="-1.2596">
        <ele>1</ele>
        <time>2022-04-25T23:26:25Z</time>
      </trkpt>
      <trkpt lat="49.31397" lon="-1.25954">
        <ele>1</ele>
        <time>2022-04-25T23:26:26Z</time>
      </trkpt>
      <trkpt lat="49.31391" lon="-1.25945">
        <ele>1</ele>
        <time>2022-04-25T23:26:28Z</time>
      </trkpt>
      <trkpt lat="49.31387" lon="-1.25935">
        <ele>1</ele>
        <time>2022-04-25T23:26:29Z</time>
      </trkpt>
      <trkpt lat="49.31384" lon="-1.25913">
        <ele>1</ele>
        <time>2022-04-25T23:26:32Z</time>
      </trkpt>
      <trkpt lat="49.31378" lon="-1.25897">
        <ele>1</ele>
        <time>2022-04-25T23:26:34Z</time>
      </trkpt>
      <trkpt lat="49.31353" lon="-1.25861">
        <ele>2</ele>
        <time>2022-04-25T23:26:40Z</time>
      </trkpt>
      <trkpt lat="49.31252" lon="-1.25767">
        <ele>3</ele>
        <time>2022-04-25T23:27:01Z</time>
      </trkpt>
      <trkpt lat="49.31232" lon="-1.25759">
        <ele>3</ele>
        <time>2022-04-25T23:27:05Z</time>
      </trkpt>
      <trkpt lat="49.31228" lon="-1.25761">
        <ele>3</ele>
        <time>2022-04-25T23:27:05Z</time>
      </trkpt>
      <trkpt lat="49.31223" lon="-1.2576">
        <ele>3</ele>
        <time>2022-04-25T23:27:06Z</time>
      </trkpt>
      <trkpt lat="49.31219" lon="-1.25754">
        <ele>3</ele>
        <time>2022-04-25T23:27:07Z</time>
      </trkpt>
      <trkpt lat="49.31217" lon="-1.25746">
        <ele>3</ele>
        <time>2022-04-25T23:27:08Z</time>
      </trkpt>
      <trkpt lat="49.31203" lon="-1.25723">
        <ele>2</ele>
        <time>2022-04-25T23:27:12Z</time>
      </trkpt>
      <trkpt lat="49.30499" lon="-1.25091">
        <ele>9</ele>
        <time>2022-04-25T23:29:37Z</time>
      </trkpt>
      <trkpt lat="49.3048" lon="-1.2507">
        <ele>9</ele>
        <time>2022-04-25T23:29:41Z</time>
      </trkpt>
      <trkpt lat="49.30459" lon="-1.25048">
        <ele>10</ele>
        <time>2022-04-25T23:29:46Z</time>
      </trkpt>
      <trkpt lat="49.30448" lon="-1.25033">
        <ele>10</ele>
        <time>2022-04-25T23:29:48Z</time>
      </trkpt>
      <trkpt lat="49.3041" lon="-1.24969">
        <ele>10</ele>
        <time>2022-04-25T23:29:58Z</time>
      </trkpt>
      <trkpt lat="49.30385" lon="-1.24922">
        <ele>9</ele>
        <time>2022-04-25T23:30:05Z</time>
      </trkpt>
      <trkpt lat="49.30315" lon="-1.24772">
        <ele>8</ele>
        <time>2022-04-25T23:30:27Z</time>
      </trkpt>
      <trkpt lat="49.30309" lon="-1.24774">
        <ele>8</ele>
        <time>2022-04-25T23:30:28Z</time>
      </trkpt>
      <trkpt lat="49.30306" lon="-1.2477">
        <ele>8</ele>
        <time>2022-04-25T23:30:29Z</time>
      </trkpt>
      <trkpt lat="49.30305" lon="-1.24764">
        <ele>8</ele>
        <time>2022-04-25T23:30:29Z</time>
      </trkpt>
      <trkpt lat="49.30308" lon="-1.24757">
        <ele>8</ele>
        <time>2022-04-25T23:30:30Z</time>
      </trkpt>
      <trkpt lat="49.30295" lon="-1.24716">
        <ele>8</ele>
        <time>2022-04-25T23:30:36Z</time>
      </trkpt>
      <trkpt lat="49.30283" lon="-1.24663">
        <ele>8</ele>
        <time>2022-04-25T23:30:42Z</time>
      </trkpt>
      <trkpt lat="49.3027" lon="-1.24565">
        <ele>7</ele>
        <time>2022-04-25T23:30:54Z</time>
      </trkpt>
      <trkpt lat="49.30263" lon="-1.2455">
        <ele>6</ele>
        <time>2022-04-25T23:30:56Z</time>
      </trkpt>
      <trkpt lat="49.30251" lon="-1.24461">
        <ele>6</ele>
        <time>2022-04-25T23:31:06Z</time>
      </trkpt>
      <trkpt lat="49.3025" lon="-1.24413">
        <ele>7</ele>
        <time>2022-04-25T23:31:12Z</time>
      </trkpt>
      <trkpt lat="49.3024" lon="-1.24314">
        <ele>7</ele>
        <time>2022-04-25T23:31:24Z</time>
      </trkpt>
      <trkpt lat="49.30236" lon="-1.24254">
        <ele>6</ele>
        <time>2022-04-25T23:31:31Z</time>
      </trkpt>
      <trkpt lat="49.30234" lon="-1.24204">
        <ele>6</ele>
        <time>2022-04-25T23:31:36Z</time>
      </trkpt>
      <trkpt lat="49.30214" lon="-1.23969">
        <ele>4</ele>
        <time>2022-04-25T23:32:04Z</time>
      </trkpt>
      <trkpt lat="49.30208" lon="-1.23762">
        <ele>3</ele>
        <time>2022-04-25T23:32:28Z</time>
      </trkpt>
      <trkpt lat="49.30211" lon="-1.23626">
        <ele>4</ele>
        <time>2022-04-25T23:32:44Z</time>
      </trkpt>
      <trkpt lat="49.30218" lon="-1.23534">
        <ele>3</ele>
        <time>2022-04-25T23:32:54Z</time>
      </trkpt>
      <trkpt lat="49.30228" lon="-1.23464">
        <ele>3</ele>
        <time>2022-04-25T23:33:03Z</time>
      </trkpt>
      <trkpt lat="49.30239" lon="-1.23394">
        <ele>2</ele>
        <time>2022-04-25T23:33:11Z</time>
      </trkpt>
      <trkpt lat="49.3027" lon="-1.23202">
        <ele>3</ele>
        <time>2022-04-25T23:33:34Z</time>
      </trkpt>
      <trkpt lat="49.30273" lon="-1.23173">
        <ele>3</ele>
        <time>2022-04-25T23:33:37Z</time>
      </trkpt>
      <trkpt lat="49.30272" lon="-1.23155">
        <ele>3</ele>
        <time>2022-04-25T23:33:40Z</time>
      </trkpt>
      <trkpt lat="49.30268" lon="-1.23147">
        <ele>3</ele>
        <time>2022-04-25T23:33:41Z</time>
      </trkpt>
      <trkpt lat="49.30266" lon="-1.23136">
        <ele>3</ele>
        <time>2022-04-25T23:33:42Z</time>
      </trkpt>
      <trkpt lat="49.30268" lon="-1.23125">
        <ele>3</ele>
        <time>2022-04-25T23:33:43Z</time>
      </trkpt>
      <trkpt lat="49.30274" lon="-1.23116">
        <ele>4</ele>
        <time>2022-04-25T23:33:45Z</time>
      </trkpt>
      <trkpt lat="49.30281" lon="-1.23113">
        <ele>4</ele>
        <time>2022-04-25T23:33:46Z</time>
      </trkpt>
      <trkpt lat="49.30285" lon="-1.23102">
        <ele>4</ele>
        <time>2022-04-25T23:33:48Z</time>
      </trkpt>
      <trkpt lat="49.30296" lon="-1.2305">
        <ele>5</ele>
        <time>2022-04-25T23:33:54Z</time>
      </trkpt>
      <trkpt lat="49.30297" lon="-1.23034">
        <ele>5</ele>
        <time>2022-04-25T23:33:56Z</time>
      </trkpt>
      <trkpt lat="49.30266" lon="-1.22196">
        <ele>20</ele>
        <time>2022-04-25T23:35:33Z</time>
      </trkpt>
      <trkpt lat="49.30271" lon="-1.22144">
        <ele>21</ele>
        <time>2022-04-25T23:35:39Z</time>
      </trkpt>
      <trkpt lat="49.30308" lon="-1.21843">
        <ele>22</ele>
        <time>2022-04-25T23:36:15Z</time>
      </trkpt>
      <trkpt lat="49.30372" lon="-1.21354">
        <ele>24</ele>
        <time>2022-04-25T23:37:13Z</time>
      </trkpt>
      <trkpt lat="49.30374" lon="-1.21299">
        <ele>24</ele>
        <time>2022-04-25T23:37:19Z</time>
      </trkpt>
      <trkpt lat="49.30391" lon="-1.21178">
        <ele>24</ele>
        <time>2022-04-25T23:37:33Z</time>
      </trkpt>
      <trkpt lat="49.30392" lon="-1.2115">
        <ele>24</ele>
        <time>2022-04-25T23:37:37Z</time>
      </trkpt>
      <trkpt lat="49.3039" lon="-1.21121">
        <ele>24</ele>
        <time>2022-04-25T23:37:40Z</time>
      </trkpt>
      <trkpt lat="49.30382" lon="-1.2111">
        <ele>24</ele>
        <time>2022-04-25T23:37:42Z</time>
      </trkpt>
      <trkpt lat="49.30376" lon="-1.21097">
        <ele>24</ele>
        <time>2022-04-25T23:37:44Z</time>
      </trkpt>
      <trkpt lat="49.30373" lon="-1.21082">
        <ele>24</ele>
        <time>2022-04-25T23:37:46Z</time>
      </trkpt>
      <trkpt lat="49.30373" lon="-1.21066">
        <ele>25</ele>
        <time>2022-04-25T23:37:48Z</time>
      </trkpt>
      <trkpt lat="49.30376" lon="-1.2105">
        <ele>25</ele>
        <time>2022-04-25T23:37:49Z</time>
      </trkpt>
      <trkpt lat="49.30382" lon="-1.21037">
        <ele>25</ele>
        <time>2022-04-25T23:37:51Z</time>
      </trkpt>
      <trkpt lat="49.30391" lon="-1.21027">
        <ele>25</ele>
        <time>2022-04-25T23:37:53Z</time>
      </trkpt>
      <trkpt lat="49.30401" lon="-1.21021">
        <ele>26</ele>
        <time>2022-04-25T23:37:55Z</time>
      </trkpt>
      <trkpt lat="49.30411" lon="-1.2102">
        <ele>26</ele>
        <time>2022-04-25T23:37:57Z</time>
      </trkpt>
      <trkpt lat="49.30421" lon="-1.21024">
        <ele>26</ele>
        <time>2022-04-25T23:37:59Z</time>
      </trkpt>
      <trkpt lat="49.3043" lon="-1.21033">
        <ele>25</ele>
        <time>2022-04-25T23:38:01Z</time>
      </trkpt>
      <trkpt lat="49.30437" lon="-1.21045">
        <ele>25</ele>
        <time>2022-04-25T23:38:03Z</time>
      </trkpt>
      <trkpt lat="49.30451" lon="-1.21048">
        <ele>25</ele>
        <time>2022-04-25T23:38:05Z</time>
      </trkpt>
      <trkpt lat="49.30473" lon="-1.21046">
        <ele>25</ele>
        <time>2022-04-25T23:38:09Z</time>
      </trkpt>
      <trkpt lat="49.30494" lon="-1.21037">
        <ele>25</ele>
        <time>2022-04-25T23:38:13Z</time>
      </trkpt>
      <trkpt lat="49.30537" lon="-1.21018">
        <ele>24</ele>
        <time>2022-04-25T23:38:21Z</time>
      </trkpt>
      <trkpt lat="49.30565" lon="-1.21006">
        <ele>25</ele>
        <time>2022-04-25T23:38:26Z</time>
      </trkpt>
      <trkpt lat="49.30584" lon="-1.20991">
        <ele>25</ele>
        <time>2022-04-25T23:38:30Z</time>
      </trkpt>
      <trkpt lat="49.30593" lon="-1.20981">
        <ele>25</ele>
        <time>2022-04-25T23:38:32Z</time>
      </trkpt>
      <trkpt lat="49.30595" lon="-1.20968">
        <ele>25</ele>
        <time>2022-04-25T23:38:33Z</time>
      </trkpt>
      <trkpt lat="49.30593" lon="-1.20941">
        <ele>24</ele>
        <time>2022-04-25T23:38:37Z</time>
      </trkpt>
      <trkpt lat="49.30586" lon="-1.20918">
        <ele>24</ele>
        <time>2022-04-25T23:38:39Z</time>
      </trkpt>
      <trkpt lat="49.30515" lon="-1.20775">
        <ele>24</ele>
        <time>2022-04-25T23:39:00Z</time>
      </trkpt>
      <trkpt lat="49.305" lon="-1.20735">
        <ele>24</ele>
        <time>2022-04-25T23:39:06Z</time>
      </trkpt>
      <trkpt lat="49.30489" lon="-1.20693">
        <ele>25</ele>
        <time>2022-04-25T23:39:11Z</time>
      </trkpt>
      <trkpt lat="49.30481" lon="-1.2064">
        <ele>25</ele>
        <time>2022-04-25T23:39:17Z</time>
      </trkpt>
      <trkpt lat="49.30479" lon="-1.20612">
        <ele>25</ele>
        <time>2022-04-25T23:39:20Z</time>
      </trkpt>
      <trkpt lat="49.30478" lon="-1.2056">
        <ele>25</ele>
        <time>2022-04-25T23:39:27Z</time>
      </trkpt>
      <trkpt lat="49.30481" lon="-1.20529">
        <ele>26</ele>
        <time>2022-04-25T23:39:30Z</time>
      </trkpt>
      <trkpt lat="49.30613" lon="-1.19492">
        <ele>27</ele>
        <time>2022-04-25T23:41:33Z</time>
      </trkpt>
      <trkpt lat="49.30892" lon="-1.17333">
        <ele>24</ele>
        <time>2022-04-25T23:45:48Z</time>
      </trkpt>
      <trkpt lat="49.3105" lon="-1.16098">
        <ele>24</ele>
        <time>2022-04-25T23:48:14Z</time>
      </trkpt>
      <trkpt lat="49.31056" lon="-1.16028">
        <ele>24</ele>
        <time>2022-04-25T23:48:22Z</time>
      </trkpt>
      <trkpt lat="49.31054" lon="-1.15966">
        <ele>24</ele>
        <time>2022-04-25T23:48:29Z</time>
      </trkpt>
      <trkpt lat="49.30905" lon="-1.14435">
        <ele>6</ele>
        <time>2022-04-25T23:51:29Z</time>
      </trkpt>
      <trkpt lat="49.30868" lon="-1.14069">
        <ele>1</ele>
        <time>2022-04-25T23:52:12Z</time>
      </trkpt>
      <trkpt lat="49.30857" lon="-1.13954">
        <ele>1</ele>
        <time>2022-04-25T23:52:25Z</time>
      </trkpt>
      <trkpt lat="49.30813" lon="-1.13494">
        <ele>2</ele>
        <time>2022-04-25T23:53:19Z</time>
      </trkpt>
      <trkpt lat="49.3081" lon="-1.1343">
        <ele>1</ele>
        <time>2022-04-25T23:53:27Z</time>
      </trkpt>
      <trkpt lat="49.30813" lon="-1.1339">
        <ele>1</ele>
        <time>2022-04-25T23:53:32Z</time>
      </trkpt>
      <trkpt lat="49.30853" lon="-1.13079">
        <ele>3</ele>
        <time>2022-04-25T23:54:08Z</time>
      </trkpt>
      <trkpt lat="49.30861" lon="-1.12974">
        <ele>5</ele>
        <time>2022-04-25T23:54:21Z</time>
      </trkpt>
      <trkpt lat="49.30862" lon="-1.12906">
        <ele>9</ele>
        <time>2022-04-25T23:54:28Z</time>
      </trkpt>
      <trkpt lat="49.30862" lon="-1.1282">
        <ele>12</ele>
        <time>2022-04-25T23:54:38Z</time>
      </trkpt>
      <trkpt lat="49.30855" lon="-1.12566">
        <ele>16</ele>
        <time>2022-04-25T23:55:08Z</time>
      </trkpt>
      <trkpt lat="49.30855" lon="-1.12523">
        <ele>17</ele>
        <time>2022-04-25T23:55:13Z</time>
      </trkpt>
      <trkpt lat="49.30856" lon="-1.12505">
        <ele>17</ele>
        <time>2022-04-25T23:55:15Z</time>
      </trkpt>
      <trkpt lat="49.30867" lon="-1.12447">
        <ele>17</ele>
        <time>2022-04-25T23:55:22Z</time>
      </trkpt>
      <trkpt lat="49.31148" lon="-1.11365">
        <ele>9</ele>
        <time>2022-04-25T23:57:37Z</time>
      </trkpt>
      <trkpt lat="49.31154" lon="-1.11348">
        <ele>9</ele>
        <time>2022-04-25T23:57:39Z</time>
      </trkpt>
      <trkpt lat="49.31175" lon="-1.11303">
        <ele>9</ele>
        <time>2022-04-25T23:57:46Z</time>
      </trkpt>
      <trkpt lat="49.31439" lon="-1.10779">
        <ele>7</ele>
        <time>2022-04-25T23:59:03Z</time>
      </trkpt>
      <trkpt lat="49.31508" lon="-1.10648">
        <ele>6</ele>
        <time>2022-04-25T23:59:22Z</time>
      </trkpt>
      <trkpt lat="49.31634" lon="-1.10393">
        <ele>6</ele>
        <time>2022-04-25T23:59:59Z</time>
      </trkpt>
      <trkpt lat="49.31691" lon="-1.10274">
        <ele>8</ele>
        <time>2022-04-26T00:00:16Z</time>
      </trkpt>
      <trkpt lat="49.31707" lon="-1.10242">
        <ele>8</ele>
        <time>2022-04-26T00:00:21Z</time>
      </trkpt>
      <trkpt lat="49.31727" lon="-1.10217">
        <ele>7</ele>
        <time>2022-04-26T00:00:26Z</time>
      </trkpt>
      <trkpt lat="49.31812" lon="-1.10142">
        <ele>6</ele>
        <time>2022-04-26T00:00:43Z</time>
      </trkpt>
      <trkpt lat="49.31893" lon="-1.1006">
        <ele>7</ele>
        <time>2022-04-26T00:01:00Z</time>
      </trkpt>
      <trkpt lat="49.3196" lon="-1.0997">
        <ele>5</ele>
        <time>2022-04-26T00:01:16Z</time>
      </trkpt>
      <trkpt lat="49.31978" lon="-1.09946">
        <ele>5</ele>
        <time>2022-04-26T00:01:20Z</time>
      </trkpt>
      <trkpt lat="49.32025" lon="-1.09886">
        <ele>3</ele>
        <time>2022-04-26T00:01:31Z</time>
      </trkpt>
      <trkpt lat="49.32038" lon="-1.09862">
        <ele>3</ele>
        <time>2022-04-26T00:01:35Z</time>
      </trkpt>
      <trkpt lat="49.32045" lon="-1.09841">
        <ele>3</ele>
        <time>2022-04-26T00:01:38Z</time>
      </trkpt>
      <trkpt lat="49.32072" lon="-1.09658">
        <ele>2</ele>
        <time>2022-04-26T00:01:59Z</time>
      </trkpt>
      <trkpt lat="49.32073" lon="-1.0963">
        <ele>2</ele>
        <time>2022-04-26T00:02:03Z</time>
      </trkpt>
      <trkpt lat="49.32068" lon="-1.09596">
        <ele>3</ele>
        <time>2022-04-26T00:02:07Z</time>
      </trkpt>
      <trkpt lat="49.32068" lon="-1.09576">
        <ele>3</ele>
        <time>2022-04-26T00:02:09Z</time>
      </trkpt>
      <trkpt lat="49.32071" lon="-1.09558">
        <ele>3</ele>
        <time>2022-04-26T00:02:11Z</time>
      </trkpt>
      <trkpt lat="49.32196" lon="-1.09303">
        <ele>4</ele>
        <time>2022-04-26T00:02:48Z</time>
      </trkpt>
      <trkpt lat="49.32204" lon="-1.09272">
        <ele>4</ele>
        <time>2022-04-26T00:02:52Z</time>
      </trkpt>
      <trkpt lat="49.32204" lon="-1.09246">
        <ele>4</ele>
        <time>2022-04-26T00:02:55Z</time>
      </trkpt>
      <trkpt lat="49.322" lon="-1.09236">
        <ele>4</ele>
        <time>2022-04-26T00:02:56Z</time>
      </trkpt>
      <trkpt lat="49.32194" lon="-1.09231">
        <ele>4</ele>
        <time>2022-04-26T00:02:58Z</time>
      </trkpt>
      <trkpt lat="49.32188" lon="-1.09224">
        <ele>4</ele>
        <time>2022-04-26T00:02:59Z</time>
      </trkpt>
      <trkpt lat="49.32184" lon="-1.09215">
        <ele>4</ele>
        <time>2022-04-26T00:03:00Z</time>
      </trkpt>
      <trkpt lat="49.32182" lon="-1.09204">
        <ele>4</ele>
        <time>2022-04-26T00:03:02Z</time>
      </trkpt>
      <trkpt lat="49.32182" lon="-1.09193">
        <ele>4</ele>
        <time>2022-04-26T00:03:03Z</time>
      </trkpt>
      <trkpt lat="49.32185" lon="-1.09181">
        <ele>4</ele>
        <time>2022-04-26T00:03:04Z</time>
      </trkpt>
      <trkpt lat="49.3219" lon="-1.0917">
        <ele>5</ele>
        <time>2022-04-26T00:03:06Z</time>
      </trkpt>
      <trkpt lat="49.32197" lon="-1.09163">
        <ele>5</ele>
        <time>2022-04-26T00:03:07Z</time>
      </trkpt>
      <trkpt lat="49.32206" lon="-1.0916">
        <ele>5</ele>
        <time>2022-04-26T00:03:09Z</time>
      </trkpt>
      <trkpt lat="49.32214" lon="-1.09161">
        <ele>5</ele>
        <time>2022-04-26T00:03:10Z</time>
      </trkpt>
      <trkpt lat="49.32221" lon="-1.09166">
        <ele>5</ele>
        <time>2022-04-26T00:03:12Z</time>
      </trkpt>
      <trkpt lat="49.32233" lon="-1.09167">
        <ele>6</ele>
        <time>2022-04-26T00:03:14Z</time>
      </trkpt>
      <trkpt lat="49.32242" lon="-1.09164">
        <ele>6</ele>
        <time>2022-04-26T00:03:16Z</time>
      </trkpt>
      <trkpt lat="49.32249" lon="-1.09155">
        <ele>6</ele>
        <time>2022-04-26T00:03:17Z</time>
      </trkpt>
      <trkpt lat="49.32257" lon="-1.09135">
        <ele>5</ele>
        <time>2022-04-26T00:03:20Z</time>
      </trkpt>
      <trkpt lat="49.32262" lon="-1.09131">
        <ele>5</ele>
        <time>2022-04-26T00:03:21Z</time>
      </trkpt>
      <trkpt lat="49.32316" lon="-1.08989">
        <ele>4</ele>
        <time>2022-04-26T00:03:40Z</time>
      </trkpt>
      <trkpt lat="49.32319" lon="-1.08992">
        <ele>4</ele>
        <time>2022-04-26T00:03:41Z</time>
      </trkpt>
      <trkpt lat="49.32324" lon="-1.0899">
        <ele>4</ele>
        <time>2022-04-26T00:03:42Z</time>
      </trkpt>
      <trkpt lat="49.3236" lon="-1.08937">
        <ele>3</ele>
        <time>2022-04-26T00:03:50Z</time>
      </trkpt>
      <trkpt lat="49.32426" lon="-1.08849">
        <ele>3</ele>
        <time>2022-04-26T00:04:06Z</time>
      </trkpt>
      <trkpt lat="49.3243" lon="-1.08847">
        <ele>3</ele>
        <time>2022-04-26T00:04:07Z</time>
      </trkpt>
      <trkpt lat="49.32444" lon="-1.08829">
        <ele>3</ele>
        <time>2022-04-26T00:04:10Z</time>
      </trkpt>
      <trkpt lat="49.3247" lon="-1.08786">
        <ele>3</ele>
        <time>2022-04-26T00:04:17Z</time>
      </trkpt>
      <trkpt lat="49.32629" lon="-1.08465">
        <ele>2</ele>
        <time>2022-04-26T00:05:04Z</time>
      </trkpt>
      <trkpt lat="49.3264" lon="-1.08452">
        <ele>2</ele>
        <time>2022-04-26T00:05:06Z</time>
      </trkpt>
      <trkpt lat="49.32653" lon="-1.08428">
        <ele>2</ele>
        <time>2022-04-26T00:05:10Z</time>
      </trkpt>
      <trkpt lat="49.32692" lon="-1.08344">
        <ele>4</ele>
        <time>2022-04-26T00:05:22Z</time>
      </trkpt>
      <trkpt lat="49.32702" lon="-1.08337">
        <ele>5</ele>
        <time>2022-04-26T00:05:24Z</time>
      </trkpt>
      <trkpt lat="49.3271" lon="-1.08334">
        <ele>5</ele>
        <time>2022-04-26T00:05:25Z</time>
      </trkpt>
      <trkpt lat="49.32716" lon="-1.08326">
        <ele>6</ele>
        <time>2022-04-26T00:05:26Z</time>
      </trkpt>
      <trkpt lat="49.32698" lon="-1.08316">
        <ele>5</ele>
        <time>2022-04-26T00:05:30Z</time>
      </trkpt>
      <trkpt lat="49.32917" lon="-1.07887">
        <ele>12</ele>
        <time>2022-04-26T00:06:33Z</time>
      </trkpt>
      <trkpt lat="49.33004" lon="-1.07913">
        <ele>14</ele>
        <time>2022-04-26T00:06:49Z</time>
      </trkpt>
      <trkpt lat="49.33036" lon="-1.07897">
        <ele>16</ele>
        <time>2022-04-26T00:06:55Z</time>
      </trkpt>
      <trkpt lat="49.3304" lon="-1.07883">
        <ele>17</ele>
        <time>2022-04-26T00:06:57Z</time>
      </trkpt>
      <trkpt lat="49.33088" lon="-1.07854">
        <ele>19</ele>
        <time>2022-04-26T00:07:06Z</time>
      </trkpt>
      <trkpt lat="49.33156" lon="-1.07808">
        <ele>22</ele>
        <time>2022-04-26T00:07:19Z</time>
      </trkpt>
      <trkpt lat="49.3321" lon="-1.07785">
        <ele>22</ele>
        <time>2022-04-26T00:07:29Z</time>
      </trkpt>
      <trkpt lat="49.33334" lon="-1.07701">
        <ele>23</ele>
        <time>2022-04-26T00:07:53Z</time>
      </trkpt>
      <trkpt lat="49.33366" lon="-1.07711">
        <ele>23</ele>
        <time>2022-04-26T00:07:59Z</time>
      </trkpt>
      <trkpt lat="49.33401" lon="-1.07706">
        <ele>24</ele>
        <time>2022-04-26T00:08:05Z</time>
      </trkpt>
      <trkpt lat="49.33501" lon="-1.07654">
        <ele>27</ele>
        <time>2022-04-26T00:08:24Z</time>
      </trkpt>
      <trkpt lat="49.33544" lon="-1.07635">
        <ele>27</ele>
        <time>2022-04-26T00:08:32Z</time>
      </trkpt>
      <trkpt lat="49.33585" lon="-1.07623">
        <ele>27</ele>
        <time>2022-04-26T00:08:39Z</time>
      </trkpt>
      <trkpt lat="49.33649" lon="-1.07612">
        <ele>26</ele>
        <time>2022-04-26T00:08:51Z</time>
      </trkpt>
      <trkpt lat="49.33776" lon="-1.07599">
        <ele>27</ele>
        <time>2022-04-26T00:09:13Z</time>
      </trkpt>
      <trkpt lat="49.33835" lon="-1.07596">
        <ele>26</ele>
        <time>2022-04-26T00:09:24Z</time>
      </trkpt>
      <trkpt lat="49.33902" lon="-1.07604">
        <ele>25</ele>
        <time>2022-04-26T00:09:36Z</time>
      </trkpt>
      <trkpt lat="49.34033" lon="-1.07633">
        <ele>25</ele>
        <time>2022-04-26T00:09:59Z</time>
      </trkpt>
      <trkpt lat="49.34071" lon="-1.0764">
        <ele>25</ele>
        <time>2022-04-26T00:10:06Z</time>
      </trkpt>
      <trkpt lat="49.34106" lon="-1.07642">
        <ele>26</ele>
        <time>2022-04-26T00:10:12Z</time>
      </trkpt>
      <trkpt lat="49.34293" lon="-1.07632">
        <ele>29</ele>
        <time>2022-04-26T00:10:46Z</time>
      </trkpt>
      <trkpt lat="49.344" lon="-1.07621">
        <ele>29</ele>
        <time>2022-04-26T00:11:05Z</time>
      </trkpt>
      <trkpt lat="49.34471" lon="-1.07611">
        <ele>29</ele>
        <time>2022-04-26T00:11:18Z</time>
      </trkpt>
      <trkpt lat="49.34524" lon="-1.07612">
        <ele>28</ele>
        <time>2022-04-26T00:11:27Z</time>
      </trkpt>
      <trkpt lat="49.34571" lon="-1.0762">
        <ele>27</ele>
        <time>2022-04-26T00:11:35Z</time>
      </trkpt>
      <trkpt lat="49.34673" lon="-1.07644">
        <ele>27</ele>
        <time>2022-04-26T00:11:54Z</time>
      </trkpt>
      <trkpt lat="49.34719" lon="-1.0765">
        <ele>26</ele>
        <time>2022-04-26T00:12:02Z</time>
      </trkpt>
      <trkpt lat="49.34788" lon="-1.0765">
        <ele>26</ele>
        <time>2022-04-26T00:12:14Z</time>
      </trkpt>
      <trkpt lat="49.34817" lon="-1.07647">
        <ele>25</ele>
        <time>2022-04-26T00:12:19Z</time>
      </trkpt>
      <trkpt lat="49.34865" lon="-1.07637">
        <ele>25</ele>
        <time>2022-04-26T00:12:28Z</time>
      </trkpt>
      <trkpt lat="49.35072" lon="-1.07564">
        <ele>23</ele>
        <time>2022-04-26T00:13:06Z</time>
      </trkpt>
      <trkpt lat="49.35154" lon="-1.0754">
        <ele>23</ele>
        <time>2022-04-26T00:13:21Z</time>
      </trkpt>
      <trkpt lat="49.35294" lon="-1.07525">
        <ele>20</ele>
        <time>2022-04-26T00:13:46Z</time>
      </trkpt>
      <trkpt lat="49.35373" lon="-1.07509">
        <ele>21</ele>
        <time>2022-04-26T00:14:00Z</time>
      </trkpt>
      <trkpt lat="49.3545" lon="-1.07481">
        <ele>22</ele>
        <time>2022-04-26T00:14:14Z</time>
      </trkpt>
      <trkpt lat="49.3569" lon="-1.07366">
        <ele>24</ele>
        <time>2022-04-26T00:14:59Z</time>
      </trkpt>
      <trkpt lat="49.35741" lon="-1.07336">
        <ele>24</ele>
        <time>2022-04-26T00:15:08Z</time>
      </trkpt>
      <trkpt lat="49.35792" lon="-1.073">
        <ele>23</ele>
        <time>2022-04-26T00:15:18Z</time>
      </trkpt>
      <trkpt lat="49.35843" lon="-1.07259">
        <ele>23</ele>
        <time>2022-04-26T00:15:29Z</time>
      </trkpt>
      <trkpt lat="49.35893" lon="-1.07209">
        <ele>24</ele>
        <time>2022-04-26T00:15:39Z</time>
      </trkpt>
      <trkpt lat="49.35985" lon="-1.07095">
        <ele>27</ele>
        <time>2022-04-26T00:16:00Z</time>
      </trkpt>
      <trkpt lat="49.36062" lon="-1.06986">
        <ele>26</ele>
        <time>2022-04-26T00:16:19Z</time>
      </trkpt>
      <trkpt lat="49.36101" lon="-1.06942">
        <ele>26</ele>
        <time>2022-04-26T00:16:27Z</time>
      </trkpt>
      <trkpt lat="49.36147" lon="-1.06897">
        <ele>26</ele>
        <time>2022-04-26T00:16:37Z</time>
      </trkpt>
      <trkpt lat="49.36264" lon="-1.06799">
        <ele>27</ele>
        <time>2022-04-26T00:17:01Z</time>
      </trkpt>
      <trkpt lat="49.3632" lon="-1.06742">
        <ele>27</ele>
        <time>2022-04-26T00:17:13Z</time>
      </trkpt>
      <trkpt lat="49.36375" lon="-1.06676">
        <ele>26</ele>
        <time>2022-04-26T00:17:25Z</time>
      </trkpt>
      <trkpt lat="49.36631" lon="-1.06333">
        <ele>21</ele>
        <time>2022-04-26T00:18:26Z</time>
      </trkpt>
      <trkpt lat="49.36676" lon="-1.06268">
        <ele>18</ele>
        <time>2022-04-26T00:18:37Z</time>
      </trkpt>
      <trkpt lat="49.36719" lon="-1.06193">
        <ele>17</ele>
        <time>2022-04-26T00:18:48Z</time>
      </trkpt>
      <trkpt lat="49.36738" lon="-1.06169">
        <ele>16</ele>
        <time>2022-04-26T00:18:53Z</time>
      </trkpt>
      <trkpt lat="49.36766" lon="-1.06148">
        <ele>16</ele>
        <time>2022-04-26T00:18:58Z</time>
      </trkpt>
      <trkpt lat="49.36787" lon="-1.0614">
        <ele>17</ele>
        <time>2022-04-26T00:19:02Z</time>
      </trkpt>
      <trkpt lat="49.36805" lon="-1.06138">
        <ele>17</ele>
        <time>2022-04-26T00:19:05Z</time>
      </trkpt>
      <trkpt lat="49.36885" lon="-1.06154">
        <ele>16</ele>
        <time>2022-04-26T00:19:20Z</time>
      </trkpt>
      <trkpt lat="49.36914" lon="-1.06149">
        <ele>16</ele>
        <time>2022-04-26T00:19:25Z</time>
      </trkpt>
      <trkpt lat="49.36935" lon="-1.06139">
        <ele>17</ele>
        <time>2022-04-26T00:19:29Z</time>
      </trkpt>
      <trkpt lat="49.37274" lon="-1.05926">
        <ele>21</ele>
        <time>2022-04-26T00:20:34Z</time>
      </trkpt>
      <trkpt lat="49.37338" lon="-1.05891">
        <ele>19</ele>
        <time>2022-04-26T00:20:46Z</time>
      </trkpt>
      <trkpt lat="49.37511" lon="-1.05788">
        <ele>21</ele>
        <time>2022-04-26T00:21:19Z</time>
      </trkpt>
      <trkpt lat="49.3763" lon="-1.05709">
        <ele>23</ele>
        <time>2022-04-26T00:21:42Z</time>
      </trkpt>
      <trkpt lat="49.37682" lon="-1.05676">
        <ele>24</ele>
        <time>2022-04-26T00:21:52Z</time>
      </trkpt>
      <trkpt lat="49.37706" lon="-1.05665">
        <ele>24</ele>
        <time>2022-04-26T00:21:57Z</time>
      </trkpt>
      <trkpt lat="49.37752" lon="-1.05651">
        <ele>25</ele>
        <time>2022-04-26T00:22:05Z</time>
      </trkpt>
      <trkpt lat="49.3779" lon="-1.05648">
        <ele>25</ele>
        <time>2022-04-26T00:22:12Z</time>
      </trkpt>
      <trkpt lat="49.37817" lon="-1.0565">
        <ele>24</ele>
        <time>2022-04-26T00:22:16Z</time>
      </trkpt>
      <trkpt lat="49.38011" lon="-1.05677">
        <ele>21</ele>
        <time>2022-04-26T00:22:51Z</time>
      </trkpt>
      <trkpt lat="49.38064" lon="-1.05661">
        <ele>21</ele>
        <time>2022-04-26T00:23:01Z</time>
      </trkpt>
      <trkpt lat="49.38121" lon="-1.05631">
        <ele>21</ele>
        <time>2022-04-26T00:23:11Z</time>
      </trkpt>
      <trkpt lat="49.38146" lon="-1.05616">
        <ele>21</ele>
        <time>2022-04-26T00:23:16Z</time>
      </trkpt>
      <trkpt lat="49.38204" lon="-1.05559">
        <ele>20</ele>
        <time>2022-04-26T00:23:29Z</time>
      </trkpt>
      <trkpt lat="49.38403" lon="-1.053">
        <ele>19</ele>
        <time>2022-04-26T00:24:15Z</time>
      </trkpt>
      <trkpt lat="49.38539" lon="-1.05127">
        <ele>12</ele>
        <time>2022-04-26T00:24:46Z</time>
      </trkpt>
      <trkpt lat="49.38552" lon="-1.05095">
        <ele>12</ele>
        <time>2022-04-26T00:24:51Z</time>
      </trkpt>
      <trkpt lat="49.3857" lon="-1.05058">
        <ele>11</ele>
        <time>2022-04-26T00:24:56Z</time>
      </trkpt>
      <trkpt lat="49.38578" lon="-1.0503">
        <ele>10</ele>
        <time>2022-04-26T00:25:00Z</time>
      </trkpt>
      <trkpt lat="49.38576" lon="-1.05018">
        <ele>10</ele>
        <time>2022-04-26T00:25:01Z</time>
      </trkpt>
      <trkpt lat="49.38577" lon="-1.05009">
        <ele>10</ele>
        <time>2022-04-26T00:25:02Z</time>
      </trkpt>
      <trkpt lat="49.3858" lon="-1.05001">
        <ele>10</ele>
        <time>2022-04-26T00:25:03Z</time>
      </trkpt>
      <trkpt lat="49.38584" lon="-1.04995">
        <ele>10</ele>
        <time>2022-04-26T00:25:04Z</time>
      </trkpt>
      <trkpt lat="49.38594" lon="-1.0499">
        <ele>10</ele>
        <time>2022-04-26T00:25:06Z</time>
      </trkpt>
      <trkpt lat="49.38604" lon="-1.04994">
        <ele>10</ele>
        <time>2022-04-26T00:25:08Z</time>
      </trkpt>
      <trkpt lat="49.3861" lon="-1.05004">
        <ele>9</ele>
        <time>2022-04-26T00:25:09Z</time>
      </trkpt>
      <trkpt lat="49.38618" lon="-1.05006">
        <ele>9</ele>
        <time>2022-04-26T00:25:11Z</time>
      </trkpt>
      <trkpt lat="49.38637" lon="-1.05002">
        <ele>9</ele>
        <time>2022-04-26T00:25:14Z</time>
      </trkpt>
      <trkpt lat="49.38644" lon="-1.04997">
        <ele>9</ele>
        <time>2022-04-26T00:25:16Z</time>
      </trkpt>
      <trkpt lat="49.38726" lon="-1.04892">
        <ele>6</ele>
        <time>2022-04-26T00:25:35Z</time>
      </trkpt>
      <trkpt lat="49.3875" lon="-1.04854">
        <ele>3</ele>
        <time>2022-04-26T00:25:41Z</time>
      </trkpt>
      <trkpt lat="49.38757" lon="-1.04833">
        <ele>5</ele>
        <time>2022-04-26T00:25:44Z</time>
      </trkpt>
      <trkpt lat="49.38759" lon="-1.04805">
        <ele>5</ele>
        <time>2022-04-26T00:25:47Z</time>
      </trkpt>
      <trkpt lat="49.38788" lon="-1.0452">
        <ele>7</ele>
        <time>2022-04-26T00:26:20Z</time>
      </trkpt>
      <trkpt lat="49.3879" lon="-1.0449">
        <ele>8</ele>
        <time>2022-04-26T00:26:24Z</time>
      </trkpt>
      <trkpt lat="49.38798" lon="-1.0445">
        <ele>8</ele>
        <time>2022-04-26T00:26:29Z</time>
      </trkpt>
      <trkpt lat="49.38803" lon="-1.04437">
        <ele>8</ele>
        <time>2022-04-26T00:26:30Z</time>
      </trkpt>
      <trkpt lat="49.3882" lon="-1.04367">
        <ele>7</ele>
        <time>2022-04-26T00:26:39Z</time>
      </trkpt>
      <trkpt lat="49.38834" lon="-1.04323">
        <ele>7</ele>
        <time>2022-04-26T00:26:45Z</time>
      </trkpt>
      <trkpt lat="49.38779" lon="-1.04298">
        <ele>9</ele>
        <time>2022-04-26T00:26:55Z</time>
      </trkpt>
      <trkpt lat="49.38771" lon="-1.04296">
        <ele>10</ele>
        <time>2022-04-26T00:26:56Z</time>
      </trkpt>
      <trkpt lat="49.38779" lon="-1.04298">
        <ele>9</ele>
        <time>2022-04-26T00:26:58Z</time>
      </trkpt>
      <trkpt lat="49.38834" lon="-1.04323">
        <ele>7</ele>
        <time>2022-04-26T00:27:08Z</time>
      </trkpt>
      <trkpt lat="49.38863" lon="-1.04244">
        <ele>5</ele>
        <time>2022-04-26T00:27:18Z</time>
      </trkpt>
      <trkpt lat="49.38886" lon="-1.04152">
        <ele>5</ele>
        <time>2022-04-26T00:27:30Z</time>
      </trkpt>
      <trkpt lat="49.3889" lon="-1.04142">
        <ele>5</ele>
        <time>2022-04-26T00:27:31Z</time>
      </trkpt>
      <trkpt lat="49.38852" lon="-1.03978">
        <ele>6</ele>
        <time>2022-04-26T00:27:51Z</time>
      </trkpt>
      <trkpt lat="49.38846" lon="-1.03946">
        <ele>6</ele>
        <time>2022-04-26T00:27:55Z</time>
      </trkpt>
      <trkpt lat="49.38838" lon="-1.03893">
        <ele>6</ele>
        <time>2022-04-26T00:28:01Z</time>
      </trkpt>
      <trkpt lat="49.38834" lon="-1.03833">
        <ele>8</ele>
        <time>2022-04-26T00:28:08Z</time>
      </trkpt>
      <trkpt lat="49.38845" lon="-1.03822">
        <ele>8</ele>
        <time>2022-04-26T00:28:11Z</time>
      </trkpt>
      <trkpt lat="49.38855" lon="-1.03769">
        <ele>8</ele>
        <time>2022-04-26T00:28:17Z</time>
      </trkpt>
      <trkpt lat="49.38866" lon="-1.03604">
        <ele>11</ele>
        <time>2022-04-26T00:28:36Z</time>
      </trkpt>
      <trkpt lat="49.38873" lon="-1.03499">
        <ele>12</ele>
        <time>2022-04-26T00:28:49Z</time>
      </trkpt>
      <trkpt lat="49.38891" lon="-1.03377">
        <ele>13</ele>
        <time>2022-04-26T00:29:03Z</time>
      </trkpt>
      <trkpt lat="49.38897" lon="-1.03154">
        <ele>14</ele>
        <time>2022-04-26T00:29:29Z</time>
      </trkpt>
      <trkpt lat="49.38884" lon="-1.03128">
        <ele>15</ele>
        <time>2022-04-26T00:29:33Z</time>
      </trkpt>
      <trkpt lat="49.38873" lon="-1.03115">
        <ele>16</ele>
        <time>2022-04-26T00:29:35Z</time>
      </trkpt>
      <trkpt lat="49.3882" lon="-1.03104">
        <ele>18</ele>
        <time>2022-04-26T00:29:45Z</time>
      </trkpt>
      <trkpt lat="49.38819" lon="-1.03097">
        <ele>18</ele>
        <time>2022-04-26T00:29:46Z</time>
      </trkpt>
      <trkpt lat="49.38808" lon="-1.03079">
        <ele>18</ele>
        <time>2022-04-26T00:29:48Z</time>
      </trkpt>
      <trkpt lat="49.38818" lon="-1.02947">
        <ele>17</ele>
        <time>2022-04-26T00:30:04Z</time>
      </trkpt>
      <trkpt lat="49.38828" lon="-1.0288">
        <ele>16</ele>
        <time>2022-04-26T00:30:12Z</time>
      </trkpt>
      <trkpt lat="49.38825" lon="-1.02879">
        <ele>16</ele>
        <time>2022-04-26T00:30:12Z</time>
      </trkpt>
      <trkpt lat="49.38887" lon="-1.02523">
        <ele>13</ele>
        <time>2022-04-26T00:30:55Z</time>
      </trkpt>
      <trkpt lat="49.38895" lon="-1.02459">
        <ele>12</ele>
        <time>2022-04-26T00:31:03Z</time>
      </trkpt>
      <trkpt lat="49.38924" lon="-1.02151">
        <ele>3</ele>
        <time>2022-04-26T00:31:39Z</time>
      </trkpt>
      <trkpt lat="49.38945" lon="-1.01997">
        <ele>3.9</ele>
        <time>2022-04-26T00:31:57Z</time>
      </trkpt>
      <trkpt lat="49.38966" lon="-1.01888">
        <ele>2</ele>
        <time>2022-04-26T00:32:10Z</time>
      </trkpt>
      <trkpt lat="49.39111" lon="-1.01368">
        <ele>11</ele>
        <time>2022-04-26T00:33:16Z</time>
      </trkpt>
      <trkpt lat="49.3926" lon="-1.0081">
        <ele>20</ele>
        <time>2022-04-26T00:34:25Z</time>
      </trkpt>
      <trkpt lat="49.39267" lon="-1.00777">
        <ele>21</ele>
        <time>2022-04-26T00:34:29Z</time>
      </trkpt>
      <trkpt lat="49.3927" lon="-1.00745">
        <ele>21</ele>
        <time>2022-04-26T00:34:33Z</time>
      </trkpt>
      <trkpt lat="49.39269" lon="-1.00719">
        <ele>21</ele>
        <time>2022-04-26T00:34:36Z</time>
      </trkpt>
      <trkpt lat="49.39264" lon="-1.0068">
        <ele>21</ele>
        <time>2022-04-26T00:34:41Z</time>
      </trkpt>
      <trkpt lat="49.39256" lon="-1.00641">
        <ele>21</ele>
        <time>2022-04-26T00:34:45Z</time>
      </trkpt>
      <trkpt lat="49.39238" lon="-1.00574">
        <ele>20</ele>
        <time>2022-04-26T00:34:54Z</time>
      </trkpt>
      <trkpt lat="49.3917" lon="-1.0036">
        <ele>18</ele>
        <time>2022-04-26T00:35:21Z</time>
      </trkpt>
      <trkpt lat="49.39156" lon="-1.00304">
        <ele>17</ele>
        <time>2022-04-26T00:35:28Z</time>
      </trkpt>
      <trkpt lat="49.39129" lon="-1.00129">
        <ele>19</ele>
        <time>2022-04-26T00:35:49Z</time>
      </trkpt>
      <trkpt lat="49.39123" lon="-1.00101">
        <ele>20</ele>
        <time>2022-04-26T00:35:53Z</time>
      </trkpt>
      <trkpt lat="49.39112" lon="-1.00065">
        <ele>20</ele>
        <time>2022-04-26T00:35:57Z</time>
      </trkpt>
      <trkpt lat="49.39084" lon="-0.99996">
        <ele>21</ele>
        <time>2022-04-26T00:36:07Z</time>
      </trkpt>
      <trkpt lat="49.39028" lon="-0.9982">
        <ele>24</ele>
        <time>2022-04-26T00:36:29Z</time>
      </trkpt>
      <trkpt lat="49.39012" lon="-0.99752">
        <ele>26</ele>
        <time>2022-04-26T00:36:38Z</time>
      </trkpt>
      <trkpt lat="49.39008" lon="-0.99713">
        <ele>27</ele>
        <time>2022-04-26T00:36:42Z</time>
      </trkpt>
      <trkpt lat="49.39002" lon="-0.9963">
        <ele>28</ele>
        <time>2022-04-26T00:36:52Z</time>
      </trkpt>
      <trkpt lat="49.38998" lon="-0.99599">
        <ele>29</ele>
        <time>2022-04-26T00:36:56Z</time>
      </trkpt>
      <trkpt lat="49.38983" lon="-0.99545">
        <ele>29</ele>
        <time>2022-04-26T00:37:02Z</time>
      </trkpt>
      <trkpt lat="49.38951" lon="-0.99451">
        <ele>30</ele>
        <time>2022-04-26T00:37:15Z</time>
      </trkpt>
      <trkpt lat="49.38933" lon="-0.99389">
        <ele>31</ele>
        <time>2022-04-26T00:37:23Z</time>
      </trkpt>
      <trkpt lat="49.38922" lon="-0.99329">
        <ele>32</ele>
        <time>2022-04-26T00:37:30Z</time>
      </trkpt>
      <trkpt lat="49.38908" lon="-0.99195">
        <ele>33</ele>
        <time>2022-04-26T00:37:46Z</time>
      </trkpt>
      <trkpt lat="49.38899" lon="-0.99157">
        <ele>33</ele>
        <time>2022-04-26T00:37:50Z</time>
      </trkpt>
      <trkpt lat="49.38888" lon="-0.99142">
        <ele>33</ele>
        <time>2022-04-26T00:37:53Z</time>
      </trkpt>
      <trkpt lat="49.38886" lon="-0.99135">
        <ele>33</ele>
        <time>2022-04-26T00:37:54Z</time>
      </trkpt>
      <trkpt lat="49.38885" lon="-0.99119">
        <ele>33</ele>
        <time>2022-04-26T00:37:56Z</time>
      </trkpt>
      <trkpt lat="49.38891" lon="-0.99106">
        <ele>33</ele>
        <time>2022-04-26T00:37:57Z</time>
      </trkpt>
      <trkpt lat="49.38892" lon="-0.99069">
        <ele>33</ele>
        <time>2022-04-26T00:38:02Z</time>
      </trkpt>
      <trkpt lat="49.38885" lon="-0.98972">
        <ele>34</ele>
        <time>2022-04-26T00:38:13Z</time>
      </trkpt>
      <trkpt lat="49.38879" lon="-0.98872">
        <ele>34</ele>
        <time>2022-04-26T00:38:25Z</time>
      </trkpt>
      <trkpt lat="49.38874" lon="-0.98827">
        <ele>35</ele>
        <time>2022-04-26T00:38:30Z</time>
      </trkpt>
      <trkpt lat="49.38819" lon="-0.98548">
        <ele>35</ele>
        <time>2022-04-26T00:39:04Z</time>
      </trkpt>
      <trkpt lat="49.38785" lon="-0.98386">
        <ele>35</ele>
        <time>2022-04-26T00:39:23Z</time>
      </trkpt>
      <trkpt lat="49.38777" lon="-0.98339">
        <ele>35</ele>
        <time>2022-04-26T00:39:29Z</time>
      </trkpt>
      <trkpt lat="49.38775" lon="-0.98313">
        <ele>35</ele>
        <time>2022-04-26T00:39:32Z</time>
      </trkpt>
      <trkpt lat="49.38778" lon="-0.9822">
        <ele>35</ele>
        <time>2022-04-26T00:39:43Z</time>
      </trkpt>
      <trkpt lat="49.38775" lon="-0.98186">
        <ele>35</ele>
        <time>2022-04-26T00:39:47Z</time>
      </trkpt>
      <trkpt lat="49.38757" lon="-0.98059">
        <ele>35</ele>
        <time>2022-04-26T00:40:02Z</time>
      </trkpt>
      <trkpt lat="49.38748" lon="-0.97889">
        <ele>36</ele>
        <time>2022-04-26T00:40:22Z</time>
      </trkpt>
      <trkpt lat="49.38727" lon="-0.97725">
        <ele>37</ele>
        <time>2022-04-26T00:40:41Z</time>
      </trkpt>
      <trkpt lat="49.38726" lon="-0.97664">
        <ele>36</ele>
        <time>2022-04-26T00:40:48Z</time>
      </trkpt>
      <trkpt lat="49.38731" lon="-0.97555">
        <ele>36</ele>
        <time>2022-04-26T00:41:01Z</time>
      </trkpt>
      <trkpt lat="49.38731" lon="-0.97454">
        <ele>35</ele>
        <time>2022-04-26T00:41:12Z</time>
      </trkpt>
      <trkpt lat="49.38733" lon="-0.97373">
        <ele>35</ele>
        <time>2022-04-26T00:41:22Z</time>
      </trkpt>
      <trkpt lat="49.38738" lon="-0.97328">
        <ele>35</ele>
        <time>2022-04-26T00:41:27Z</time>
      </trkpt>
      <trkpt lat="49.38743" lon="-0.97295">
        <ele>35</ele>
        <time>2022-04-26T00:41:31Z</time>
      </trkpt>
      <trkpt lat="49.38766" lon="-0.97185">
        <ele>37</ele>
        <time>2022-04-26T00:41:44Z</time>
      </trkpt>
      <trkpt lat="49.3877" lon="-0.9715">
        <ele>37</ele>
        <time>2022-04-26T00:41:49Z</time>
      </trkpt>
      <trkpt lat="49.38768" lon="-0.97037">
        <ele>37</ele>
        <time>2022-04-26T00:42:02Z</time>
      </trkpt>
      <trkpt lat="49.3877" lon="-0.96973">
        <ele>37</ele>
        <time>2022-04-26T00:42:09Z</time>
      </trkpt>
      <trkpt lat="49.38778" lon="-0.96894">
        <ele>38</ele>
        <time>2022-04-26T00:42:18Z</time>
      </trkpt>
      <trkpt lat="49.38784" lon="-0.96805">
        <ele>38</ele>
        <time>2022-04-26T00:42:29Z</time>
      </trkpt>
      <trkpt lat="49.38799" lon="-0.96534">
        <ele>38</ele>
        <time>2022-04-26T00:43:00Z</time>
      </trkpt>
      <trkpt lat="49.38799" lon="-0.96482">
        <ele>38</ele>
        <time>2022-04-26T00:43:06Z</time>
      </trkpt>
      <trkpt lat="49.38795" lon="-0.96372">
        <ele>38</ele>
        <time>2022-04-26T00:43:19Z</time>
      </trkpt>
      <trkpt lat="49.38785" lon="-0.96257">
        <ele>38</ele>
        <time>2022-04-26T00:43:32Z</time>
      </trkpt>
      <trkpt lat="49.38783" lon="-0.96198">
        <ele>38</ele>
        <time>2022-04-26T00:43:39Z</time>
      </trkpt>
      <trkpt lat="49.38783" lon="-0.95785">
        <ele>36</ele>
        <time>2022-04-26T00:44:27Z</time>
      </trkpt>
      <trkpt lat="49.38784" lon="-0.95708">
        <ele>37</ele>
        <time>2022-04-26T00:44:36Z</time>
      </trkpt>
      <trkpt lat="49.38797" lon="-0.9548">
        <ele>37</ele>
        <time>2022-04-26T00:45:02Z</time>
      </trkpt>
      <trkpt lat="49.38798" lon="-0.95443">
        <ele>37</ele>
        <time>2022-04-26T00:45:07Z</time>
      </trkpt>
      <trkpt lat="49.38793" lon="-0.9516">
        <ele>36</ele>
        <time>2022-04-26T00:45:40Z</time>
      </trkpt>
      <trkpt lat="49.38793" lon="-0.94966">
        <ele>35</ele>
        <time>2022-04-26T00:46:02Z</time>
      </trkpt>
      <trkpt lat="49.38782" lon="-0.94891">
        <ele>35</ele>
        <time>2022-04-26T00:46:11Z</time>
      </trkpt>
      <trkpt lat="49.38782" lon="-0.94842">
        <ele>35</ele>
        <time>2022-04-26T00:46:17Z</time>
      </trkpt>
      <trkpt lat="49.38804" lon="-0.94456">
        <ele>35</ele>
        <time>2022-04-26T00:47:01Z</time>
      </trkpt>
      <trkpt lat="49.38809" lon="-0.94388">
        <ele>35</ele>
        <time>2022-04-26T00:47:09Z</time>
      </trkpt>
      <trkpt lat="49.38826" lon="-0.94258">
        <ele>35</ele>
        <time>2022-04-26T00:47:25Z</time>
      </trkpt>
      <trkpt lat="49.38854" lon="-0.94104">
        <ele>35</ele>
        <time>2022-04-26T00:47:43Z</time>
      </trkpt>
      <trkpt lat="49.38854" lon="-0.94066">
        <ele>35</ele>
        <time>2022-04-26T00:47:48Z</time>
      </trkpt>
      <trkpt lat="49.38852" lon="-0.94036">
        <ele>35</ele>
        <time>2022-04-26T00:47:51Z</time>
      </trkpt>
      <trkpt lat="49.3883" lon="-0.93941">
        <ele>35</ele>
        <time>2022-04-26T00:48:03Z</time>
      </trkpt>
      <trkpt lat="49.38825" lon="-0.93896">
        <ele>35</ele>
        <time>2022-04-26T00:48:08Z</time>
      </trkpt>
      <trkpt lat="49.38815" lon="-0.93765">
        <ele>36</ele>
        <time>2022-04-26T00:48:23Z</time>
      </trkpt>
      <trkpt lat="49.38808" lon="-0.93712">
        <ele>36</ele>
        <time>2022-04-26T00:48:30Z</time>
      </trkpt>
      <trkpt lat="49.38737" lon="-0.93317">
        <ele>37</ele>
        <time>2022-04-26T00:49:17Z</time>
      </trkpt>
      <trkpt lat="49.38718" lon="-0.93233">
        <ele>38</ele>
        <time>2022-04-26T00:49:27Z</time>
      </trkpt>
      <trkpt lat="49.38704" lon="-0.93199">
        <ele>38</ele>
        <time>2022-04-26T00:49:32Z</time>
      </trkpt>
      <trkpt lat="49.38684" lon="-0.93162">
        <ele>38</ele>
        <time>2022-04-26T00:49:38Z</time>
      </trkpt>
      <trkpt lat="49.38585" lon="-0.93018">
        <ele>41</ele>
        <time>2022-04-26T00:50:02Z</time>
      </trkpt>
      <trkpt lat="49.38469" lon="-0.92854">
        <ele>41</ele>
        <time>2022-04-26T00:50:30Z</time>
      </trkpt>
      <trkpt lat="49.38434" lon="-0.92798">
        <ele>41</ele>
        <time>2022-04-26T00:50:39Z</time>
      </trkpt>
      <trkpt lat="49.3842" lon="-0.92769">
        <ele>41</ele>
        <time>2022-04-26T00:50:43Z</time>
      </trkpt>
      <trkpt lat="49.38402" lon="-0.9272">
        <ele>41</ele>
        <time>2022-04-26T00:50:50Z</time>
      </trkpt>
      <trkpt lat="49.38392" lon="-0.92677">
        <ele>42</ele>
        <time>2022-04-26T00:50:55Z</time>
      </trkpt>
      <trkpt lat="49.3837" lon="-0.92553">
        <ele>42</ele>
        <time>2022-04-26T00:51:10Z</time>
      </trkpt>
      <trkpt lat="49.3836" lon="-0.92518">
        <ele>43</ele>
        <time>2022-04-26T00:51:14Z</time>
      </trkpt>
      <trkpt lat="49.38348" lon="-0.92484">
        <ele>43</ele>
        <time>2022-04-26T00:51:19Z</time>
      </trkpt>
      <trkpt lat="49.38333" lon="-0.92445">
        <ele>44</ele>
        <time>2022-04-26T00:51:24Z</time>
      </trkpt>
      <trkpt lat="49.3822" lon="-0.92242">
        <ele>46</ele>
        <time>2022-04-26T00:51:55Z</time>
      </trkpt>
      <trkpt lat="49.38127" lon="-0.92062">
        <ele>45</ele>
        <time>2022-04-26T00:52:22Z</time>
      </trkpt>
      <trkpt lat="49.38103" lon="-0.92019">
        <ele>45</ele>
        <time>2022-04-26T00:52:28Z</time>
      </trkpt>
      <trkpt lat="49.38084" lon="-0.91988">
        <ele>45</ele>
        <time>2022-04-26T00:52:33Z</time>
      </trkpt>
      <trkpt lat="49.37945" lon="-0.91777">
        <ele>44</ele>
        <time>2022-04-26T00:53:08Z</time>
      </trkpt>
      <trkpt lat="49.37901" lon="-0.91721">
        <ele>44</ele>
        <time>2022-04-26T00:53:18Z</time>
      </trkpt>
      <trkpt lat="49.37769" lon="-0.91579">
        <ele>44</ele>
        <time>2022-04-26T00:53:47Z</time>
      </trkpt>
      <trkpt lat="49.37755" lon="-0.91561">
        <ele>44</ele>
        <time>2022-04-26T00:53:50Z</time>
      </trkpt>
      <trkpt lat="49.37736" lon="-0.9153">
        <ele>44</ele>
        <time>2022-04-26T00:53:55Z</time>
      </trkpt>
      <trkpt lat="49.3765" lon="-0.91347">
        <ele>45</ele>
        <time>2022-04-26T00:54:21Z</time>
      </trkpt>
      <trkpt lat="49.37633" lon="-0.91297">
        <ele>45</ele>
        <time>2022-04-26T00:54:28Z</time>
      </trkpt>
      <trkpt lat="49.37592" lon="-0.91164">
        <ele>44</ele>
        <time>2022-04-26T00:54:45Z</time>
      </trkpt>
      <trkpt lat="49.37553" lon="-0.9106">
        <ele>45</ele>
        <time>2022-04-26T00:54:58Z</time>
      </trkpt>
      <trkpt lat="49.37526" lon="-0.90984">
        <ele>44</ele>
        <time>2022-04-26T00:55:09Z</time>
      </trkpt>
      <trkpt lat="49.37515" lon="-0.90937">
        <ele>44</ele>
        <time>2022-04-26T00:55:14Z</time>
      </trkpt>
      <trkpt lat="49.3749" lon="-0.90796">
        <ele>42</ele>
        <time>2022-04-26T00:55:31Z</time>
      </trkpt>
      <trkpt lat="49.37464" lon="-0.90682">
        <ele>41</ele>
        <time>2022-04-26T00:55:45Z</time>
      </trkpt>
      <trkpt lat="49.37458" lon="-0.90623">
        <ele>40</ele>
        <time>2022-04-26T00:55:52Z</time>
      </trkpt>
      <trkpt lat="49.37494" lon="-0.90575">
        <ele>36</ele>
        <time>2022-04-26T00:56:01Z</time>
      </trkpt>
      <trkpt lat="49.37524" lon="-0.90543">
        <ele>36</ele>
        <time>2022-04-26T00:56:07Z</time>
      </trkpt>
      <trkpt lat="49.37561" lon="-0.90512">
        <ele>34</ele>
        <time>2022-04-26T00:56:15Z</time>
      </trkpt>
      <trkpt lat="49.37598" lon="-0.90492">
        <ele>33</ele>
        <time>2022-04-26T00:56:22Z</time>
      </trkpt>
      <trkpt lat="49.37632" lon="-0.90479">
        <ele>34</ele>
        <time>2022-04-26T00:56:28Z</time>
      </trkpt>
      <trkpt lat="49.37747" lon="-0.90452">
        <ele>31</ele>
        <time>2022-04-26T00:56:49Z</time>
      </trkpt>
      <trkpt lat="49.37745" lon="-0.90423">
        <ele>30</ele>
        <time>2022-04-26T00:56:52Z</time>
      </trkpt>
      <trkpt lat="49.37825" lon="-0.90386">
        <ele>26</ele>
        <time>2022-04-26T00:57:07Z</time>
      </trkpt>
      <trkpt lat="49.37884" lon="-0.90348">
        <ele>17</ele>
        <time>2022-04-26T00:57:18Z</time>
      </trkpt>
      <trkpt lat="49.37897" lon="-0.90343">
        <ele>14</ele>
        <time>2022-04-26T00:57:21Z</time>
      </trkpt>
      <trkpt lat="49.37901" lon="-0.90328">
        <ele>13</ele>
        <time>2022-04-26T00:57:22Z</time>
      </trkpt>
      <trkpt lat="49.37905" lon="-0.90293">
        <ele>10</ele>
        <time>2022-04-26T00:57:27Z</time>
      </trkpt>
      <trkpt lat="49.37904" lon="-0.90261">
        <ele>8</ele>
        <time>2022-04-26T00:57:30Z</time>
      </trkpt>
      <trkpt lat="49.37902" lon="-0.90235">
        <ele>7</ele>
        <time>2022-04-26T00:57:33Z</time>
      </trkpt>
      <trkpt lat="49.37896" lon="-0.90203">
        <ele>7</ele>
        <time>2022-04-26T00:57:37Z</time>
      </trkpt>
      <trkpt lat="49.37875" lon="-0.90134">
        <ele>7</ele>
        <time>2022-04-26T00:57:46Z</time>
      </trkpt>
      <trkpt lat="49.37856" lon="-0.90082">
        <ele>6</ele>
        <time>2022-04-26T00:57:53Z</time>
      </trkpt>
      <trkpt lat="49.37665" lon="-0.89642">
        <ele>1</ele>
        <time>2022-04-26T00:58:54Z</time>
      </trkpt>
      <trkpt lat="49.37622" lon="-0.89535">
        <ele>4.8</ele>
        <time>2022-04-26T00:59:09Z</time>
      </trkpt>
      <trkpt lat="49.37109" lon="-0.88071">
        <ele>1</ele>
        <time>2022-04-26T01:02:21Z</time>
      </trkpt>
      <trkpt lat="49.37096" lon="-0.88071">
        <ele>1</ele>
        <time>2022-04-26T01:02:24Z</time>
      </trkpt>
      <trkpt lat="49.37073" lon="-0.88066">
        <ele>2</ele>
        <time>2022-04-26T01:02:28Z</time>
      </trkpt>
      <trkpt lat="49.3699" lon="-0.88078">
        <ele>8</ele>
        <time>2022-04-26T01:02:43Z</time>
      </trkpt>
      <trkpt lat="49.36966" lon="-0.88063">
        <ele>8</ele>
        <time>2022-04-26T01:02:47Z</time>
      </trkpt>
      <trkpt lat="49.3696" lon="-0.8804">
        <ele>7</ele>
        <time>2022-04-26T01:02:50Z</time>
      </trkpt>
      <trkpt lat="49.36858" lon="-0.88101">
        <ele>12</ele>
        <time>2022-04-26T01:03:10Z</time>
      </trkpt>
      <trkpt lat="49.36805" lon="-0.88122">
        <ele>15</ele>
        <time>2022-04-26T01:03:19Z</time>
      </trkpt>
      <trkpt lat="49.36717" lon="-0.88152">
        <ele>18</ele>
        <time>2022-04-26T01:03:35Z</time>
      </trkpt>
      <trkpt lat="49.36633" lon="-0.88191">
        <ele>21</ele>
        <time>2022-04-26T01:03:51Z</time>
      </trkpt>
      <trkpt lat="49.36601" lon="-0.88197">
        <ele>22</ele>
        <time>2022-04-26T01:03:57Z</time>
      </trkpt>
      <trkpt lat="49.36582" lon="-0.88194">
        <ele>22</ele>
        <time>2022-04-26T01:04:00Z</time>
      </trkpt>
      <trkpt lat="49.36541" lon="-0.88183">
        <ele>22</ele>
        <time>2022-04-26T01:04:07Z</time>
      </trkpt>
      <trkpt lat="49.36527" lon="-0.88177">
        <ele>22</ele>
        <time>2022-04-26T01:04:10Z</time>
      </trkpt>
      <trkpt lat="49.36515" lon="-0.88168">
        <ele>22</ele>
        <time>2022-04-26T01:04:12Z</time>
      </trkpt>
      <trkpt lat="49.36489" lon="-0.88142">
        <ele>25</ele>
        <time>2022-04-26T01:04:18Z</time>
      </trkpt>
      <trkpt lat="49.3641" lon="-0.88036">
        <ele>31</ele>
        <time>2022-04-26T01:04:37Z</time>
      </trkpt>
      <trkpt lat="49.36388" lon="-0.88018">
        <ele>32</ele>
        <time>2022-04-26T01:04:41Z</time>
      </trkpt>
      <trkpt lat="49.3637" lon="-0.8801">
        <ele>32</ele>
        <time>2022-04-26T01:04:44Z</time>
      </trkpt>
      <trkpt lat="49.36349" lon="-0.88004">
        <ele>32</ele>
        <time>2022-04-26T01:04:48Z</time>
      </trkpt>
      <trkpt lat="49.36311" lon="-0.88">
        <ele>33</ele>
        <time>2022-04-26T01:04:55Z</time>
      </trkpt>
      <trkpt lat="49.36223" lon="-0.88014">
        <ele>35</ele>
        <time>2022-04-26T01:05:11Z</time>
      </trkpt>
      <trkpt lat="49.36204" lon="-0.88013">
        <ele>35</ele>
        <time>2022-04-26T01:05:14Z</time>
      </trkpt>
      <trkpt lat="49.3618" lon="-0.88008">
        <ele>34</ele>
        <time>2022-04-26T01:05:18Z</time>
      </trkpt>
      <trkpt lat="49.36145" lon="-0.87991">
        <ele>35</ele>
        <time>2022-04-26T01:05:25Z</time>
      </trkpt>
      <trkpt lat="49.36133" lon="-0.8799">
        <ele>35</ele>
        <time>2022-04-26T01:05:27Z</time>
      </trkpt>
      <trkpt lat="49.36112" lon="-0.87999">
        <ele>35</ele>
        <time>2022-04-26T01:05:31Z</time>
      </trkpt>
      <trkpt lat="49.36095" lon="-0.88014">
        <ele>36</ele>
        <time>2022-04-26T01:05:34Z</time>
      </trkpt>
      <trkpt lat="49.35997" lon="-0.88118">
        <ele>41</ele>
        <time>2022-04-26T01:05:56Z</time>
      </trkpt>
      <trkpt lat="49.35975" lon="-0.88138">
        <ele>42</ele>
        <time>2022-04-26T01:06:00Z</time>
      </trkpt>
      <trkpt lat="49.35945" lon="-0.88154">
        <ele>43</ele>
        <time>2022-04-26T01:06:06Z</time>
      </trkpt>
      <trkpt lat="49.35935" lon="-0.88168">
        <ele>43</ele>
        <time>2022-04-26T01:06:08Z</time>
      </trkpt>
      <trkpt lat="49.35933" lon="-0.88178">
        <ele>43</ele>
        <time>2022-04-26T01:06:09Z</time>
      </trkpt>
      <trkpt lat="49.35925" lon="-0.88185">
        <ele>43</ele>
        <time>2022-04-26T01:06:11Z</time>
      </trkpt>
      <trkpt lat="49.35917" lon="-0.88182">
        <ele>43</ele>
        <time>2022-04-26T01:06:13Z</time>
      </trkpt>
      <trkpt lat="49.35915" lon="-0.88178">
        <ele>43</ele>
        <time>2022-04-26T01:06:13Z</time>
      </trkpt>
      <trkpt lat="49.35912" lon="-0.88169">
        <ele>43</ele>
        <time>2022-04-26T01:06:14Z</time>
      </trkpt>
      <trkpt lat="49.35912" lon="-0.88163">
        <ele>43</ele>
        <time>2022-04-26T01:06:15Z</time>
      </trkpt>
      <trkpt lat="49.35916" lon="-0.88154">
        <ele>43</ele>
        <time>2022-04-26T01:06:16Z</time>
      </trkpt>
      <trkpt lat="49.35916" lon="-0.88123">
        <ele>44</ele>
        <time>2022-04-26T01:06:20Z</time>
      </trkpt>
      <trkpt lat="49.35892" lon="-0.87971">
        <ele>47</ele>
        <time>2022-04-26T01:06:38Z</time>
      </trkpt>
      <trkpt lat="49.35881" lon="-0.87877">
        <ele>46</ele>
        <time>2022-04-26T01:06:49Z</time>
      </trkpt>
      <trkpt lat="49.35869" lon="-0.87683">
        <ele>47</ele>
        <time>2022-04-26T01:07:12Z</time>
      </trkpt>
      <trkpt lat="49.35866" lon="-0.87662">
        <ele>47</ele>
        <time>2022-04-26T01:07:14Z</time>
      </trkpt>
      <trkpt lat="49.35862" lon="-0.87652">
        <ele>48</ele>
        <time>2022-04-26T01:07:15Z</time>
      </trkpt>
      <trkpt lat="49.35854" lon="-0.87641">
        <ele>48</ele>
        <time>2022-04-26T01:07:17Z</time>
      </trkpt>
      <trkpt lat="49.3584" lon="-0.8763">
        <ele>49</ele>
        <time>2022-04-26T01:07:20Z</time>
      </trkpt>
      <trkpt lat="49.3576" lon="-0.87577">
        <ele>51</ele>
        <time>2022-04-26T01:07:36Z</time>
      </trkpt>
      <trkpt lat="49.35717" lon="-0.87531">
        <ele>52</ele>
        <time>2022-04-26T01:07:45Z</time>
      </trkpt>
      <trkpt lat="49.35678" lon="-0.87479">
        <ele>53</ele>
        <time>2022-04-26T01:07:54Z</time>
      </trkpt>
      <trkpt lat="49.35648" lon="-0.87435">
        <ele>54</ele>
        <time>2022-04-26T01:08:02Z</time>
      </trkpt>
      <trkpt lat="49.35596" lon="-0.87337">
        <ele>56</ele>
        <time>2022-04-26T01:08:16Z</time>
      </trkpt>
      <trkpt lat="49.35543" lon="-0.87254">
        <ele>56</ele>
        <time>2022-04-26T01:08:30Z</time>
      </trkpt>
      <trkpt lat="49.35484" lon="-0.87176">
        <ele>56</ele>
        <time>2022-04-26T01:08:44Z</time>
      </trkpt>
      <trkpt lat="49.35452" lon="-0.87144">
        <ele>57</ele>
        <time>2022-04-26T01:08:50Z</time>
      </trkpt>
      <trkpt lat="49.35438" lon="-0.87135">
        <ele>57</ele>
        <time>2022-04-26T01:08:53Z</time>
      </trkpt>
      <trkpt lat="49.35396" lon="-0.87115">
        <ele>58</ele>
        <time>2022-04-26T01:09:01Z</time>
      </trkpt>
      <trkpt lat="49.35385" lon="-0.87106">
        <ele>58</ele>
        <time>2022-04-26T01:09:03Z</time>
      </trkpt>
      <trkpt lat="49.3537" lon="-0.87092">
        <ele>58</ele>
        <time>2022-04-26T01:09:06Z</time>
      </trkpt>
      <trkpt lat="49.35348" lon="-0.87064">
        <ele>58</ele>
        <time>2022-04-26T01:09:11Z</time>
      </trkpt>
      <trkpt lat="49.35341" lon="-0.87051">
        <ele>58</ele>
        <time>2022-04-26T01:09:13Z</time>
      </trkpt>
      <trkpt lat="49.35326" lon="-0.87014">
        <ele>58</ele>
        <time>2022-04-26T01:09:18Z</time>
      </trkpt>
      <trkpt lat="49.35243" lon="-0.86745">
        <ele>59</ele>
        <time>2022-04-26T01:09:53Z</time>
      </trkpt>
      <trkpt lat="49.35118" lon="-0.86465">
        <ele>62</ele>
        <time>2022-04-26T01:10:32Z</time>
      </trkpt>
      <trkpt lat="49.35042" lon="-0.86305">
        <ele>65</ele>
        <time>2022-04-26T01:10:55Z</time>
      </trkpt>
      <trkpt lat="49.34973" lon="-0.86131">
        <ele>67</ele>
        <time>2022-04-26T01:11:19Z</time>
      </trkpt>
      <trkpt lat="49.34899" lon="-0.85977">
        <ele>69</ele>
        <time>2022-04-26T01:11:41Z</time>
      </trkpt>
      <trkpt lat="49.34848" lon="-0.85878">
        <ele>70</ele>
        <time>2022-04-26T01:11:56Z</time>
      </trkpt>
      <trkpt lat="49.34835" lon="-0.85847">
        <ele>71</ele>
        <time>2022-04-26T01:12:00Z</time>
      </trkpt>
      <trkpt lat="49.34829" lon="-0.85819">
        <ele>71</ele>
        <time>2022-04-26T01:12:03Z</time>
      </trkpt>
      <trkpt lat="49.34827" lon="-0.858">
        <ele>71</ele>
        <time>2022-04-26T01:12:05Z</time>
      </trkpt>
      <trkpt lat="49.34837" lon="-0.85635">
        <ele>68</ele>
        <time>2022-04-26T01:12:25Z</time>
      </trkpt>
      <trkpt lat="49.34836" lon="-0.85617">
        <ele>67</ele>
        <time>2022-04-26T01:12:27Z</time>
      </trkpt>
      <trkpt lat="49.34828" lon="-0.85584">
        <ele>67</ele>
        <time>2022-04-26T01:12:31Z</time>
      </trkpt>
      <trkpt lat="49.34822" lon="-0.85566">
        <ele>67</ele>
        <time>2022-04-26T01:12:33Z</time>
      </trkpt>
      <trkpt lat="49.34818" lon="-0.8556">
        <ele>66</ele>
        <time>2022-04-26T01:12:34Z</time>
      </trkpt>
      <trkpt lat="49.34802" lon="-0.85547">
        <ele>66</ele>
        <time>2022-04-26T01:12:37Z</time>
      </trkpt>
      <trkpt lat="49.34795" lon="-0.85538">
        <ele>66</ele>
        <time>2022-04-26T01:12:39Z</time>
      </trkpt>
      <trkpt lat="49.34793" lon="-0.85525">
        <ele>65</ele>
        <time>2022-04-26T01:12:41Z</time>
      </trkpt>
      <trkpt lat="49.34782" lon="-0.85498">
        <ele>65</ele>
        <time>2022-04-26T01:12:44Z</time>
      </trkpt>
      <trkpt lat="49.34776" lon="-0.85491">
        <ele>64</ele>
        <time>2022-04-26T01:12:46Z</time>
      </trkpt>
      <trkpt lat="49.34753" lon="-0.85472">
        <ele>64</ele>
        <time>2022-04-26T01:12:50Z</time>
      </trkpt>
      <trkpt lat="49.34703" lon="-0.85451">
        <ele>64</ele>
        <time>2022-04-26T01:12:59Z</time>
      </trkpt>
      <trkpt lat="49.34698" lon="-0.85448">
        <ele>64</ele>
        <time>2022-04-26T01:13:00Z</time>
      </trkpt>
      <trkpt lat="49.34691" lon="-0.85441">
        <ele>64</ele>
        <time>2022-04-26T01:13:02Z</time>
      </trkpt>
      <trkpt lat="49.34683" lon="-0.85424">
        <ele>64</ele>
        <time>2022-04-26T01:13:04Z</time>
      </trkpt>
      <trkpt lat="49.34676" lon="-0.85405">
        <ele>64</ele>
        <time>2022-04-26T01:13:07Z</time>
      </trkpt>
      <trkpt lat="49.34664" lon="-0.85344">
        <ele>64</ele>
        <time>2022-04-26T01:13:14Z</time>
      </trkpt>
      <trkpt lat="49.34663" lon="-0.85329">
        <ele>64</ele>
        <time>2022-04-26T01:13:16Z</time>
      </trkpt>
      <trkpt lat="49.34693" lon="-0.85214">
        <ele>64</ele>
        <time>2022-04-26T01:13:30Z</time>
      </trkpt>
      <trkpt lat="49.34725" lon="-0.85113">
        <ele>63</ele>
        <time>2022-04-26T01:13:43Z</time>
      </trkpt>
      <trkpt lat="49.3475" lon="-0.85045">
        <ele>63</ele>
        <time>2022-04-26T01:13:52Z</time>
      </trkpt>
      <trkpt lat="49.34769" lon="-0.85001">
        <ele>63</ele>
        <time>2022-04-26T01:13:59Z</time>
      </trkpt>
      <trkpt lat="49.34795" lon="-0.8496">
        <ele>62</ele>
        <time>2022-04-26T01:14:05Z</time>
      </trkpt>
      <trkpt lat="49.3484" lon="-0.849">
        <ele>62</ele>
        <time>2022-04-26T01:14:16Z</time>
      </trkpt>
      <trkpt lat="49.34853" lon="-0.84873">
        <ele>61</ele>
        <time>2022-04-26T01:14:20Z</time>
      </trkpt>
      <trkpt lat="49.34855" lon="-0.8485">
        <ele>61</ele>
        <time>2022-04-26T01:14:22Z</time>
      </trkpt>
      <trkpt lat="49.34846" lon="-0.84791">
        <ele>61</ele>
        <time>2022-04-26T01:14:29Z</time>
      </trkpt>
      <trkpt lat="49.34845" lon="-0.84667">
        <ele>61</ele>
        <time>2022-04-26T01:14:44Z</time>
      </trkpt>
      <trkpt lat="49.34853" lon="-0.84582">
        <ele>59</ele>
        <time>2022-04-26T01:14:54Z</time>
      </trkpt>
      <trkpt lat="49.34858" lon="-0.84504">
        <ele>58</ele>
        <time>2022-04-26T01:15:03Z</time>
      </trkpt>
      <trkpt lat="49.34866" lon="-0.84436">
        <ele>60</ele>
        <time>2022-04-26T01:15:11Z</time>
      </trkpt>
      <trkpt lat="49.34867" lon="-0.84398">
        <ele>61</ele>
        <time>2022-04-26T01:15:15Z</time>
      </trkpt>
      <trkpt lat="49.34866" lon="-0.84314">
        <ele>62</ele>
        <time>2022-04-26T01:15:25Z</time>
      </trkpt>
      <trkpt lat="49.34869" lon="-0.84269">
        <ele>62</ele>
        <time>2022-04-26T01:15:30Z</time>
      </trkpt>
      <trkpt lat="49.3487" lon="-0.84181">
        <ele>62</ele>
        <time>2022-04-26T01:15:40Z</time>
      </trkpt>
      <trkpt lat="49.34875" lon="-0.84145">
        <ele>62</ele>
        <time>2022-04-26T01:15:45Z</time>
      </trkpt>
      <trkpt lat="49.34907" lon="-0.84014">
        <ele>63</ele>
        <time>2022-04-26T01:16:01Z</time>
      </trkpt>
      <trkpt lat="49.34924" lon="-0.83969">
        <ele>63</ele>
        <time>2022-04-26T01:16:07Z</time>
      </trkpt>
      <trkpt lat="49.34953" lon="-0.83902">
        <ele>63</ele>
        <time>2022-04-26T01:16:16Z</time>
      </trkpt>
      <trkpt lat="49.34975" lon="-0.83845">
        <ele>64</ele>
        <time>2022-04-26T01:16:24Z</time>
      </trkpt>
      <trkpt lat="49.34982" lon="-0.83822">
        <ele>64</ele>
        <time>2022-04-26T01:16:27Z</time>
      </trkpt>
      <trkpt lat="49.34995" lon="-0.83705">
        <ele>67</ele>
        <time>2022-04-26T01:16:41Z</time>
      </trkpt>
      <trkpt lat="49.35004" lon="-0.83419">
        <ele>65</ele>
        <time>2022-04-26T01:17:14Z</time>
      </trkpt>
      <trkpt lat="49.35011" lon="-0.83103">
        <ele>65</ele>
        <time>2022-04-26T01:17:50Z</time>
      </trkpt>
      <trkpt lat="49.35022" lon="-0.82936">
        <ele>67</ele>
        <time>2022-04-26T01:18:10Z</time>
      </trkpt>
      <trkpt lat="49.35042" lon="-0.82788">
        <ele>67</ele>
        <time>2022-04-26T01:18:27Z</time>
      </trkpt>
      <trkpt lat="49.35044" lon="-0.82756">
        <ele>67</ele>
        <time>2022-04-26T01:18:31Z</time>
      </trkpt>
      <trkpt lat="49.35044" lon="-0.82717">
        <ele>67</ele>
        <time>2022-04-26T01:18:36Z</time>
      </trkpt>
      <trkpt lat="49.35036" lon="-0.82618">
        <ele>66</ele>
        <time>2022-04-26T01:18:47Z</time>
      </trkpt>
      <trkpt lat="49.35028" lon="-0.82555">
        <ele>66</ele>
        <time>2022-04-26T01:18:55Z</time>
      </trkpt>
      <trkpt lat="49.3502" lon="-0.82511">
        <ele>66</ele>
        <time>2022-04-26T01:19:00Z</time>
      </trkpt>
      <trkpt lat="49.34986" lon="-0.82355">
        <ele>67</ele>
        <time>2022-04-26T01:19:19Z</time>
      </trkpt>
      <trkpt lat="49.34922" lon="-0.82037">
        <ele>67</ele>
        <time>2022-04-26T01:19:58Z</time>
      </trkpt>
      <trkpt lat="49.34905" lon="-0.81923">
        <ele>66</ele>
        <time>2022-04-26T01:20:11Z</time>
      </trkpt>
      <trkpt lat="49.34881" lon="-0.81776">
        <ele>67</ele>
        <time>2022-04-26T01:20:29Z</time>
      </trkpt>
      <trkpt lat="49.34879" lon="-0.8175">
        <ele>67</ele>
        <time>2022-04-26T01:20:32Z</time>
      </trkpt>
      <trkpt lat="49.34882" lon="-0.81632">
        <ele>67</ele>
        <time>2022-04-26T01:20:45Z</time>
      </trkpt>
      <trkpt lat="49.34887" lon="-0.8156">
        <ele>67</ele>
        <time>2022-04-26T01:20:54Z</time>
      </trkpt>
      <trkpt lat="49.34893" lon="-0.81492">
        <ele>67</ele>
        <time>2022-04-26T01:21:02Z</time>
      </trkpt>
      <trkpt lat="49.3489" lon="-0.81455">
        <ele>67</ele>
        <time>2022-04-26T01:21:06Z</time>
      </trkpt>
      <trkpt lat="49.34886" lon="-0.81424">
        <ele>66</ele>
        <time>2022-04-26T01:21:10Z</time>
      </trkpt>
      <trkpt lat="49.34875" lon="-0.81358">
        <ele>66</ele>
        <time>2022-04-26T01:21:18Z</time>
      </trkpt>
      <trkpt lat="49.34872" lon="-0.81309">
        <ele>66</ele>
        <time>2022-04-26T01:21:23Z</time>
      </trkpt>
      <trkpt lat="49.34867" lon="-0.81138">
        <ele>64</ele>
        <time>2022-04-26T01:21:43Z</time>
      </trkpt>
      <trkpt lat="49.34864" lon="-0.81112">
        <ele>64</ele>
        <time>2022-04-26T01:21:46Z</time>
      </trkpt>
      <trkpt lat="49.34855" lon="-0.81076">
        <ele>64</ele>
        <time>2022-04-26T01:21:51Z</time>
      </trkpt>
      <trkpt lat="49.34826" lon="-0.81001">
        <ele>62</ele>
        <time>2022-04-26T01:22:01Z</time>
      </trkpt>
      <trkpt lat="49.34797" lon="-0.80937">
        <ele>62</ele>
        <time>2022-04-26T01:22:10Z</time>
      </trkpt>
      <trkpt lat="49.34722" lon="-0.80785">
        <ele>58</ele>
        <time>2022-04-26T01:22:32Z</time>
      </trkpt>
      <trkpt lat="49.34715" lon="-0.80763">
        <ele>57</ele>
        <time>2022-04-26T01:22:35Z</time>
      </trkpt>
      <trkpt lat="49.34706" lon="-0.8072">
        <ele>57</ele>
        <time>2022-04-26T01:22:40Z</time>
      </trkpt>
      <trkpt lat="49.34684" lon="-0.80587">
        <ele>57</ele>
        <time>2022-04-26T01:22:56Z</time>
      </trkpt>
      <trkpt lat="49.34688" lon="-0.80551">
        <ele>56</ele>
        <time>2022-04-26T01:23:00Z</time>
      </trkpt>
      <trkpt lat="49.34715" lon="-0.8047">
        <ele>55</ele>
        <time>2022-04-26T01:23:11Z</time>
      </trkpt>
      <trkpt lat="49.34753" lon="-0.80345">
        <ele>60</ele>
        <time>2022-04-26T01:23:27Z</time>
      </trkpt>
      <trkpt lat="49.34759" lon="-0.80313">
        <ele>61</ele>
        <time>2022-04-26T01:23:31Z</time>
      </trkpt>
      <trkpt lat="49.34768" lon="-0.80202">
        <ele>63</ele>
        <time>2022-04-26T01:23:44Z</time>
      </trkpt>
      <trkpt lat="49.3477" lon="-0.80166">
        <ele>64</ele>
        <time>2022-04-26T01:23:48Z</time>
      </trkpt>
      <trkpt lat="49.3477" lon="-0.80069">
        <ele>64</ele>
        <time>2022-04-26T01:23:59Z</time>
      </trkpt>
      <trkpt lat="49.34774" lon="-0.80058">
        <ele>64</ele>
        <time>2022-04-26T01:24:01Z</time>
      </trkpt>
      <trkpt lat="49.34783" lon="-0.80047">
        <ele>64</ele>
        <time>2022-04-26T01:24:03Z</time>
      </trkpt>
      <trkpt lat="49.34808" lon="-0.80026">
        <ele>63</ele>
        <time>2022-04-26T01:24:08Z</time>
      </trkpt>
      <trkpt lat="49.3482" lon="-0.80012">
        <ele>63</ele>
        <time>2022-04-26T01:24:10Z</time>
      </trkpt>
      <trkpt lat="49.34864" lon="-0.79924">
        <ele>63</ele>
        <time>2022-04-26T01:24:23Z</time>
      </trkpt>
      <trkpt lat="49.34892" lon="-0.79862">
        <ele>62</ele>
        <time>2022-04-26T01:24:32Z</time>
      </trkpt>
      <trkpt lat="49.34897" lon="-0.79833">
        <ele>61</ele>
        <time>2022-04-26T01:24:35Z</time>
      </trkpt>
      <trkpt lat="49.34921" lon="-0.79553">
        <ele>62</ele>
        <time>2022-04-26T01:25:08Z</time>
      </trkpt>
      <trkpt lat="49.3493" lon="-0.79323">
        <ele>63</ele>
        <time>2022-04-26T01:25:35Z</time>
      </trkpt>
      <trkpt lat="49.34928" lon="-0.79298">
        <ele>63</ele>
        <time>2022-04-26T01:25:38Z</time>
      </trkpt>
      <trkpt lat="49.34925" lon="-0.79279">
        <ele>63</ele>
        <time>2022-04-26T01:25:40Z</time>
      </trkpt>
      <trkpt lat="49.34918" lon="-0.79262">
        <ele>63</ele>
        <time>2022-04-26T01:25:42Z</time>
      </trkpt>
      <trkpt lat="49.34869" lon="-0.79175">
        <ele>63</ele>
        <time>2022-04-26T01:25:56Z</time>
      </trkpt>
      <trkpt lat="49.34855" lon="-0.79145">
        <ele>64</ele>
        <time>2022-04-26T01:26:00Z</time>
      </trkpt>
      <trkpt lat="49.34851" lon="-0.79127">
        <ele>64</ele>
        <time>2022-04-26T01:26:02Z</time>
      </trkpt>
      <trkpt lat="49.34848" lon="-0.79107">
        <ele>64</ele>
        <time>2022-04-26T01:26:05Z</time>
      </trkpt>
      <trkpt lat="49.34846" lon="-0.79064">
        <ele>65</ele>
        <time>2022-04-26T01:26:10Z</time>
      </trkpt>
      <trkpt lat="49.34846" lon="-0.78724">
        <ele>64</ele>
        <time>2022-04-26T01:26:49Z</time>
      </trkpt>
      <trkpt lat="49.34843" lon="-0.78694">
        <ele>65</ele>
        <time>2022-04-26T01:26:52Z</time>
      </trkpt>
      <trkpt lat="49.3484" lon="-0.78672">
        <ele>65</ele>
        <time>2022-04-26T01:26:55Z</time>
      </trkpt>
      <trkpt lat="49.34835" lon="-0.78652">
        <ele>65</ele>
        <time>2022-04-26T01:26:58Z</time>
      </trkpt>
      <trkpt lat="49.34826" lon="-0.78632">
        <ele>65</ele>
        <time>2022-04-26T01:27:00Z</time>
      </trkpt>
      <trkpt lat="49.34808" lon="-0.78605">
        <ele>66</ele>
        <time>2022-04-26T01:27:05Z</time>
      </trkpt>
      <trkpt lat="49.34765" lon="-0.78553">
        <ele>67</ele>
        <time>2022-04-26T01:27:15Z</time>
      </trkpt>
      <trkpt lat="49.34746" lon="-0.78527">
        <ele>67</ele>
        <time>2022-04-26T01:27:19Z</time>
      </trkpt>
      <trkpt lat="49.34737" lon="-0.78511">
        <ele>67</ele>
        <time>2022-04-26T01:27:22Z</time>
      </trkpt>
      <trkpt lat="49.34726" lon="-0.78478">
        <ele>68</ele>
        <time>2022-04-26T01:27:26Z</time>
      </trkpt>
      <trkpt lat="49.34699" lon="-0.78389">
        <ele>68</ele>
        <time>2022-04-26T01:27:37Z</time>
      </trkpt>
      <trkpt lat="49.34676" lon="-0.78328">
        <ele>68</ele>
        <time>2022-04-26T01:27:45Z</time>
      </trkpt>
      <trkpt lat="49.34649" lon="-0.78283">
        <ele>68</ele>
        <time>2022-04-26T01:27:53Z</time>
      </trkpt>
      <trkpt lat="49.34587" lon="-0.78187">
        <ele>69</ele>
        <time>2022-04-26T01:28:08Z</time>
      </trkpt>
      <trkpt lat="49.34568" lon="-0.78149">
        <ele>69</ele>
        <time>2022-04-26T01:28:14Z</time>
      </trkpt>
      <trkpt lat="49.34553" lon="-0.7811">
        <ele>68</ele>
        <time>2022-04-26T01:28:19Z</time>
      </trkpt>
      <trkpt lat="49.34543" lon="-0.78086">
        <ele>68</ele>
        <time>2022-04-26T01:28:22Z</time>
      </trkpt>
      <trkpt lat="49.34525" lon="-0.77994">
        <ele>69</ele>
        <time>2022-04-26T01:28:33Z</time>
      </trkpt>
      <trkpt lat="49.34429" lon="-0.78033">
        <ele>69</ele>
        <time>2022-04-26T01:28:51Z</time>
      </trkpt>
      <trkpt lat="49.34271" lon="-0.78069">
        <ele>69</ele>
        <time>2022-04-26T01:29:20Z</time>
      </trkpt>
      <trkpt lat="49.34265" lon="-0.78072">
        <ele>69</ele>
        <time>2022-04-26T01:29:21Z</time>
      </trkpt>
      <trkpt lat="49.34259" lon="-0.78079">
        <ele>69</ele>
        <time>2022-04-26T01:29:22Z</time>
      </trkpt>
      <trkpt lat="49.34257" lon="-0.78085">
        <ele>69</ele>
        <time>2022-04-26T01:29:23Z</time>
      </trkpt>
      <trkpt lat="49.34257" lon="-0.78116">
        <ele>69</ele>
        <time>2022-04-26T01:29:26Z</time>
      </trkpt>
      <trkpt lat="49.34253" lon="-0.78126">
        <ele>69</ele>
        <time>2022-04-26T01:29:28Z</time>
      </trkpt>
      <trkpt lat="49.34218" lon="-0.78153">
        <ele>69</ele>
        <time>2022-04-26T01:29:35Z</time>
      </trkpt>
      <trkpt lat="49.34183" lon="-0.78171">
        <ele>69</ele>
        <time>2022-04-26T01:29:41Z</time>
      </trkpt>
      <trkpt lat="49.34144" lon="-0.78186">
        <ele>70</ele>
        <time>2022-04-26T01:29:48Z</time>
      </trkpt>
      <trkpt lat="49.34031" lon="-0.78215">
        <ele>71</ele>
        <time>2022-04-26T01:30:09Z</time>
      </trkpt>
      <trkpt lat="49.33906" lon="-0.7827">
        <ele>70</ele>
        <time>2022-04-26T01:30:32Z</time>
      </trkpt>
      <trkpt lat="49.33887" lon="-0.78274">
        <ele>70</ele>
        <time>2022-04-26T01:30:35Z</time>
      </trkpt>
      <trkpt lat="49.33876" lon="-0.78272">
        <ele>70</ele>
        <time>2022-04-26T01:30:37Z</time>
      </trkpt>
      <trkpt lat="49.33864" lon="-0.78234">
        <ele>70</ele>
        <time>2022-04-26T01:30:42Z</time>
      </trkpt>
      <trkpt lat="49.33829" lon="-0.78053">
        <ele>70</ele>
        <time>2022-04-26T01:31:04Z</time>
      </trkpt>
      <trkpt lat="49.33823" lon="-0.78051">
        <ele>70</ele>
        <time>2022-04-26T01:31:05Z</time>
      </trkpt>
      <trkpt lat="49.33815" lon="-0.78056">
        <ele>70</ele>
        <time>2022-04-26T01:31:07Z</time>
      </trkpt>
      <trkpt lat="49.33801" lon="-0.78069">
        <ele>70</ele>
        <time>2022-04-26T01:31:10Z</time>
      </trkpt>
      <trkpt lat="49.33781" lon="-0.78096">
        <ele>70</ele>
        <time>2022-04-26T01:31:14Z</time>
      </trkpt>
      <trkpt lat="49.33761" lon="-0.78112">
        <ele>69</ele>
        <time>2022-04-26T01:31:18Z</time>
      </trkpt>
      <trkpt lat="49.33706" lon="-0.78128">
        <ele>68</ele>
        <time>2022-04-26T01:31:28Z</time>
      </trkpt>
      <trkpt lat="49.33624" lon="-0.78146">
        <ele>68</ele>
        <time>2022-04-26T01:31:43Z</time>
      </trkpt>
      <trkpt lat="49.33552" lon="-0.78176">
        <ele>67</ele>
        <time>2022-04-26T01:31:56Z</time>
      </trkpt>
      <trkpt lat="49.33462" lon="-0.78217">
        <ele>65</ele>
        <time>2022-04-26T01:32:13Z</time>
      </trkpt>
      <trkpt lat="49.33229" lon="-0.78342">
        <ele>60</ele>
        <time>2022-04-26T01:32:57Z</time>
      </trkpt>
      <trkpt lat="49.33187" lon="-0.78375">
        <ele>60</ele>
        <time>2022-04-26T01:33:05Z</time>
      </trkpt>
      <trkpt lat="49.32993" lon="-0.78566">
        <ele>54</ele>
        <time>2022-04-26T01:33:46Z</time>
      </trkpt>
      <trkpt lat="49.32948" lon="-0.78602">
        <ele>53</ele>
        <time>2022-04-26T01:33:55Z</time>
      </trkpt>
      <trkpt lat="49.32888" lon="-0.78623">
        <ele>52</ele>
        <time>2022-04-26T01:34:06Z</time>
      </trkpt>
      <trkpt lat="49.32846" lon="-0.78627">
        <ele>51</ele>
        <time>2022-04-26T01:34:14Z</time>
      </trkpt>
      <trkpt lat="49.32691" lon="-0.78599">
        <ele>45</ele>
        <time>2022-04-26T01:34:42Z</time>
      </trkpt>
      <trkpt lat="49.32661" lon="-0.78599">
        <ele>43</ele>
        <time>2022-04-26T01:34:47Z</time>
      </trkpt>
      <trkpt lat="49.32648" lon="-0.78602">
        <ele>44</ele>
        <time>2022-04-26T01:34:49Z</time>
      </trkpt>
      <trkpt lat="49.32646" lon="-0.78594">
        <ele>45</ele>
        <time>2022-04-26T01:34:50Z</time>
      </trkpt>
      <trkpt lat="49.32653" lon="-0.78551">
        <ele>47</ele>
        <time>2022-04-26T01:34:55Z</time>
      </trkpt>
      <trkpt lat="49.32646" lon="-0.78594">
        <ele>45</ele>
        <time>2022-04-26T01:35:01Z</time>
      </trkpt>
      <trkpt lat="49.32648" lon="-0.78602">
        <ele>44</ele>
        <time>2022-04-26T01:35:02Z</time>
      </trkpt>
      <trkpt lat="49.32644" lon="-0.78611">
        <ele>44</ele>
        <time>2022-04-26T01:35:03Z</time>
      </trkpt>
      <trkpt lat="49.32642" lon="-0.78629">
        <ele>43</ele>
        <time>2022-04-26T01:35:05Z</time>
      </trkpt>
      <trkpt lat="49.32654" lon="-0.78861">
        <ele>37</ele>
        <time>2022-04-26T01:35:32Z</time>
      </trkpt>
      <trkpt lat="49.32653" lon="-0.78889">
        <ele>37</ele>
        <time>2022-04-26T01:35:35Z</time>
      </trkpt>
      <trkpt lat="49.3265" lon="-0.78903">
        <ele>36</ele>
        <time>2022-04-26T01:35:37Z</time>
      </trkpt>
      <trkpt lat="49.32641" lon="-0.78917">
        <ele>36</ele>
        <time>2022-04-26T01:35:39Z</time>
      </trkpt>
      <trkpt lat="49.32399" lon="-0.7902">
        <ele>30</ele>
        <time>2022-04-26T01:36:24Z</time>
      </trkpt>
      <trkpt lat="49.32378" lon="-0.79026">
        <ele>29</ele>
        <time>2022-04-26T01:36:28Z</time>
      </trkpt>
      <trkpt lat="49.32345" lon="-0.79025">
        <ele>28</ele>
        <time>2022-04-26T01:36:34Z</time>
      </trkpt>
      <trkpt lat="49.32317" lon="-0.79021">
        <ele>26</ele>
        <time>2022-04-26T01:36:39Z</time>
      </trkpt>
      <trkpt lat="49.32237" lon="-0.78973">
        <ele>21</ele>
        <time>2022-04-26T01:36:54Z</time>
      </trkpt>
      <trkpt lat="49.32236" lon="-0.79033">
        <ele>19</ele>
        <time>2022-04-26T01:37:01Z</time>
      </trkpt>
      <trkpt lat="49.32237" lon="-0.79104">
        <ele>20</ele>
        <time>2022-04-26T01:37:09Z</time>
      </trkpt>
      <trkpt lat="49.32225" lon="-0.79121">
        <ele>19</ele>
        <time>2022-04-26T01:37:12Z</time>
      </trkpt>
      <trkpt lat="49.32188" lon="-0.79196">
        <ele>18</ele>
        <time>2022-04-26T01:37:23Z</time>
      </trkpt>
      <trkpt lat="49.32163" lon="-0.79234">
        <ele>18</ele>
        <time>2022-04-26T01:37:29Z</time>
      </trkpt>
      <trkpt lat="49.32126" lon="-0.79279">
        <ele>17</ele>
        <time>2022-04-26T01:37:37Z</time>
      </trkpt>
      <trkpt lat="49.32105" lon="-0.79312">
        <ele>16</ele>
        <time>2022-04-26T01:37:43Z</time>
      </trkpt>
      <trkpt lat="49.32078" lon="-0.79374">
        <ele>15</ele>
        <time>2022-04-26T01:37:51Z</time>
      </trkpt>
      <trkpt lat="49.32062" lon="-0.79396">
        <ele>15</ele>
        <time>2022-04-26T01:37:55Z</time>
      </trkpt>
      <trkpt lat="49.32037" lon="-0.79423">
        <ele>14</ele>
        <time>2022-04-26T01:38:01Z</time>
      </trkpt>
      <trkpt lat="49.32021" lon="-0.7942">
        <ele>13</ele>
        <time>2022-04-26T01:38:04Z</time>
      </trkpt>
      <trkpt lat="49.31943" lon="-0.79395">
        <ele>12</ele>
        <time>2022-04-26T01:38:18Z</time>
      </trkpt>
      <trkpt lat="49.31933" lon="-0.79388">
        <ele>12</ele>
        <time>2022-04-26T01:38:20Z</time>
      </trkpt>
      <trkpt lat="49.31918" lon="-0.7938">
        <ele>12</ele>
        <time>2022-04-26T01:38:23Z</time>
      </trkpt>
      <trkpt lat="49.31839" lon="-0.79375">
        <ele>13</ele>
        <time>2022-04-26T01:38:37Z</time>
      </trkpt>
      <trkpt lat="49.31812" lon="-0.79363">
        <ele>13</ele>
        <time>2022-04-26T01:38:42Z</time>
      </trkpt>
      <trkpt lat="49.31774" lon="-0.7936">
        <ele>14</ele>
        <time>2022-04-26T01:38:48Z</time>
      </trkpt>
      <trkpt lat="49.31763" lon="-0.79258">
        <ele>15</ele>
        <time>2022-04-26T01:39:00Z</time>
      </trkpt>
      <trkpt lat="49.31761" lon="-0.79225">
        <ele>15</ele>
        <time>2022-04-26T01:39:04Z</time>
      </trkpt>
      <trkpt lat="49.31767" lon="-0.79196">
        <ele>15</ele>
        <time>2022-04-26T01:39:08Z</time>
      </trkpt>
      <trkpt lat="49.31678" lon="-0.7906">
        <ele>16</ele>
        <time>2022-04-26T01:39:30Z</time>
      </trkpt>
      <trkpt lat="49.31663" lon="-0.79044">
        <ele>16</ele>
        <time>2022-04-26T01:39:33Z</time>
      </trkpt>
      <trkpt lat="49.31664" lon="-0.79015">
        <ele>15</ele>
        <time>2022-04-26T01:39:37Z</time>
      </trkpt>
      <trkpt lat="49.31661" lon="-0.7897">
        <ele>15</ele>
        <time>2022-04-26T01:39:42Z</time>
      </trkpt>
      <trkpt lat="49.31652" lon="-0.789">
        <ele>14</ele>
        <time>2022-04-26T01:39:50Z</time>
      </trkpt>
      <trkpt lat="49.31655" lon="-0.78878">
        <ele>14</ele>
        <time>2022-04-26T01:39:53Z</time>
      </trkpt>
      <trkpt lat="49.31664" lon="-0.78852">
        <ele>14</ele>
        <time>2022-04-26T01:39:56Z</time>
      </trkpt>
      <trkpt lat="49.31821" lon="-0.78452">
        <ele>14</ele>
        <time>2022-04-26T01:40:50Z</time>
      </trkpt>
      <trkpt lat="49.31825" lon="-0.78437">
        <ele>14</ele>
        <time>2022-04-26T01:40:52Z</time>
      </trkpt>
      <trkpt lat="49.31827" lon="-0.78413">
        <ele>14</ele>
        <time>2022-04-26T01:40:55Z</time>
      </trkpt>
      <trkpt lat="49.3181" lon="-0.78193">
        <ele>13</ele>
        <time>2022-04-26T01:41:21Z</time>
      </trkpt>
      <trkpt lat="49.31802" lon="-0.78161">
        <ele>13</ele>
        <time>2022-04-26T01:41:25Z</time>
      </trkpt>
      <trkpt lat="49.31798" lon="-0.78133">
        <ele>13</ele>
        <time>2022-04-26T01:41:28Z</time>
      </trkpt>
      <trkpt lat="49.31795" lon="-0.78098">
        <ele>13</ele>
        <time>2022-04-26T01:41:32Z</time>
      </trkpt>
      <trkpt lat="49.31796" lon="-0.78078">
        <ele>13</ele>
        <time>2022-04-26T01:41:35Z</time>
      </trkpt>
      <trkpt lat="49.31801" lon="-0.78065">
        <ele>13</ele>
        <time>2022-04-26T01:41:36Z</time>
      </trkpt>
      <trkpt lat="49.31828" lon="-0.78033">
        <ele>13</ele>
        <time>2022-04-26T01:41:42Z</time>
      </trkpt>
      <trkpt lat="49.3183" lon="-0.78025">
        <ele>13</ele>
        <time>2022-04-26T01:41:43Z</time>
      </trkpt>
      <trkpt lat="49.31833" lon="-0.77961">
        <ele>13</ele>
        <time>2022-04-26T01:41:51Z</time>
      </trkpt>
      <trkpt lat="49.31828" lon="-0.77856">
        <ele>15</ele>
        <time>2022-04-26T01:42:03Z</time>
      </trkpt>
      <trkpt lat="49.31828" lon="-0.77798">
        <ele>15</ele>
        <time>2022-04-26T01:42:10Z</time>
      </trkpt>
      <trkpt lat="49.31832" lon="-0.77732">
        <ele>14</ele>
        <time>2022-04-26T01:42:17Z</time>
      </trkpt>
      <trkpt lat="49.31886" lon="-0.77179">
        <ele>16</ele>
        <time>2022-04-26T01:43:22Z</time>
      </trkpt>
      <trkpt lat="49.31889" lon="-0.77122">
        <ele>16</ele>
        <time>2022-04-26T01:43:29Z</time>
      </trkpt>
      <trkpt lat="49.3189" lon="-0.77055">
        <ele>16</ele>
        <time>2022-04-26T01:43:37Z</time>
      </trkpt>
      <trkpt lat="49.31889" lon="-0.77023">
        <ele>16</ele>
        <time>2022-04-26T01:43:40Z</time>
      </trkpt>
      <trkpt lat="49.31887" lon="-0.76997">
        <ele>16</ele>
        <time>2022-04-26T01:43:43Z</time>
      </trkpt>
      <trkpt lat="49.31878" lon="-0.76946">
        <ele>16</ele>
        <time>2022-04-26T01:43:50Z</time>
      </trkpt>
      <trkpt lat="49.31838" lon="-0.76814">
        <ele>19</ele>
        <time>2022-04-26T01:44:06Z</time>
      </trkpt>
      <trkpt lat="49.31825" lon="-0.76764">
        <ele>21</ele>
        <time>2022-04-26T01:44:13Z</time>
      </trkpt>
      <trkpt lat="49.31805" lon="-0.76667">
        <ele>22</ele>
        <time>2022-04-26T01:44:25Z</time>
      </trkpt>
      <trkpt lat="49.31781" lon="-0.76517">
        <ele>21</ele>
        <time>2022-04-26T01:44:42Z</time>
      </trkpt>
      <trkpt lat="49.31769" lon="-0.76436">
        <ele>21</ele>
        <time>2022-04-26T01:44:52Z</time>
      </trkpt>
      <trkpt lat="49.31695" lon="-0.75884">
        <ele>23</ele>
        <time>2022-04-26T01:45:57Z</time>
      </trkpt>
      <trkpt lat="49.31688" lon="-0.75811">
        <ele>23</ele>
        <time>2022-04-26T01:46:06Z</time>
      </trkpt>
      <trkpt lat="49.31659" lon="-0.75605">
        <ele>29</ele>
        <time>2022-04-26T01:46:30Z</time>
      </trkpt>
      <trkpt lat="49.31656" lon="-0.7559">
        <ele>29</ele>
        <time>2022-04-26T01:46:32Z</time>
      </trkpt>
      <trkpt lat="49.31651" lon="-0.75573">
        <ele>29</ele>
        <time>2022-04-26T01:46:34Z</time>
      </trkpt>
      <trkpt lat="49.31635" lon="-0.75542">
        <ele>29</ele>
        <time>2022-04-26T01:46:39Z</time>
      </trkpt>
      <trkpt lat="49.31427" lon="-0.75177">
        <ele>25</ele>
        <time>2022-04-26T01:47:35Z</time>
      </trkpt>
      <trkpt lat="49.31424" lon="-0.75166">
        <ele>25</ele>
        <time>2022-04-26T01:47:37Z</time>
      </trkpt>
      <trkpt lat="49.31414" lon="-0.75156">
        <ele>25</ele>
        <time>2022-04-26T01:47:39Z</time>
      </trkpt>
      <trkpt lat="49.31395" lon="-0.75147">
        <ele>25</ele>
        <time>2022-04-26T01:47:42Z</time>
      </trkpt>
      <trkpt lat="49.31289" lon="-0.75046">
        <ele>23</ele>
        <time>2022-04-26T01:48:04Z</time>
      </trkpt>
      <trkpt lat="49.31273" lon="-0.75082">
        <ele>24</ele>
        <time>2022-04-26T01:48:10Z</time>
      </trkpt>
      <trkpt lat="49.31254" lon="-0.75111">
        <ele>26</ele>
        <time>2022-04-26T01:48:14Z</time>
      </trkpt>
      <trkpt lat="49.31273" lon="-0.75082">
        <ele>24</ele>
        <time>2022-04-26T01:48:19Z</time>
      </trkpt>
      <trkpt lat="49.31289" lon="-0.75046">
        <ele>23</ele>
        <time>2022-04-26T01:48:24Z</time>
      </trkpt>
      <trkpt lat="49.31251" lon="-0.7503">
        <ele>24</ele>
        <time>2022-04-26T01:48:31Z</time>
      </trkpt>
      <trkpt lat="49.31219" lon="-0.75001">
        <ele>24</ele>
        <time>2022-04-26T01:48:38Z</time>
      </trkpt>
      <trkpt lat="49.31191" lon="-0.7496">
        <ele>24</ele>
        <time>2022-04-26T01:48:45Z</time>
      </trkpt>
      <trkpt lat="49.31098" lon="-0.74789">
        <ele>21</ele>
        <time>2022-04-26T01:49:10Z</time>
      </trkpt>
      <trkpt lat="49.31055" lon="-0.7473">
        <ele>20</ele>
        <time>2022-04-26T01:49:21Z</time>
      </trkpt>
      <trkpt lat="49.31021" lon="-0.74721">
        <ele>20</ele>
        <time>2022-04-26T01:49:27Z</time>
      </trkpt>
      <trkpt lat="49.30971" lon="-0.74696">
        <ele>21</ele>
        <time>2022-04-26T01:49:36Z</time>
      </trkpt>
      <trkpt lat="49.30807" lon="-0.74595">
        <ele>22</ele>
        <time>2022-04-26T01:50:08Z</time>
      </trkpt>
      <trkpt lat="49.30759" lon="-0.74553">
        <ele>22</ele>
        <time>2022-04-26T01:50:18Z</time>
      </trkpt>
      <trkpt lat="49.3068" lon="-0.74527">
        <ele>24</ele>
        <time>2022-04-26T01:50:32Z</time>
      </trkpt>
      <trkpt lat="49.30662" lon="-0.74525">
        <ele>24</ele>
        <time>2022-04-26T01:50:35Z</time>
      </trkpt>
      <trkpt lat="49.30642" lon="-0.74527">
        <ele>24</ele>
        <time>2022-04-26T01:50:39Z</time>
      </trkpt>
      <trkpt lat="49.30553" lon="-0.74486">
        <ele>25</ele>
        <time>2022-04-26T01:50:55Z</time>
      </trkpt>
      <trkpt lat="49.30052" lon="-0.74206">
        <ele>27</ele>
        <time>2022-04-26T01:52:30Z</time>
      </trkpt>
      <trkpt lat="49.30031" lon="-0.74189">
        <ele>26</ele>
        <time>2022-04-26T01:52:34Z</time>
      </trkpt>
      <trkpt lat="49.30027" lon="-0.74087">
        <ele>24</ele>
        <time>2022-04-26T01:52:46Z</time>
      </trkpt>
      <trkpt lat="49.30014" lon="-0.74062">
        <ele>23</ele>
        <time>2022-04-26T01:52:50Z</time>
      </trkpt>
      <trkpt lat="49.29998" lon="-0.73977">
        <ele>21</ele>
        <time>2022-04-26T01:53:00Z</time>
      </trkpt>
      <trkpt lat="49.29955" lon="-0.73818">
        <ele>23</ele>
        <time>2022-04-26T01:53:20Z</time>
      </trkpt>
      <trkpt lat="49.29951" lon="-0.73803">
        <ele>24</ele>
        <time>2022-04-26T01:53:22Z</time>
      </trkpt>
      <trkpt lat="49.29926" lon="-0.73722">
        <ele>29</ele>
        <time>2022-04-26T01:53:32Z</time>
      </trkpt>
      <trkpt lat="49.29931" lon="-0.73665">
        <ele>33</ele>
        <time>2022-04-26T01:53:39Z</time>
      </trkpt>
      <trkpt lat="49.29937" lon="-0.73557">
        <ele>35</ele>
        <time>2022-04-26T01:53:52Z</time>
      </trkpt>
      <trkpt lat="49.29882" lon="-0.73571">
        <ele>36</ele>
        <time>2022-04-26T01:54:02Z</time>
      </trkpt>
      <trkpt lat="49.29865" lon="-0.73577">
        <ele>37</ele>
        <time>2022-04-26T01:54:05Z</time>
      </trkpt>
      <trkpt lat="49.29871" lon="-0.73454">
        <ele>37</ele>
        <time>2022-04-26T01:54:19Z</time>
      </trkpt>
      <trkpt lat="49.29878" lon="-0.7338">
        <ele>39</ele>
        <time>2022-04-26T01:54:28Z</time>
      </trkpt>
      <trkpt lat="49.29891" lon="-0.73286">
        <ele>39</ele>
        <time>2022-04-26T01:54:39Z</time>
      </trkpt>
      <trkpt lat="49.29908" lon="-0.73181">
        <ele>40</ele>
        <time>2022-04-26T01:54:51Z</time>
      </trkpt>
      <trkpt lat="49.29892" lon="-0.73157">
        <ele>40</ele>
        <time>2022-04-26T01:54:55Z</time>
      </trkpt>
      <trkpt lat="49.29513" lon="-0.72713">
        <ele>47</ele>
        <time>2022-04-26T01:56:20Z</time>
      </trkpt>
      <trkpt lat="49.29471" lon="-0.72667">
        <ele>48</ele>
        <time>2022-04-26T01:56:29Z</time>
      </trkpt>
      <trkpt lat="49.29149" lon="-0.72291">
        <ele>54</ele>
        <time>2022-04-26T01:57:41Z</time>
      </trkpt>
      <trkpt lat="49.29104" lon="-0.72232">
        <ele>53</ele>
        <time>2022-04-26T01:57:52Z</time>
      </trkpt>
      <trkpt lat="49.29089" lon="-0.72208">
        <ele>54</ele>
        <time>2022-04-26T01:57:56Z</time>
      </trkpt>
      <trkpt lat="49.28963" lon="-0.72061">
        <ele>60</ele>
        <time>2022-04-26T01:58:24Z</time>
      </trkpt>
      <trkpt lat="49.28965" lon="-0.72056">
        <ele>60</ele>
        <time>2022-04-26T01:58:25Z</time>
      </trkpt>
      <trkpt lat="49.28882" lon="-0.71957">
        <ele>58</ele>
        <time>2022-04-26T01:58:43Z</time>
      </trkpt>
      <trkpt lat="49.28305" lon="-0.7129">
        <ele>55</ele>
        <time>2022-04-26T02:00:52Z</time>
      </trkpt>
      <trkpt lat="49.28276" lon="-0.71253">
        <ele>54</ele>
        <time>2022-04-26T02:00:59Z</time>
      </trkpt>
      <trkpt lat="49.28244" lon="-0.71219">
        <ele>54</ele>
        <time>2022-04-26T02:01:06Z</time>
      </trkpt>
      <trkpt lat="49.28184" lon="-0.71146">
        <ele>55</ele>
        <time>2022-04-26T02:01:19Z</time>
      </trkpt>
      <trkpt lat="49.28015" lon="-0.70952">
        <ele>55</ele>
        <time>2022-04-26T02:01:57Z</time>
      </trkpt>
      <trkpt lat="49.28004" lon="-0.70945">
        <ele>54</ele>
        <time>2022-04-26T02:01:59Z</time>
      </trkpt>
      <trkpt lat="49.27996" lon="-0.70946">
        <ele>54</ele>
        <time>2022-04-26T02:02:00Z</time>
      </trkpt>
      <trkpt lat="49.27948" lon="-0.70979">
        <ele>55</ele>
        <time>2022-04-26T02:02:10Z</time>
      </trkpt>
      <trkpt lat="49.27883" lon="-0.70765">
        <ele>54</ele>
        <time>2022-04-26T02:02:37Z</time>
      </trkpt>
      <trkpt lat="49.27838" lon="-0.70621">
        <ele>54</ele>
        <time>2022-04-26T02:02:56Z</time>
      </trkpt>
      <trkpt lat="49.27789" lon="-0.70513">
        <ele>52</ele>
        <time>2022-04-26T02:03:11Z</time>
      </trkpt>
      <trkpt lat="49.27781" lon="-0.7049">
        <ele>52</ele>
        <time>2022-04-26T02:03:14Z</time>
      </trkpt>
      <trkpt lat="49.27749" lon="-0.70343">
        <ele>52</ele>
        <time>2022-04-26T02:03:32Z</time>
      </trkpt>
      <trkpt lat="49.27735" lon="-0.70286">
        <ele>49</ele>
        <time>2022-04-26T02:03:39Z</time>
      </trkpt>
      <trkpt lat="49.27686" lon="-0.70126">
        <ele>42</ele>
        <time>2022-04-26T02:03:59Z</time>
      </trkpt>
      <trkpt lat="49.27612" lon="-0.69891">
        <ele>44</ele>
        <time>2022-04-26T02:04:30Z</time>
      </trkpt>
      <trkpt lat="49.27607" lon="-0.69889">
        <ele>44</ele>
        <time>2022-04-26T02:04:31Z</time>
      </trkpt>
      <trkpt lat="49.27605" lon="-0.69897">
        <ele>44</ele>
        <time>2022-04-26T02:04:32Z</time>
      </trkpt>
      <trkpt lat="49.27597" lon="-0.69905">
        <ele>44</ele>
        <time>2022-04-26T02:04:33Z</time>
      </trkpt>
      <trkpt lat="49.27575" lon="-0.6992">
        <ele>44</ele>
        <time>2022-04-26T02:04:38Z</time>
      </trkpt>
      <trkpt lat="49.27546" lon="-0.69931">
        <ele>45</ele>
        <time>2022-04-26T02:04:43Z</time>
      </trkpt>
      <trkpt lat="49.27518" lon="-0.69939">
        <ele>46</ele>
        <time>2022-04-26T02:04:48Z</time>
      </trkpt>
      <trkpt lat="49.27479" lon="-0.6994">
        <ele>47</ele>
        <time>2022-04-26T02:04:55Z</time>
      </trkpt>
      <trkpt lat="49.274" lon="-0.69932">
        <ele>50</ele>
        <time>2022-04-26T02:05:09Z</time>
      </trkpt>
      <trkpt lat="49.27332" lon="-0.69912">
        <ele>51</ele>
        <time>2022-04-26T02:05:21Z</time>
      </trkpt>
      <trkpt lat="49.27303" lon="-0.69896">
        <ele>52</ele>
        <time>2022-04-26T02:05:27Z</time>
      </trkpt>
      <trkpt lat="49.2705" lon="-0.69721">
        <ele>46</ele>
        <time>2022-04-26T02:06:16Z</time>
      </trkpt>
      <trkpt lat="49.27049" lon="-0.69735">
        <ele>46</ele>
        <time>2022-04-26T02:06:18Z</time>
      </trkpt>
      <trkpt lat="49.27043" lon="-0.69746">
        <ele>46</ele>
        <time>2022-04-26T02:06:20Z</time>
      </trkpt>
      <trkpt lat="49.27036" lon="-0.69748">
        <ele>47</ele>
        <time>2022-04-26T02:06:21Z</time>
      </trkpt>
      <trkpt lat="49.2703" lon="-0.69745">
        <ele>47</ele>
        <time>2022-04-26T02:06:22Z</time>
      </trkpt>
      <trkpt lat="49.27024" lon="-0.69732">
        <ele>47</ele>
        <time>2022-04-26T02:06:24Z</time>
      </trkpt>
      <trkpt lat="49.27014" lon="-0.69728">
        <ele>47</ele>
        <time>2022-04-26T02:06:26Z</time>
      </trkpt>
      <trkpt lat="49.27005" lon="-0.69729">
        <ele>48</ele>
        <time>2022-04-26T02:06:27Z</time>
      </trkpt>
      <trkpt lat="49.27003" lon="-0.69738">
        <ele>48</ele>
        <time>2022-04-26T02:06:28Z</time>
      </trkpt>
      <trkpt lat="49.27002" lon="-0.69752">
        <ele>48</ele>
        <time>2022-04-26T02:06:30Z</time>
      </trkpt>
      <trkpt lat="49.27003" lon="-0.69786">
        <ele>48</ele>
        <time>2022-04-26T02:06:34Z</time>
      </trkpt>
      <trkpt lat="49.26983" lon="-0.69786">
        <ele>49</ele>
        <time>2022-04-26T02:06:37Z</time>
      </trkpt>
      <trkpt lat="49.26984" lon="-0.6973">
        <ele>48</ele>
        <time>2022-04-26T02:06:44Z</time>
      </trkpt>
    </trkseg>
  </trk>
</gpx>